Wetterdaten: Sonntag, 09.10.2016
Datum Zeit Temp. A. Temp. A. max Feuchte A. Luftdruck Regen Wind Richtung Richtung Sonnenschein ET UV Solar Taupunkt Windben
09.10.2016 00:00 3,5 C 3,6 C 96 % 1022,2 hPa 0,0 mm 0,0 km/h (0 Bft) S-SW 211 0 min 0,000 mm 0,0 UV-I 0 W/m 2,9 C 0,0 km/h (0 Bft)
09.10.2016 00:01 3,5 C 3,6 C 96 % 1022,2 hPa 0,0 mm 0,1 km/h (0 Bft) S-SW 211 0 min 0,000 mm 0,0 UV-I 0 W/m 2,9 C 1,6 km/h (1 Bft)
09.10.2016 00:02 3,5 C 3,5 C 96 % 1022,1 hPa 0,0 mm 0,1 km/h (0 Bft) S-SW 211 0 min 0,000 mm 0,0 UV-I 0 W/m 2,9 C 1,6 km/h (1 Bft)
09.10.2016 00:03 3,5 C 3,5 C 96 % 1022,2 hPa 0,0 mm 0,5 km/h (0 Bft) S-SW 211 0 min 0,000 mm 0,0 UV-I 0 W/m 2,9 C 1,6 km/h (1 Bft)
09.10.2016 00:04 3,5 C 3,5 C 96 % 1022,1 hPa 0,0 mm 0,0 km/h (0 Bft) S-SW 211 0 min 0,000 mm 0,0 UV-I 0 W/m 2,9 C 0,0 km/h (0 Bft)
09.10.2016 00:05 3,5 C 3,5 C 96 % 1022,1 hPa 0,0 mm 0,0 km/h (0 Bft) S-SW 211 0 min 0,000 mm 0,0 UV-I 0 W/m 2,9 C 0,0 km/h (0 Bft)
09.10.2016 00:06 3,4 C 3,5 C 96 % 1022,1 hPa 0,0 mm 0,0 km/h (0 Bft) S-SW 211 0 min 0,000 mm 0,0 UV-I 0 W/m 2,8 C 0,0 km/h (0 Bft)
09.10.2016 00:07 3,3 C 3,4 C 95 % 1022,1 hPa 0,0 mm 0,0 km/h (0 Bft) S-SW 211 0 min 0,000 mm 0,0 UV-I 0 W/m 2,6 C 0,0 km/h (0 Bft)
09.10.2016 00:08 3,3 C 3,4 C 95 % 1022,1 hPa 0,0 mm 0,0 km/h (0 Bft) S-SW 211 0 min 0,000 mm 0,0 UV-I 0 W/m 2,6 C 0,0 km/h (0 Bft)
09.10.2016 00:09 3,3 C 3,3 C 95 % 1022,1 hPa 0,0 mm 0,0 km/h (0 Bft) S-SW 211 0 min 0,000 mm 0,0 UV-I 0 W/m 2,6 C 0,0 km/h (0 Bft)
09.10.2016 00:10 3,3 C 3,3 C 95 % 1022,1 hPa 0,0 mm 0,0 km/h (0 Bft) S-SW 211 0 min 0,000 mm 0,0 UV-I 0 W/m 2,6 C 0,0 km/h (0 Bft)
09.10.2016 00:11 3,3 C 3,3 C 96 % 1022,1 hPa 0,0 mm 0,0 km/h (0 Bft) S-SW 211 0 min 0,000 mm 0,0 UV-I 0 W/m 2,7 C 0,0 km/h (0 Bft)
09.10.2016 00:12 3,2 C 3,3 C 96 % 1022,1 hPa 0,0 mm 0,0 km/h (0 Bft) S-SW 211 0 min 0,000 mm 0,0 UV-I 0 W/m 2,6 C 0,0 km/h (0 Bft)
09.10.2016 00:13 3,2 C 3,2 C 96 % 1022,1 hPa 0,0 mm 0,0 km/h (0 Bft) S-SW 211 0 min 0,000 mm 0,0 UV-I 0 W/m 2,6 C 0,0 km/h (0 Bft)
09.10.2016 00:14 3,2 C 3,2 C 96 % 1022,1 hPa 0,0 mm 0,0 km/h (0 Bft) S-SW 211 0 min 0,000 mm 0,0 UV-I 0 W/m 2,6 C 0,0 km/h (0 Bft)
09.10.2016 00:15 3,1 C 3,2 C 96 % 1022,2 hPa 0,0 mm 1,8 km/h (1 Bft) S-SW 213 0 min 0,000 mm 0,0 UV-I 0 W/m 2,5 C 3,2 km/h (1 Bft)
09.10.2016 00:16 3,1 C 3,2 C 95 % 1022,2 hPa 0,0 mm 1,8 km/h (1 Bft) SW 214 0 min 0,000 mm 0,0 UV-I 0 W/m 2,4 C 3,2 km/h (1 Bft)
09.10.2016 00:17 3,1 C 3,1 C 95 % 1022,2 hPa 0,0 mm 1,3 km/h (1 Bft) SW 214 0 min 0,000 mm 0,0 UV-I 0 W/m 2,4 C 3,2 km/h (1 Bft)
09.10.2016 00:18 3,0 C 3,1 C 95 % 1022,2 hPa 0,0 mm 1,3 km/h (1 Bft) SW 214 0 min 0,000 mm 0,0 UV-I 0 W/m 2,3 C 1,6 km/h (1 Bft)
09.10.2016 00:19 2,9 C 3,0 C 96 % 1022,2 hPa 0,0 mm 2,4 km/h (1 Bft) S-SW 206 0 min 0,000 mm 0,0 UV-I 0 W/m 2,3 C 3,2 km/h (1 Bft)
09.10.2016 00:20 3,0 C 3,0 C 96 % 1022,2 hPa 0,0 mm 2,3 km/h (1 Bft) S-SW 205 0 min 0,000 mm 0,0 UV-I 0 W/m 2,4 C 3,2 km/h (1 Bft)
09.10.2016 00:21 3,1 C 3,1 C 96 % 1022,2 hPa 0,0 mm 2,0 km/h (1 Bft) S-SW 205 0 min 0,000 mm 0,0 UV-I 0 W/m 2,5 C 3,2 km/h (1 Bft)
09.10.2016 00:22 3,1 C 3,1 C 96 % 1022,2 hPa 0,0 mm 1,9 km/h (1 Bft) S-SW 205 0 min 0,000 mm 0,0 UV-I 0 W/m 2,5 C 3,2 km/h (1 Bft)
09.10.2016 00:23 3,2 C 3,2 C 96 % 1022,2 hPa 0,0 mm 0,8 km/h (0 Bft) S-SW 205 0 min 0,000 mm 0,0 UV-I 0 W/m 2,6 C 1,6 km/h (1 Bft)
09.10.2016 00:24 3,2 C 3,2 C 96 % 1022,2 hPa 0,0 mm 0,0 km/h (0 Bft) S-SW 205 0 min 0,000 mm 0,0 UV-I 0 W/m 2,6 C 0,0 km/h (0 Bft)
09.10.2016 00:25 3,2 C 3,2 C 96 % 1022,2 hPa 0,0 mm 0,0 km/h (0 Bft) S-SW 205 0 min 0,000 mm 0,0 UV-I 0 W/m 2,6 C 0,0 km/h (0 Bft)
09.10.2016 00:26 3,3 C 3,3 C 96 % 1022,2 hPa 0,0 mm 0,0 km/h (0 Bft) S-SW 205 0 min 0,000 mm 0,0 UV-I 0 W/m 2,7 C 0,0 km/h (0 Bft)
09.10.2016 00:27 3,3 C 3,3 C 96 % 1022,1 hPa 0,0 mm 0,0 km/h (0 Bft) S-SW 205 0 min 0,000 mm 0,0 UV-I 0 W/m 2,7 C 0,0 km/h (0 Bft)
09.10.2016 00:28 3,3 C 3,3 C 96 % 1022,1 hPa 0,0 mm 0,0 km/h (0 Bft) S-SW 205 0 min 0,000 mm 0,0 UV-I 0 W/m 2,7 C 0,0 km/h (0 Bft)
09.10.2016 00:29 3,3 C 3,3 C 96 % 1022,2 hPa 0,0 mm 1,1 km/h (1 Bft) S-SW 205 0 min 0,000 mm 0,0 UV-I 0 W/m 2,7 C 1,6 km/h (1 Bft)
09.10.2016 00:30 3,3 C 3,3 C 96 % 1022,1 hPa 0,0 mm 0,7 km/h (0 Bft) S-SW 205 0 min 0,000 mm 0,0 UV-I 0 W/m 2,7 C 1,6 km/h (1 Bft)
09.10.2016 00:31 3,3 C 3,3 C 96 % 1022,1 hPa 0,0 mm 0,6 km/h (0 Bft) S-SW 205 0 min 0,000 mm 0,0 UV-I 0 W/m 2,7 C 1,6 km/h (1 Bft)
09.10.2016 00:32 3,3 C 3,3 C 96 % 1022,1 hPa 0,0 mm 1,6 km/h (1 Bft) S-SW 205 0 min 0,000 mm 0,0 UV-I 0 W/m 2,7 C 3,2 km/h (1 Bft)
09.10.2016 00:33 3,3 C 3,3 C 96 % 1022,1 hPa 0,0 mm 3,0 km/h (1 Bft) S-SW 202 0 min 0,000 mm 0,0 UV-I 0 W/m 2,7 C 4,8 km/h (1 Bft)
09.10.2016 00:34 3,4 C 3,4 C 96 % 1022,2 hPa 0,0 mm 2,0 km/h (1 Bft) S-SW 202 0 min 0,000 mm 0,0 UV-I 0 W/m 2,8 C 3,2 km/h (1 Bft)
09.10.2016 00:35 3,4 C 3,4 C 96 % 1022,2 hPa 0,0 mm 1,7 km/h (1 Bft) S-SW 202 0 min 0,000 mm 0,0 UV-I 0 W/m 2,8 C 3,2 km/h (1 Bft)
09.10.2016 00:36 3,4 C 3,4 C 96 % 1022,1 hPa 0,0 mm 2,0 km/h (1 Bft) S-SW 202 0 min 0,000 mm 0,0 UV-I 0 W/m 2,8 C 3,2 km/h (1 Bft)
09.10.2016 00:37 3,3 C 3,4 C 96 % 1022,1 hPa 0,0 mm 1,4 km/h (1 Bft) S-SW 202 0 min 0,000 mm 0,0 UV-I 0 W/m 2,7 C 3,2 km/h (1 Bft)
09.10.2016 00:38 3,3 C 3,3 C 96 % 1022,1 hPa 0,0 mm 1,7 km/h (1 Bft) S-SW 202 0 min 0,000 mm 0,0 UV-I 0 W/m 2,7 C 3,2 km/h (1 Bft)
09.10.2016 00:39 3,3 C 3,3 C 96 % 1022,1 hPa 0,0 mm 1,6 km/h (1 Bft) S-SW 202 0 min 0,000 mm 0,0 UV-I 0 W/m 2,7 C 3,2 km/h (1 Bft)
09.10.2016 00:40 3,3 C 3,3 C 96 % 1022,1 hPa 0,0 mm 0,6 km/h (0 Bft) S-SW 202 0 min 0,000 mm 0,0 UV-I 0 W/m 2,7 C 1,6 km/h (1 Bft)
09.10.2016 00:41 3,2 C 3,3 C 96 % 1022,1 hPa 0,0 mm 0,3 km/h (0 Bft) S-SW 202 0 min 0,000 mm 0,0 UV-I 0 W/m 2,6 C 1,6 km/h (1 Bft)
09.10.2016 00:42 3,0 C 3,2 C 96 % 1022,1 hPa 0,0 mm 1,1 km/h (1 Bft) S-SW 202 0 min 0,000 mm 0,0 UV-I 0 W/m 2,4 C 1,6 km/h (1 Bft)
09.10.2016 00:43 2,9 C 3,0 C 96 % 1022,1 hPa 0,0 mm 1,3 km/h (1 Bft) S-SW 202 0 min 0,000 mm 0,0 UV-I 0 W/m 2,3 C 3,2 km/h (1 Bft)
09.10.2016 00:44 2,8 C 2,9 C 96 % 1022,1 hPa 0,0 mm 1,6 km/h (1 Bft) S-SW 202 0 min 0,000 mm 0,0 UV-I 0 W/m 2,2 C 3,2 km/h (1 Bft)
09.10.2016 00:45 2,7 C 2,8 C 95 % 1022,1 hPa 0,0 mm 1,3 km/h (1 Bft) S-SW 202 0 min 0,000 mm 0,0 UV-I 0 W/m 2,0 C 1,6 km/h (1 Bft)
09.10.2016 00:46 2,7 C 2,7 C 95 % 1022,1 hPa 0,0 mm 0,9 km/h (0 Bft) S-SW 202 0 min 0,000 mm 0,0 UV-I 0 W/m 2,0 C 1,6 km/h (1 Bft)
09.10.2016 00:47 2,7 C 2,7 C 95 % 1022,1 hPa 0,0 mm 0,1 km/h (0 Bft) S-SW 202 0 min 0,000 mm 0,0 UV-I 0 W/m 2,0 C 1,6 km/h (1 Bft)
09.10.2016 00:48 2,6 C 2,7 C 96 % 1022,1 hPa 0,0 mm 0,0 km/h (0 Bft) S-SW 202 0 min 0,000 mm 0,0 UV-I 0 W/m 2,0 C 0,0 km/h (0 Bft)
09.10.2016 00:49 2,6 C 2,6 C 96 % 1022,1 hPa 0,0 mm 0,1 km/h (0 Bft) S-SW 202 0 min 0,000 mm 0,0 UV-I 0 W/m 2,0 C 1,6 km/h (1 Bft)
09.10.2016 00:50 2,5 C 2,6 C 96 % 1022,1 hPa 0,0 mm 0,3 km/h (0 Bft) S-SW 202 0 min 0,000 mm 0,0 UV-I 0 W/m 1,9 C 1,6 km/h (1 Bft)
09.10.2016 00:51 2,5 C 2,5 C 96 % 1022,1 hPa 0,0 mm 0,3 km/h (0 Bft) S-SW 202 0 min 0,000 mm 0,0 UV-I 0 W/m 1,9 C 1,6 km/h (1 Bft)
09.10.2016 00:52 2,4 C 2,5 C 96 % 1022,1 hPa 0,0 mm 1,1 km/h (1 Bft) S-SW 202 0 min 0,000 mm 0,0 UV-I 0 W/m 1,8 C 1,6 km/h (1 Bft)
09.10.2016 00:53 2,4 C 2,5 C 96 % 1022,1 hPa 0,0 mm 1,0 km/h (0 Bft) S-SW 202 0 min 0,000 mm 0,0 UV-I 0 W/m 1,8 C 1,6 km/h (1 Bft)
09.10.2016 00:54 2,4 C 2,5 C 96 % 1022,1 hPa 0,0 mm 0,0 km/h (0 Bft) S-SW 202 0 min 0,000 mm 0,0 UV-I 0 W/m 1,8 C 0,0 km/h (0 Bft)
09.10.2016 00:55 2,4 C 2,4 C 96 % 1022,2 hPa 0,0 mm 1,1 km/h (1 Bft) S-SW 202 0 min 0,000 mm 0,0 UV-I 0 W/m 1,8 C 1,6 km/h (1 Bft)
09.10.2016 00:56 2,4 C 2,4 C 96 % 1022,2 hPa 0,0 mm 0,0 km/h (0 Bft) S-SW 202 0 min 0,000 mm 0,0 UV-I 0 W/m 1,8 C 0,0 km/h (0 Bft)
09.10.2016 00:57 2,4 C 2,4 C 96 % 1022,2 hPa 0,0 mm 0,0 km/h (0 Bft) S-SW 202 0 min 0,000 mm 0,0 UV-I 0 W/m 1,8 C 0,0 km/h (0 Bft)
09.10.2016 00:58 2,3 C 2,4 C 96 % 1022,2 hPa 0,0 mm 0,0 km/h (0 Bft) S-SW 202 0 min 0,000 mm 0,0 UV-I 0 W/m 1,7 C 0,0 km/h (0 Bft)
09.10.2016 00:59 2,3 C 2,3 C 96 % 1022,2 hPa 0,0 mm 0,1 km/h (0 Bft) S-SW 202 0 min 0,000 mm 0,0 UV-I 0 W/m 1,7 C 1,6 km/h (1 Bft)
09.10.2016 01:00 2,3 C 2,3 C 96 % 1022,2 hPa 0,0 mm 1,1 km/h (1 Bft) S-SW 202 0 min 0,000 mm 0,0 UV-I 0 W/m 1,7 C 1,6 km/h (1 Bft)
09.10.2016 01:01 2,3 C 2,3 C 96 % 1022,2 hPa 0,0 mm 1,4 km/h (1 Bft) S-SW 202 0 min 0,000 mm 0,0 UV-I 0 W/m 1,7 C 1,6 km/h (1 Bft)
09.10.2016 01:02 2,3 C 2,3 C 96 % 1022,2 hPa 0,0 mm 2,5 km/h (1 Bft) S-SO 165 0 min 0,000 mm 0,0 UV-I 0 W/m 1,7 C 3,2 km/h (1 Bft)
09.10.2016 01:03 2,3 C 2,3 C 96 % 1022,2 hPa 0,0 mm 1,9 km/h (1 Bft) S-SO 165 0 min 0,000 mm 0,0 UV-I 0 W/m 1,7 C 3,2 km/h (1 Bft)
09.10.2016 01:04 2,3 C 2,3 C 96 % 1022,2 hPa 0,0 mm 1,5 km/h (1 Bft) S-SO 165 0 min 0,000 mm 0,0 UV-I 0 W/m 1,7 C 3,2 km/h (1 Bft)
09.10.2016 01:05 2,3 C 2,3 C 96 % 1022,2 hPa 0,0 mm 0,3 km/h (0 Bft) S-SO 165 0 min 0,000 mm 0,0 UV-I 0 W/m 1,7 C 1,6 km/h (1 Bft)
09.10.2016 01:06 2,3 C 2,3 C 96 % 1022,2 hPa 0,0 mm 1,5 km/h (1 Bft) S-SO 165 0 min 0,000 mm 0,0 UV-I 0 W/m 1,7 C 3,2 km/h (1 Bft)
09.10.2016 01:07 2,4 C 2,4 C 96 % 1022,2 hPa 0,0 mm 1,9 km/h (1 Bft) S-SO 165 0 min 0,000 mm 0,0 UV-I 0 W/m 1,8 C 3,2 km/h (1 Bft)
09.10.2016 01:08 2,5 C 2,5 C 96 % 1022,2 hPa 0,0 mm 1,7 km/h (1 Bft) S-SO 165 0 min 0,000 mm 0,0 UV-I 0 W/m 1,9 C 3,2 km/h (1 Bft)
09.10.2016 01:09 2,6 C 2,6 C 96 % 1022,2 hPa 0,0 mm 1,3 km/h (1 Bft) S-SO 165 0 min 0,000 mm 0,0 UV-I 0 W/m 2,0 C 1,6 km/h (1 Bft)
09.10.2016 01:10 2,6 C 2,6 C 96 % 1022,2 hPa 0,0 mm 1,5 km/h (1 Bft) S-SO 165 0 min 0,000 mm 0,0 UV-I 0 W/m 2,0 C 3,2 km/h (1 Bft)
09.10.2016 01:11 2,7 C 2,7 C 96 % 1022,2 hPa 0,0 mm 1,2 km/h (1 Bft) S-SO 165 0 min 0,000 mm 0,0 UV-I 0 W/m 2,1 C 1,6 km/h (1 Bft)
09.10.2016 01:12 2,7 C 2,7 C 96 % 1022,2 hPa 0,0 mm 0,4 km/h (0 Bft) S-SO 165 0 min 0,000 mm 0,0 UV-I 0 W/m 2,1 C 1,6 km/h (1 Bft)
09.10.2016 01:13 2,7 C 2,7 C 96 % 1022,2 hPa 0,0 mm 0,0 km/h (0 Bft) S-SO 165 0 min 0,000 mm 0,0 UV-I 0 W/m 2,1 C 0,0 km/h (0 Bft)
09.10.2016 01:14 2,6 C 2,7 C 96 % 1022,2 hPa 0,0 mm 0,0 km/h (0 Bft) S-SO 165 0 min 0,000 mm 0,0 UV-I 0 W/m 2,0 C 0,0 km/h (0 Bft)
09.10.2016 01:15 2,4 C 2,6 C 96 % 1022,3 hPa 0,0 mm 0,0 km/h (0 Bft) S-SO 165 0 min 0,000 mm 0,0 UV-I 0 W/m 1,8 C 0,0 km/h (0 Bft)
09.10.2016 01:16 2,3 C 2,4 C 96 % 1022,2 hPa 0,0 mm 0,0 km/h (0 Bft) S-SO 165 0 min 0,000 mm 0,0 UV-I 0 W/m 1,7 C 0,0 km/h (0 Bft)
09.10.2016 01:17 2,3 C 2,4 C 96 % 1022,3 hPa 0,0 mm 0,0 km/h (0 Bft) S-SO 165 0 min 0,000 mm 0,0 UV-I 0 W/m 1,7 C 0,0 km/h (0 Bft)
09.10.2016 01:18 2,4 C 2,4 C 96 % 1022,3 hPa 0,0 mm 0,0 km/h (0 Bft) S-SO 165 0 min 0,000 mm 0,0 UV-I 0 W/m 1,8 C 0,0 km/h (0 Bft)
09.10.2016 01:19 2,4 C 2,4 C 96 % 1022,3 hPa 0,0 mm 0,0 km/h (0 Bft) S-SO 165 0 min 0,000 mm 0,0 UV-I 0 W/m 1,8 C 0,0 km/h (0 Bft)
09.10.2016 01:20 2,4 C 2,4 C 96 % 1022,3 hPa 0,0 mm 0,0 km/h (0 Bft) S-SO 165 0 min 0,000 mm 0,0 UV-I 0 W/m 1,8 C 0,0 km/h (0 Bft)
09.10.2016 01:21 2,4 C 2,4 C 96 % 1022,3 hPa 0,0 mm 0,0 km/h (0 Bft) S-SO 165 0 min 0,000 mm 0,0 UV-I 0 W/m 1,8 C 0,0 km/h (0 Bft)
09.10.2016 01:22 2,4 C 2,4 C 96 % 1022,4 hPa 0,0 mm 0,0 km/h (0 Bft) S-SO 165 0 min 0,000 mm 0,0 UV-I 0 W/m 1,8 C 0,0 km/h (0 Bft)
09.10.2016 01:23 2,5 C 2,5 C 96 % 1022,2 hPa 0,0 mm 0,1 km/h (0 Bft) S-SO 165 0 min 0,000 mm 0,0 UV-I 0 W/m 1,9 C 1,6 km/h (1 Bft)
09.10.2016 01:24 2,6 C 2,6 C 96 % 1022,3 hPa 0,0 mm 0,0 km/h (0 Bft) S-SO 165 0 min 0,000 mm 0,0 UV-I 0 W/m 2,0 C 0,0 km/h (0 Bft)
09.10.2016 01:25 2,6 C 2,6 C 96 % 1022,3 hPa 0,0 mm 0,5 km/h (0 Bft) S-SO 165 0 min 0,000 mm 0,0 UV-I 0 W/m 2,0 C 1,6 km/h (1 Bft)
09.10.2016 01:26 2,6 C 2,6 C 96 % 1022,3 hPa 0,0 mm 1,4 km/h (1 Bft) S-SO 165 0 min 0,000 mm 0,0 UV-I 0 W/m 2,0 C 1,6 km/h (1 Bft)
09.10.2016 01:27 2,7 C 2,7 C 96 % 1022,3 hPa 0,0 mm 0,7 km/h (0 Bft) S-SO 165 0 min 0,000 mm 0,0 UV-I 0 W/m 2,1 C 1,6 km/h (1 Bft)
09.10.2016 01:28 2,7 C 2,7 C 96 % 1022,3 hPa 0,0 mm 1,1 km/h (1 Bft) S-SO 165 0 min 0,000 mm 0,0 UV-I 0 W/m 2,1 C 1,6 km/h (1 Bft)
09.10.2016 01:29 2,7 C 2,7 C 96 % 1022,2 hPa 0,0 mm 0,5 km/h (0 Bft) S-SO 165 0 min 0,000 mm 0,0 UV-I 0 W/m 2,1 C 1,6 km/h (1 Bft)
09.10.2016 01:30 2,6 C 2,7 C 96 % 1022,3 hPa 0,0 mm 0,0 km/h (0 Bft) S-SO 165 0 min 0,000 mm 0,0 UV-I 0 W/m 2,0 C 0,0 km/h (0 Bft)
09.10.2016 01:31 2,6 C 2,6 C 96 % 1022,3 hPa 0,0 mm 0,0 km/h (0 Bft) S-SO 165 0 min 0,000 mm 0,0 UV-I 0 W/m 2,0 C 0,0 km/h (0 Bft)
09.10.2016 01:32 2,6 C 2,6 C 96 % 1022,3 hPa 0,0 mm 0,1 km/h (0 Bft) S-SO 165 0 min 0,000 mm 0,0 UV-I 0 W/m 2,0 C 1,6 km/h (1 Bft)
09.10.2016 01:33 2,6 C 2,6 C 96 % 1022,3 hPa 0,0 mm 0,1 km/h (0 Bft) S-SO 165 0 min 0,000 mm 0,0 UV-I 0 W/m 2,0 C 1,6 km/h (1 Bft)
09.10.2016 01:34 2,6 C 2,6 C 96 % 1022,4 hPa 0,0 mm 0,1 km/h (0 Bft) S-SO 165 0 min 0,000 mm 0,0 UV-I 0 W/m 2,0 C 1,6 km/h (1 Bft)
09.10.2016 01:35 2,6 C 2,6 C 96 % 1022,4 hPa 0,0 mm 1,7 km/h (1 Bft) S-SO 165 0 min 0,000 mm 0,0 UV-I 0 W/m 2,0 C 3,2 km/h (1 Bft)
09.10.2016 01:36 2,6 C 2,6 C 96 % 1022,4 hPa 0,0 mm 1,6 km/h (1 Bft) S-SO 165 0 min 0,000 mm 0,0 UV-I 0 W/m 2,0 C 3,2 km/h (1 Bft)
09.10.2016 01:37 2,6 C 2,6 C 96 % 1022,4 hPa 0,0 mm 0,1 km/h (0 Bft) S-SO 165 0 min 0,000 mm 0,0 UV-I 0 W/m 2,0 C 1,6 km/h (1 Bft)
09.10.2016 01:38 2,6 C 2,6 C 96 % 1022,4 hPa 0,0 mm 0,0 km/h (0 Bft) S-SO 165 0 min 0,000 mm 0,0 UV-I 0 W/m 2,0 C 0,0 km/h (0 Bft)
09.10.2016 01:39 2,6 C 2,6 C 96 % 1022,4 hPa 0,0 mm 0,0 km/h (0 Bft) S-SO 165 0 min 0,000 mm 0,0 UV-I 0 W/m 2,0 C 0,0 km/h (0 Bft)
09.10.2016 01:40 2,6 C 2,6 C 96 % 1022,4 hPa 0,0 mm 0,0 km/h (0 Bft) S-SO 165 0 min 0,000 mm 0,0 UV-I 0 W/m 2,0 C 0,0 km/h (0 Bft)
09.10.2016 01:41 2,7 C 2,7 C 96 % 1022,4 hPa 0,0 mm 0,0 km/h (0 Bft) S-SO 165 0 min 0,000 mm 0,0 UV-I 0 W/m 2,1 C 0,0 km/h (0 Bft)
09.10.2016 01:42 2,7 C 2,7 C 96 % 1022,4 hPa 0,0 mm 0,0 km/h (0 Bft) S-SO 165 0 min 0,000 mm 0,0 UV-I 0 W/m 2,1 C 0,0 km/h (0 Bft)
09.10.2016 01:43 2,7 C 2,7 C 96 % 1022,4 hPa 0,0 mm 0,0 km/h (0 Bft) S-SO 165 0 min 0,000 mm 0,0 UV-I 0 W/m 2,1 C 0,0 km/h (0 Bft)
09.10.2016 01:44 2,7 C 2,7 C 96 % 1022,4 hPa 0,0 mm 0,0 km/h (0 Bft) S-SO 165 0 min 0,000 mm 0,0 UV-I 0 W/m 2,1 C 0,0 km/h (0 Bft)
09.10.2016 01:45 2,7 C 2,7 C 96 % 1022,4 hPa 0,0 mm 0,0 km/h (0 Bft) S-SO 165 0 min 0,000 mm 0,0 UV-I 0 W/m 2,1 C 0,0 km/h (0 Bft)
09.10.2016 01:46 2,7 C 2,7 C 96 % 1022,4 hPa 0,0 mm 0,0 km/h (0 Bft) S-SO 165 0 min 0,000 mm 0,0 UV-I 0 W/m 2,1 C 0,0 km/h (0 Bft)
09.10.2016 01:47 2,7 C 2,7 C 96 % 1022,4 hPa 0,0 mm 0,0 km/h (0 Bft) S-SO 165 0 min 0,000 mm 0,0 UV-I 0 W/m 2,1 C 0,0 km/h (0 Bft)
09.10.2016 01:48 2,7 C 2,7 C 96 % 1022,4 hPa 0,0 mm 0,0 km/h (0 Bft) S-SO 165 0 min 0,000 mm 0,0 UV-I 0 W/m 2,1 C 0,0 km/h (0 Bft)
09.10.2016 01:49 2,7 C 2,7 C 96 % 1022,4 hPa 0,0 mm 0,0 km/h (0 Bft) S-SO 165 0 min 0,000 mm 0,0 UV-I 0 W/m 2,1 C 0,0 km/h (0 Bft)
09.10.2016 01:50 2,7 C 2,7 C 96 % 1022,4 hPa 0,0 mm 0,0 km/h (0 Bft) S-SO 165 0 min 0,000 mm 0,0 UV-I 0 W/m 2,1 C 0,0 km/h (0 Bft)
09.10.2016 01:51 2,6 C 2,7 C 96 % 1022,4 hPa 0,0 mm 0,0 km/h (0 Bft) S-SO 165 0 min 0,000 mm 0,0 UV-I 0 W/m 2,0 C 0,0 km/h (0 Bft)
09.10.2016 01:52 2,6 C 2,6 C 96 % 1022,4 hPa 0,0 mm 0,0 km/h (0 Bft) S-SO 165 0 min 0,000 mm 0,0 UV-I 0 W/m 2,0 C 0,0 km/h (0 Bft)
09.10.2016 01:53 2,6 C 2,6 C 96 % 1022,4 hPa 0,0 mm 0,4 km/h (0 Bft) S-SO 165 0 min 0,000 mm 0,0 UV-I 0 W/m 2,0 C 1,6 km/h (1 Bft)
09.10.2016 01:54 2,6 C 2,6 C 96 % 1022,4 hPa 0,0 mm 0,0 km/h (0 Bft) S-SO 165 0 min 0,000 mm 0,0 UV-I 0 W/m 2,0 C 0,0 km/h (0 Bft)
09.10.2016 01:55 2,6 C 2,6 C 96 % 1022,4 hPa 0,0 mm 0,6 km/h (0 Bft) S-SO 165 0 min 0,000 mm 0,0 UV-I 0 W/m 2,0 C 1,6 km/h (1 Bft)
09.10.2016 01:56 2,6 C 2,6 C 96 % 1022,4 hPa 0,0 mm 1,9 km/h (1 Bft) S-SO 165 0 min 0,000 mm 0,0 UV-I 0 W/m 2,0 C 3,2 km/h (1 Bft)
09.10.2016 01:57 2,5 C 2,6 C 96 % 1022,4 hPa 0,0 mm 1,6 km/h (1 Bft) S-SO 165 0 min 0,000 mm 0,0 UV-I 0 W/m 1,9 C 1,6 km/h (1 Bft)
09.10.2016 01:58 2,5 C 2,5 C 96 % 1022,5 hPa 0,0 mm 0,7 km/h (0 Bft) S-SO 165 0 min 0,000 mm 0,0 UV-I 0 W/m 1,9 C 1,6 km/h (1 Bft)
09.10.2016 01:59 2,4 C 2,5 C 96 % 1022,4 hPa 0,0 mm 0,0 km/h (0 Bft) S-SO 165 0 min 0,000 mm 0,0 UV-I 0 W/m 1,8 C 0,0 km/h (0 Bft)
09.10.2016 02:00 2,4 C 2,4 C 96 % 1022,4 hPa 0,0 mm 0,0 km/h (0 Bft) S-SO 165 0 min 0,000 mm 0,0 UV-I 0 W/m 1,8 C 0,0 km/h (0 Bft)
09.10.2016 02:01 2,4 C 2,5 C 96 % 1022,5 hPa 0,0 mm 0,0 km/h (0 Bft) S-SO 165 0 min 0,000 mm 0,0 UV-I 0 W/m 1,8 C 0,0 km/h (0 Bft)
09.10.2016 02:02 2,5 C 2,5 C 96 % 1022,5 hPa 0,0 mm 0,0 km/h (0 Bft) S-SO 165 0 min 0,000 mm 0,0 UV-I 0 W/m 1,9 C 0,0 km/h (0 Bft)
09.10.2016 02:03 2,5 C 2,5 C 96 % 1022,5 hPa 0,0 mm 0,0 km/h (0 Bft) S-SO 165 0 min 0,000 mm 0,0 UV-I 0 W/m 1,9 C 0,0 km/h (0 Bft)
09.10.2016 02:04 2,4 C 2,5 C 96 % 1022,5 hPa 0,0 mm 0,0 km/h (0 Bft) S-SO 165 0 min 0,000 mm 0,0 UV-I 0 W/m 1,8 C 0,0 km/h (0 Bft)
09.10.2016 02:05 2,4 C 2,4 C 96 % 1022,5 hPa 0,0 mm 0,0 km/h (0 Bft) S-SO 165 0 min 0,000 mm 0,0 UV-I 0 W/m 1,8 C 0,0 km/h (0 Bft)
09.10.2016 02:06 2,4 C 2,4 C 96 % 1022,5 hPa 0,0 mm 0,0 km/h (0 Bft) S-SO 165 0 min 0,000 mm 0,0 UV-I 0 W/m 1,8 C 0,0 km/h (0 Bft)
09.10.2016 02:07 2,4 C 2,4 C 96 % 1022,6 hPa 0,0 mm 0,0 km/h (0 Bft) S-SO 165 0 min 0,000 mm 0,0 UV-I 0 W/m 1,8 C 0,0 km/h (0 Bft)
09.10.2016 02:08 2,4 C 2,4 C 96 % 1022,6 hPa 0,0 mm 0,0 km/h (0 Bft) S-SO 165 0 min 0,000 mm 0,0 UV-I 0 W/m 1,8 C 0,0 km/h (0 Bft)
09.10.2016 02:09 2,4 C 2,4 C 96 % 1022,6 hPa 0,0 mm 0,0 km/h (0 Bft) S-SO 165 0 min 0,000 mm 0,0 UV-I 0 W/m 1,8 C 0,0 km/h (0 Bft)
09.10.2016 02:10 2,5 C 2,5 C 96 % 1022,6 hPa 0,0 mm 0,0 km/h (0 Bft) S-SO 165 0 min 0,000 mm 0,0 UV-I 0 W/m 1,9 C 0,0 km/h (0 Bft)
09.10.2016 02:11 2,5 C 2,5 C 96 % 1022,6 hPa 0,0 mm 0,0 km/h (0 Bft) S-SO 165 0 min 0,000 mm 0,0 UV-I 0 W/m 1,9 C 0,0 km/h (0 Bft)
09.10.2016 02:12 2,4 C 2,5 C 97 % 1022,6 hPa 0,0 mm 0,0 km/h (0 Bft) S-SO 165 0 min 0,000 mm 0,0 UV-I 0 W/m 2,0 C 0,0 km/h (0 Bft)
09.10.2016 02:13 2,5 C 2,5 C 97 % 1022,6 hPa 0,0 mm 0,0 km/h (0 Bft) S-SO 165 0 min 0,000 mm 0,0 UV-I 0 W/m 2,1 C 0,0 km/h (0 Bft)
09.10.2016 02:14 2,5 C 2,5 C 97 % 1022,6 hPa 0,0 mm 0,0 km/h (0 Bft) S-SO 165 0 min 0,000 mm 0,0 UV-I 0 W/m 2,1 C 0,0 km/h (0 Bft)
09.10.2016 02:15 2,5 C 2,5 C 97 % 1022,6 hPa 0,0 mm 0,0 km/h (0 Bft) S-SO 165 0 min 0,000 mm 0,0 UV-I 0 W/m 2,1 C 0,0 km/h (0 Bft)
09.10.2016 02:16 2,5 C 2,5 C 97 % 1022,6 hPa 0,0 mm 0,0 km/h (0 Bft) S-SO 165 0 min 0,000 mm 0,0 UV-I 0 W/m 2,1 C 0,0 km/h (0 Bft)
09.10.2016 02:17 2,5 C 2,6 C 97 % 1022,6 hPa 0,0 mm 0,0 km/h (0 Bft) S-SO 165 0 min 0,000 mm 0,0 UV-I 0 W/m 2,1 C 0,0 km/h (0 Bft)
09.10.2016 02:18 2,5 C 2,5 C 97 % 1022,6 hPa 0,0 mm 0,0 km/h (0 Bft) S-SO 165 0 min 0,000 mm 0,0 UV-I 0 W/m 2,1 C 0,0 km/h (0 Bft)
09.10.2016 02:19 2,5 C 2,5 C 97 % 1022,6 hPa 0,0 mm 0,0 km/h (0 Bft) S-SO 165 0 min 0,000 mm 0,0 UV-I 0 W/m 2,1 C 0,0 km/h (0 Bft)
09.10.2016 02:20 2,5 C 2,5 C 97 % 1022,6 hPa 0,0 mm 0,0 km/h (0 Bft) S-SO 165 0 min 0,000 mm 0,0 UV-I 0 W/m 2,1 C 0,0 km/h (0 Bft)
09.10.2016 02:21 2,6 C 2,6 C 97 % 1022,6 hPa 0,0 mm 0,0 km/h (0 Bft) S-SO 165 0 min 0,000 mm 0,0 UV-I 0 W/m 2,2 C 0,0 km/h (0 Bft)
09.10.2016 02:22 2,5 C 2,6 C 97 % 1022,6 hPa 0,0 mm 0,5 km/h (0 Bft) S-SO 165 0 min 0,000 mm 0,0 UV-I 0 W/m 2,1 C 1,6 km/h (1 Bft)
09.10.2016 02:23 2,6 C 2,6 C 97 % 1022,6 hPa 0,0 mm 0,3 km/h (0 Bft) S-SO 165 0 min 0,000 mm 0,0 UV-I 0 W/m 2,2 C 1,6 km/h (1 Bft)
09.10.2016 02:24 2,5 C 2,6 C 97 % 1022,7 hPa 0,0 mm 0,0 km/h (0 Bft) S-SO 165 0 min 0,000 mm 0,0 UV-I 0 W/m 2,1 C 0,0 km/h (0 Bft)
09.10.2016 02:25 2,5 C 2,5 C 97 % 1022,7 hPa 0,0 mm 0,0 km/h (0 Bft) S-SO 165 0 min 0,000 mm 0,0 UV-I 0 W/m 2,1 C 0,0 km/h (0 Bft)
09.10.2016 02:26 2,5 C 2,6 C 97 % 1022,7 hPa 0,0 mm 0,0 km/h (0 Bft) S-SO 165 0 min 0,000 mm 0,0 UV-I 0 W/m 2,1 C 0,0 km/h (0 Bft)
09.10.2016 02:27 2,5 C 2,5 C 97 % 1022,6 hPa 0,0 mm 0,0 km/h (0 Bft) S-SO 165 0 min 0,000 mm 0,0 UV-I 0 W/m 2,1 C 0,0 km/h (0 Bft)
09.10.2016 02:28 2,5 C 2,5 C 97 % 1022,6 hPa 0,0 mm 0,0 km/h (0 Bft) S-SO 165 0 min 0,000 mm 0,0 UV-I 0 W/m 2,1 C 0,0 km/h (0 Bft)
09.10.2016 02:29 2,4 C 2,5 C 97 % 1022,7 hPa 0,0 mm 0,0 km/h (0 Bft) S-SO 165 0 min 0,000 mm 0,0 UV-I 0 W/m 2,0 C 0,0 km/h (0 Bft)
09.10.2016 02:30 2,5 C 2,5 C 97 % 1022,6 hPa 0,0 mm 0,0 km/h (0 Bft) S-SO 165 0 min 0,000 mm 0,0 UV-I 0 W/m 2,1 C 0,0 km/h (0 Bft)
09.10.2016 02:31 2,4 C 2,5 C 97 % 1022,6 hPa 0,0 mm 0,0 km/h (0 Bft) S-SO 165 0 min 0,000 mm 0,0 UV-I 0 W/m 2,0 C 0,0 km/h (0 Bft)
09.10.2016 02:32 2,5 C 2,6 C 97 % 1022,6 hPa 0,0 mm 0,0 km/h (0 Bft) S-SO 165 0 min 0,000 mm 0,0 UV-I 0 W/m 2,1 C 0,0 km/h (0 Bft)
09.10.2016 02:33 2,5 C 2,6 C 97 % 1022,6 hPa 0,0 mm 0,0 km/h (0 Bft) S-SO 165 0 min 0,000 mm 0,0 UV-I 0 W/m 2,1 C 0,0 km/h (0 Bft)
09.10.2016 02:34 2,6 C 2,6 C 97 % 1022,6 hPa 0,0 mm 0,0 km/h (0 Bft) S-SO 165 0 min 0,000 mm 0,0 UV-I 0 W/m 2,2 C 0,0 km/h (0 Bft)
09.10.2016 02:35 2,6 C 2,6 C 97 % 1022,6 hPa 0,0 mm 0,0 km/h (0 Bft) S-SO 165 0 min 0,000 mm 0,0 UV-I 0 W/m 2,2 C 0,0 km/h (0 Bft)
09.10.2016 02:36 2,6 C 2,6 C 97 % 1022,5 hPa 0,0 mm 0,0 km/h (0 Bft) S-SO 165 0 min 0,000 mm 0,0 UV-I 0 W/m 2,2 C 0,0 km/h (0 Bft)
09.10.2016 02:37 2,6 C 2,6 C 97 % 1022,5 hPa 0,0 mm 0,0 km/h (0 Bft) S-SO 165 0 min 0,000 mm 0,0 UV-I 0 W/m 2,2 C 0,0 km/h (0 Bft)
09.10.2016 02:38 2,6 C 2,7 C 97 % 1022,6 hPa 0,0 mm 0,0 km/h (0 Bft) S-SO 165 0 min 0,000 mm 0,0 UV-I 0 W/m 2,2 C 0,0 km/h (0 Bft)
09.10.2016 02:39 2,7 C 2,7 C 97 % 1022,6 hPa 0,0 mm 0,0 km/h (0 Bft) S-SO 165 0 min 0,000 mm 0,0 UV-I 0 W/m 2,3 C 0,0 km/h (0 Bft)
09.10.2016 02:40 2,8 C 2,8 C 97 % 1022,6 hPa 0,0 mm 0,0 km/h (0 Bft) S-SO 165 0 min 0,000 mm 0,0 UV-I 0 W/m 2,4 C 0,0 km/h (0 Bft)
09.10.2016 02:41 2,8 C 2,8 C 97 % 1022,6 hPa 0,0 mm 0,0 km/h (0 Bft) S-SO 165 0 min 0,000 mm 0,0 UV-I 0 W/m 2,4 C 0,0 km/h (0 Bft)
09.10.2016 02:42 2,9 C 2,9 C 97 % 1022,5 hPa 0,0 mm 0,0 km/h (0 Bft) S-SO 165 0 min 0,000 mm 0,0 UV-I 0 W/m 2,5 C 0,0 km/h (0 Bft)
09.10.2016 02:43 2,9 C 2,9 C 97 % 1022,5 hPa 0,0 mm 0,0 km/h (0 Bft) S-SO 165 0 min 0,000 mm 0,0 UV-I 0 W/m 2,5 C 0,0 km/h (0 Bft)
09.10.2016 02:44 2,9 C 2,9 C 97 % 1022,5 hPa 0,0 mm 0,0 km/h (0 Bft) S-SO 165 0 min 0,000 mm 0,0 UV-I 0 W/m 2,5 C 0,0 km/h (0 Bft)
09.10.2016 02:45 2,9 C 2,9 C 97 % 1022,5 hPa 0,0 mm 0,0 km/h (0 Bft) S-SO 165 0 min 0,000 mm 0,0 UV-I 0 W/m 2,5 C 0,0 km/h (0 Bft)
09.10.2016 02:46 2,9 C 2,9 C 97 % 1022,6 hPa 0,0 mm 0,0 km/h (0 Bft) S-SO 165 0 min 0,000 mm 0,0 UV-I 0 W/m 2,5 C 0,0 km/h (0 Bft)
09.10.2016 02:47 2,9 C 2,9 C 97 % 1022,6 hPa 0,0 mm 0,0 km/h (0 Bft) S-SO 165 0 min 0,000 mm 0,0 UV-I 0 W/m 2,5 C 0,0 km/h (0 Bft)
09.10.2016 02:48 2,9 C 2,9 C 97 % 1022,5 hPa 0,0 mm 0,0 km/h (0 Bft) S-SO 165 0 min 0,000 mm 0,0 UV-I 0 W/m 2,5 C 0,0 km/h (0 Bft)
09.10.2016 02:49 2,8 C 2,9 C 97 % 1022,5 hPa 0,0 mm 0,0 km/h (0 Bft) S-SO 165 0 min 0,000 mm 0,0 UV-I 0 W/m 2,4 C 0,0 km/h (0 Bft)
09.10.2016 02:50 2,9 C 2,9 C 97 % 1022,5 hPa 0,0 mm 0,0 km/h (0 Bft) S-SO 165 0 min 0,000 mm 0,0 UV-I 0 W/m 2,5 C 0,0 km/h (0 Bft)
09.10.2016 02:51 2,9 C 2,9 C 97 % 1022,5 hPa 0,0 mm 0,0 km/h (0 Bft) S-SO 165 0 min 0,000 mm 0,0 UV-I 0 W/m 2,5 C 0,0 km/h (0 Bft)
09.10.2016 02:52 2,9 C 2,9 C 97 % 1022,5 hPa 0,0 mm 0,0 km/h (0 Bft) S-SO 165 0 min 0,000 mm 0,0 UV-I 0 W/m 2,5 C 0,0 km/h (0 Bft)
09.10.2016 02:53 2,9 C 2,9 C 97 % 1022,5 hPa 0,0 mm 0,0 km/h (0 Bft) S-SO 165 0 min 0,000 mm 0,0 UV-I 0 W/m 2,5 C 0,0 km/h (0 Bft)
09.10.2016 02:54 2,9 C 3,0 C 97 % 1022,5 hPa 0,0 mm 0,0 km/h (0 Bft) S-SO 165 0 min 0,000 mm 0,0 UV-I 0 W/m 2,5 C 0,0 km/h (0 Bft)
09.10.2016 02:55 3,0 C 3,0 C 97 % 1022,5 hPa 0,0 mm 0,0 km/h (0 Bft) S-SO 165 0 min 0,000 mm 0,0 UV-I 0 W/m 2,6 C 0,0 km/h (0 Bft)
09.10.2016 02:56 3,0 C 3,0 C 97 % 1022,6 hPa 0,0 mm 0,0 km/h (0 Bft) S-SO 165 0 min 0,000 mm 0,0 UV-I 0 W/m 2,6 C 0,0 km/h (0 Bft)
09.10.2016 02:57 3,1 C 3,1 C 97 % 1022,5 hPa 0,0 mm 0,0 km/h (0 Bft) S-SO 165 0 min 0,000 mm 0,0 UV-I 0 W/m 2,7 C 0,0 km/h (0 Bft)
09.10.2016 02:58 3,1 C 3,1 C 97 % 1022,6 hPa 0,0 mm 1,5 km/h (1 Bft) S-SO 165 0 min 0,000 mm 0,0 UV-I 0 W/m 2,7 C 3,2 km/h (1 Bft)
09.10.2016 02:59 3,0 C 3,1 C 97 % 1022,6 hPa 0,0 mm 0,5 km/h (0 Bft) S-SO 165 0 min 0,000 mm 0,0 UV-I 0 W/m 2,6 C 1,6 km/h (1 Bft)
09.10.2016 03:00 3,0 C 3,0 C 97 % 1022,6 hPa 0,0 mm 0,0 km/h (0 Bft) S-SO 165 0 min 0,000 mm 0,0 UV-I 0 W/m 2,6 C 0,0 km/h (0 Bft)
09.10.2016 03:01 3,0 C 3,0 C 97 % 1022,6 hPa 0,0 mm 0,1 km/h (0 Bft) S-SO 165 0 min 0,000 mm 0,0 UV-I 0 W/m 2,6 C 1,6 km/h (1 Bft)
09.10.2016 03:02 3,0 C 3,0 C 97 % 1022,6 hPa 0,0 mm 1,4 km/h (1 Bft) W-SW 257 0 min 0,000 mm 0,0 UV-I 0 W/m 2,6 C 3,2 km/h (1 Bft)
09.10.2016 03:03 3,0 C 3,0 C 97 % 1022,6 hPa 0,0 mm 2,4 km/h (1 Bft) NW 304 0 min 0,000 mm 0,0 UV-I 0 W/m 2,6 C 3,2 km/h (1 Bft)
09.10.2016 03:04 3,0 C 3,1 C 97 % 1022,6 hPa 0,0 mm 1,7 km/h (1 Bft) NW 304 0 min 0,000 mm 0,0 UV-I 0 W/m 2,6 C 3,2 km/h (1 Bft)
09.10.2016 03:05 3,0 C 3,1 C 97 % 1022,6 hPa 0,0 mm 0,7 km/h (0 Bft) NW 304 0 min 0,000 mm 0,0 UV-I 0 W/m 2,6 C 1,6 km/h (1 Bft)
09.10.2016 03:06 3,0 C 3,0 C 97 % 1022,6 hPa 0,0 mm 1,0 km/h (0 Bft) NW 304 0 min 0,000 mm 0,0 UV-I 0 W/m 2,6 C 1,6 km/h (1 Bft)
09.10.2016 03:07 3,0 C 3,0 C 97 % 1022,6 hPa 0,0 mm 1,7 km/h (1 Bft) NW 304 0 min 0,000 mm 0,0 UV-I 0 W/m 2,6 C 3,2 km/h (1 Bft)
09.10.2016 03:08 3,0 C 3,0 C 97 % 1022,6 hPa 0,0 mm 2,3 km/h (1 Bft) NW 304 0 min 0,000 mm 0,0 UV-I 0 W/m 2,6 C 3,2 km/h (1 Bft)
09.10.2016 03:09 3,0 C 3,0 C 97 % 1022,6 hPa 0,0 mm 1,6 km/h (1 Bft) NW 304 0 min 0,000 mm 0,0 UV-I 0 W/m 2,6 C 3,2 km/h (1 Bft)
09.10.2016 03:10 2,9 C 3,0 C 97 % 1022,6 hPa 0,0 mm 0,0 km/h (0 Bft) NW 304 0 min 0,000 mm 0,0 UV-I 0 W/m 2,5 C 0,0 km/h (0 Bft)
09.10.2016 03:11 2,9 C 2,9 C 97 % 1022,6 hPa 0,0 mm 0,0 km/h (0 Bft) NW 304 0 min 0,000 mm 0,0 UV-I 0 W/m 2,5 C 0,0 km/h (0 Bft)
09.10.2016 03:12 2,9 C 2,9 C 97 % 1022,6 hPa 0,0 mm 0,0 km/h (0 Bft) NW 304 0 min 0,000 mm 0,0 UV-I 0 W/m 2,5 C 0,0 km/h (0 Bft)
09.10.2016 03:13 2,9 C 2,9 C 97 % 1022,5 hPa 0,0 mm 0,0 km/h (0 Bft) NW 304 0 min 0,000 mm 0,0 UV-I 0 W/m 2,5 C 0,0 km/h (0 Bft)
09.10.2016 03:14 2,9 C 2,9 C 97 % 1022,6 hPa 0,0 mm 0,0 km/h (0 Bft) NW 304 0 min 0,000 mm 0,0 UV-I 0 W/m 2,5 C 0,0 km/h (0 Bft)
09.10.2016 03:15 2,8 C 2,9 C 97 % 1022,6 hPa 0,0 mm 0,0 km/h (0 Bft) NW 304 0 min 0,000 mm 0,0 UV-I 0 W/m 2,4 C 0,0 km/h (0 Bft)
09.10.2016 03:16 2,8 C 2,8 C 97 % 1022,6 hPa 0,0 mm 0,0 km/h (0 Bft) NW 304 0 min 0,000 mm 0,0 UV-I 0 W/m 2,4 C 0,0 km/h (0 Bft)
09.10.2016 03:17 2,8 C 2,8 C 97 % 1022,5 hPa 0,0 mm 0,0 km/h (0 Bft) NW 304 0 min 0,000 mm 0,0 UV-I 0 W/m 2,4 C 0,0 km/h (0 Bft)
09.10.2016 03:18 2,8 C 2,8 C 97 % 1022,5 hPa 0,0 mm 0,0 km/h (0 Bft) NW 304 0 min 0,000 mm 0,0 UV-I 0 W/m 2,4 C 0,0 km/h (0 Bft)
09.10.2016 03:19 2,8 C 2,8 C 97 % 1022,4 hPa 0,0 mm 0,0 km/h (0 Bft) NW 304 0 min 0,000 mm 0,0 UV-I 0 W/m 2,4 C 0,0 km/h (0 Bft)
09.10.2016 03:20 2,8 C 2,8 C 97 % 1022,4 hPa 0,0 mm 0,0 km/h (0 Bft) NW 304 0 min 0,000 mm 0,0 UV-I 0 W/m 2,4 C 0,0 km/h (0 Bft)
09.10.2016 03:21 2,9 C 2,9 C 97 % 1022,4 hPa 0,0 mm 0,0 km/h (0 Bft) NW 304 0 min 0,000 mm 0,0 UV-I 0 W/m 2,5 C 0,0 km/h (0 Bft)
09.10.2016 03:22 2,8 C 2,9 C 97 % 1022,4 hPa 0,0 mm 0,0 km/h (0 Bft) NW 304 0 min 0,000 mm 0,0 UV-I 0 W/m 2,4 C 0,0 km/h (0 Bft)
09.10.2016 03:23 2,8 C 2,8 C 97 % 1022,4 hPa 0,0 mm 0,0 km/h (0 Bft) NW 304 0 min 0,000 mm 0,0 UV-I 0 W/m 2,4 C 0,0 km/h (0 Bft)
09.10.2016 03:24 2,8 C 2,8 C 97 % 1022,4 hPa 0,0 mm 0,0 km/h (0 Bft) NW 304 0 min 0,000 mm 0,0 UV-I 0 W/m 2,4 C 0,0 km/h (0 Bft)
09.10.2016 03:25 2,9 C 2,9 C 97 % 1022,4 hPa 0,0 mm 0,0 km/h (0 Bft) NW 304 0 min 0,000 mm 0,0 UV-I 0 W/m 2,5 C 0,0 km/h (0 Bft)
09.10.2016 03:26 2,8 C 2,9 C 97 % 1022,5 hPa 0,0 mm 0,0 km/h (0 Bft) NW 304 0 min 0,000 mm 0,0 UV-I 0 W/m 2,4 C 0,0 km/h (0 Bft)
09.10.2016 03:27 2,8 C 2,8 C 97 % 1022,4 hPa 0,0 mm 0,0 km/h (0 Bft) NW 304 0 min 0,000 mm 0,0 UV-I 0 W/m 2,4 C 0,0 km/h (0 Bft)
09.10.2016 03:28 2,8 C 2,8 C 97 % 1022,4 hPa 0,0 mm 0,0 km/h (0 Bft) NW 304 0 min 0,000 mm 0,0 UV-I 0 W/m 2,4 C 0,0 km/h (0 Bft)
09.10.2016 03:29 2,8 C 2,8 C 97 % 1022,4 hPa 0,0 mm 0,0 km/h (0 Bft) NW 304 0 min 0,000 mm 0,0 UV-I 0 W/m 2,4 C 0,0 km/h (0 Bft)
09.10.2016 03:30 2,7 C 2,8 C 97 % 1022,4 hPa 0,0 mm 0,0 km/h (0 Bft) NW 304 0 min 0,000 mm 0,0 UV-I 0 W/m 2,3 C 0,0 km/h (0 Bft)
09.10.2016 03:31 2,8 C 2,8 C 97 % 1022,4 hPa 0,0 mm 0,0 km/h (0 Bft) NW 304 0 min 0,000 mm 0,0 UV-I 0 W/m 2,4 C 0,0 km/h (0 Bft)
09.10.2016 03:32 2,8 C 2,8 C 97 % 1022,4 hPa 0,0 mm 0,0 km/h (0 Bft) NW 304 0 min 0,000 mm 0,0 UV-I 0 W/m 2,4 C 0,0 km/h (0 Bft)
09.10.2016 03:33 2,8 C 2,8 C 97 % 1022,4 hPa 0,0 mm 0,0 km/h (0 Bft) NW 304 0 min 0,000 mm 0,0 UV-I 0 W/m 2,4 C 0,0 km/h (0 Bft)
09.10.2016 03:34 2,8 C 2,8 C 97 % 1022,4 hPa 0,0 mm 0,0 km/h (0 Bft) NW 304 0 min 0,000 mm 0,0 UV-I 0 W/m 2,4 C 0,0 km/h (0 Bft)
09.10.2016 03:35 2,8 C 2,8 C 97 % 1022,4 hPa 0,0 mm 0,0 km/h (0 Bft) NW 304 0 min 0,000 mm 0,0 UV-I 0 W/m 2,4 C 0,0 km/h (0 Bft)
09.10.2016 03:36 2,7 C 2,8 C 97 % 1022,4 hPa 0,0 mm 0,0 km/h (0 Bft) NW 304 0 min 0,000 mm 0,0 UV-I 0 W/m 2,3 C 0,0 km/h (0 Bft)
09.10.2016 03:37 2,7 C 2,7 C 96 % 1022,4 hPa 0,0 mm 0,0 km/h (0 Bft) NW 304 0 min 0,000 mm 0,0 UV-I 0 W/m 2,1 C 0,0 km/h (0 Bft)
09.10.2016 03:38 2,7 C 2,7 C 96 % 1022,4 hPa 0,0 mm 0,0 km/h (0 Bft) NW 304 0 min 0,000 mm 0,0 UV-I 0 W/m 2,1 C 0,0 km/h (0 Bft)
09.10.2016 03:39 2,7 C 2,7 C 96 % 1022,4 hPa 0,0 mm 0,0 km/h (0 Bft) NW 304 0 min 0,000 mm 0,0 UV-I 0 W/m 2,1 C 0,0 km/h (0 Bft)
09.10.2016 03:40 2,7 C 2,7 C 96 % 1022,4 hPa 0,0 mm 0,0 km/h (0 Bft) NW 304 0 min 0,000 mm 0,0 UV-I 0 W/m 2,1 C 0,0 km/h (0 Bft)
09.10.2016 03:41 2,6 C 2,7 C 96 % 1022,4 hPa 0,0 mm 0,0 km/h (0 Bft) NW 304 0 min 0,000 mm 0,0 UV-I 0 W/m 2,0 C 0,0 km/h (0 Bft)
09.10.2016 03:42 2,6 C 2,7 C 96 % 1022,4 hPa 0,0 mm 0,0 km/h (0 Bft) NW 304 0 min 0,000 mm 0,0 UV-I 0 W/m 2,0 C 0,0 km/h (0 Bft)
09.10.2016 03:43 2,6 C 2,6 C 96 % 1022,4 hPa 0,0 mm 0,0 km/h (0 Bft) NW 304 0 min 0,000 mm 0,0 UV-I 0 W/m 2,0 C 0,0 km/h (0 Bft)
09.10.2016 03:44 2,6 C 2,6 C 96 % 1022,5 hPa 0,0 mm 0,0 km/h (0 Bft) NW 304 0 min 0,000 mm 0,0 UV-I 0 W/m 2,0 C 0,0 km/h (0 Bft)
09.10.2016 03:45 2,6 C 2,6 C 96 % 1022,4 hPa 0,0 mm 0,0 km/h (0 Bft) NW 304 0 min 0,000 mm 0,0 UV-I 0 W/m 2,0 C 0,0 km/h (0 Bft)
09.10.2016 03:46 2,6 C 2,6 C 96 % 1022,4 hPa 0,0 mm 0,0 km/h (0 Bft) NW 304 0 min 0,000 mm 0,0 UV-I 0 W/m 2,0 C 0,0 km/h (0 Bft)
09.10.2016 03:47 2,6 C 2,6 C 96 % 1022,4 hPa 0,0 mm 0,0 km/h (0 Bft) NW 304 0 min 0,000 mm 0,0 UV-I 0 W/m 2,0 C 0,0 km/h (0 Bft)
09.10.2016 03:48 2,6 C 2,6 C 96 % 1022,4 hPa 0,0 mm 0,0 km/h (0 Bft) NW 304 0 min 0,000 mm 0,0 UV-I 0 W/m 2,0 C 0,0 km/h (0 Bft)
09.10.2016 03:49 2,6 C 2,6 C 96 % 1022,4 hPa 0,0 mm 0,0 km/h (0 Bft) NW 304 0 min 0,000 mm 0,0 UV-I 0 W/m 2,0 C 0,0 km/h (0 Bft)
09.10.2016 03:50 2,6 C 2,6 C 96 % 1022,4 hPa 0,0 mm 0,0 km/h (0 Bft) NW 304 0 min 0,000 mm 0,0 UV-I 0 W/m 2,0 C 0,0 km/h (0 Bft)
09.10.2016 03:51 2,6 C 2,6 C 96 % 1022,4 hPa 0,0 mm 0,0 km/h (0 Bft) NW 304 0 min 0,000 mm 0,0 UV-I 0 W/m 2,0 C 0,0 km/h (0 Bft)
09.10.2016 03:52 2,7 C 2,7 C 96 % 1022,4 hPa 0,0 mm 0,0 km/h (0 Bft) NW 304 0 min 0,000 mm 0,0 UV-I 0 W/m 2,1 C 0,0 km/h (0 Bft)
09.10.2016 03:53 2,7 C 2,7 C 96 % 1022,4 hPa 0,0 mm 0,0 km/h (0 Bft) NW 304 0 min 0,000 mm 0,0 UV-I 0 W/m 2,1 C 0,0 km/h (0 Bft)
09.10.2016 03:54 2,7 C 2,7 C 96 % 1022,4 hPa 0,0 mm 0,0 km/h (0 Bft) NW 304 0 min 0,000 mm 0,0 UV-I 0 W/m 2,1 C 0,0 km/h (0 Bft)
09.10.2016 03:55 2,7 C 2,7 C 96 % 1022,4 hPa 0,0 mm 0,0 km/h (0 Bft) NW 304 0 min 0,000 mm 0,0 UV-I 0 W/m 2,1 C 0,0 km/h (0 Bft)
09.10.2016 03:56 2,7 C 2,7 C 96 % 1022,4 hPa 0,0 mm 0,0 km/h (0 Bft) NW 304 0 min 0,000 mm 0,0 UV-I 0 W/m 2,1 C 0,0 km/h (0 Bft)
09.10.2016 03:57 2,6 C 2,7 C 96 % 1022,4 hPa 0,0 mm 0,0 km/h (0 Bft) NW 304 0 min 0,000 mm 0,0 UV-I 0 W/m 2,0 C 0,0 km/h (0 Bft)
09.10.2016 03:58 2,6 C 2,7 C 96 % 1022,3 hPa 0,0 mm 0,0 km/h (0 Bft) NW 304 0 min 0,000 mm 0,0 UV-I 0 W/m 2,0 C 0,0 km/h (0 Bft)
09.10.2016 03:59 2,6 C 2,6 C 96 % 1022,3 hPa 0,0 mm 0,0 km/h (0 Bft) NW 304 0 min 0,000 mm 0,0 UV-I 0 W/m 2,0 C 0,0 km/h (0 Bft)
09.10.2016 04:00 2,6 C 2,6 C 96 % 1022,3 hPa 0,0 mm 0,0 km/h (0 Bft) NW 304 0 min 0,000 mm 0,0 UV-I 0 W/m 2,0 C 0,0 km/h (0 Bft)
09.10.2016 04:01 2,6 C 2,6 C 96 % 1022,3 hPa 0,0 mm 0,0 km/h (0 Bft) NW 304 0 min 0,000 mm 0,0 UV-I 0 W/m 2,0 C 0,0 km/h (0 Bft)
09.10.2016 04:02 2,6 C 2,6 C 96 % 1022,2 hPa 0,0 mm 0,0 km/h (0 Bft) NW 304 0 min 0,000 mm 0,0 UV-I 0 W/m 2,0 C 0,0 km/h (0 Bft)
09.10.2016 04:03 2,6 C 2,6 C 97 % 1022,2 hPa 0,0 mm 0,0 km/h (0 Bft) NW 304 0 min 0,000 mm 0,0 UV-I 0 W/m 2,2 C 0,0 km/h (0 Bft)
09.10.2016 04:04 2,6 C 2,6 C 96 % 1022,2 hPa 0,0 mm 0,0 km/h (0 Bft) NW 304 0 min 0,000 mm 0,0 UV-I 0 W/m 2,0 C 0,0 km/h (0 Bft)
09.10.2016 04:05 2,6 C 2,6 C 96 % 1022,2 hPa 0,0 mm 0,0 km/h (0 Bft) NW 304 0 min 0,000 mm 0,0 UV-I 0 W/m 2,0 C 0,0 km/h (0 Bft)
09.10.2016 04:06 2,5 C 2,6 C 97 % 1022,1 hPa 0,0 mm 0,0 km/h (0 Bft) NW 304 0 min 0,000 mm 0,0 UV-I 0 W/m 2,1 C 0,0 km/h (0 Bft)
09.10.2016 04:07 2,6 C 2,6 C 96 % 1022,1 hPa 0,0 mm 0,0 km/h (0 Bft) NW 304 0 min 0,000 mm 0,0 UV-I 0 W/m 2,0 C 0,0 km/h (0 Bft)
09.10.2016 04:08 2,6 C 2,6 C 97 % 1022,1 hPa 0,0 mm 0,0 km/h (0 Bft) NW 304 0 min 0,000 mm 0,0 UV-I 0 W/m 2,2 C 0,0 km/h (0 Bft)
09.10.2016 04:09 2,6 C 2,6 C 97 % 1022,1 hPa 0,0 mm 0,0 km/h (0 Bft) NW 304 0 min 0,000 mm 0,0 UV-I 0 W/m 2,2 C 0,0 km/h (0 Bft)
09.10.2016 04:10 2,6 C 2,6 C 97 % 1022,1 hPa 0,0 mm 0,0 km/h (0 Bft) NW 304 0 min 0,000 mm 0,0 UV-I 0 W/m 2,2 C 0,0 km/h (0 Bft)
09.10.2016 04:11 2,6 C 2,6 C 96 % 1022,1 hPa 0,0 mm 0,0 km/h (0 Bft) NW 304 0 min 0,000 mm 0,0 UV-I 0 W/m 2,0 C 0,0 km/h (0 Bft)
09.10.2016 04:12 2,6 C 2,6 C 97 % 1022,2 hPa 0,0 mm 0,0 km/h (0 Bft) NW 304 0 min 0,000 mm 0,0 UV-I 0 W/m 2,2 C 0,0 km/h (0 Bft)
09.10.2016 04:13 2,6 C 2,6 C 97 % 1022,2 hPa 0,0 mm 0,7 km/h (0 Bft) NW 304 0 min 0,000 mm 0,0 UV-I 0 W/m 2,2 C 3,2 km/h (1 Bft)
09.10.2016 04:14 2,7 C 2,7 C 97 % 1022,1 hPa 0,0 mm 1,6 km/h (1 Bft) NW 304 0 min 0,000 mm 0,0 UV-I 0 W/m 2,3 C 3,2 km/h (1 Bft)
09.10.2016 04:15 2,7 C 2,7 C 97 % 1022,1 hPa 0,0 mm 0,8 km/h (0 Bft) NW 304 0 min 0,000 mm 0,0 UV-I 0 W/m 2,3 C 1,6 km/h (1 Bft)
09.10.2016 04:16 2,6 C 2,7 C 96 % 1022,2 hPa 0,0 mm 1,0 km/h (0 Bft) NW 304 0 min 0,000 mm 0,0 UV-I 0 W/m 2,0 C 1,6 km/h (1 Bft)
09.10.2016 04:17 2,5 C 2,6 C 97 % 1022,1 hPa 0,0 mm 0,6 km/h (0 Bft) NW 304 0 min 0,000 mm 0,0 UV-I 0 W/m 2,1 C 1,6 km/h (1 Bft)
09.10.2016 04:18 2,4 C 2,6 C 97 % 1022,2 hPa 0,0 mm 0,3 km/h (0 Bft) NW 304 0 min 0,000 mm 0,0 UV-I 0 W/m 2,0 C 1,6 km/h (1 Bft)
09.10.2016 04:19 2,4 C 2,4 C 96 % 1022,2 hPa 0,0 mm 0,0 km/h (0 Bft) NW 304 0 min 0,000 mm 0,0 UV-I 0 W/m 1,8 C 0,0 km/h (0 Bft)
09.10.2016 04:20 2,4 C 2,4 C 96 % 1022,2 hPa 0,0 mm 0,0 km/h (0 Bft) NW 304 0 min 0,000 mm 0,0 UV-I 0 W/m 1,8 C 0,0 km/h (0 Bft)
09.10.2016 04:21 2,4 C 2,4 C 96 % 1022,2 hPa 0,0 mm 0,0 km/h (0 Bft) NW 304 0 min 0,000 mm 0,0 UV-I 0 W/m 1,8 C 0,0 km/h (0 Bft)
09.10.2016 04:22 2,4 C 2,4 C 96 % 1022,1 hPa 0,0 mm 0,0 km/h (0 Bft) NW 304 0 min 0,000 mm 0,0 UV-I 0 W/m 1,8 C 0,0 km/h (0 Bft)
09.10.2016 04:23 2,3 C 2,4 C 96 % 1022,1 hPa 0,0 mm 0,0 km/h (0 Bft) NW 304 0 min 0,000 mm 0,0 UV-I 0 W/m 1,7 C 0,0 km/h (0 Bft)
09.10.2016 04:24 2,3 C 2,4 C 96 % 1022,2 hPa 0,0 mm 0,0 km/h (0 Bft) NW 304 0 min 0,000 mm 0,0 UV-I 0 W/m 1,7 C 0,0 km/h (0 Bft)
09.10.2016 04:25 2,3 C 2,3 C 96 % 1022,3 hPa 0,0 mm 0,0 km/h (0 Bft) NW 304 0 min 0,000 mm 0,0 UV-I 0 W/m 1,7 C 0,0 km/h (0 Bft)
09.10.2016 04:26 2,3 C 2,3 C 96 % 1022,2 hPa 0,0 mm 0,0 km/h (0 Bft) NW 304 0 min 0,000 mm 0,0 UV-I 0 W/m 1,7 C 0,0 km/h (0 Bft)
09.10.2016 04:27 2,3 C 2,3 C 96 % 1022,2 hPa 0,0 mm 0,0 km/h (0 Bft) NW 304 0 min 0,000 mm 0,0 UV-I 0 W/m 1,7 C 0,0 km/h (0 Bft)
09.10.2016 04:28 2,2 C 2,3 C 96 % 1022,2 hPa 0,0 mm 0,0 km/h (0 Bft) NW 304 0 min 0,000 mm 0,0 UV-I 0 W/m 1,6 C 0,0 km/h (0 Bft)
09.10.2016 04:29 2,2 C 2,2 C 96 % 1022,2 hPa 0,0 mm 0,0 km/h (0 Bft) NW 304 0 min 0,000 mm 0,0 UV-I 0 W/m 1,6 C 0,0 km/h (0 Bft)
09.10.2016 04:30 2,2 C 2,2 C 96 % 1022,2 hPa 0,0 mm 0,0 km/h (0 Bft) NW 304 0 min 0,000 mm 0,0 UV-I 0 W/m 1,6 C 0,0 km/h (0 Bft)
09.10.2016 04:31 2,2 C 2,2 C 96 % 1022,2 hPa 0,0 mm 0,0 km/h (0 Bft) NW 304 0 min 0,000 mm 0,0 UV-I 0 W/m 1,6 C 0,0 km/h (0 Bft)
09.10.2016 04:32 2,1 C 2,2 C 96 % 1022,2 hPa 0,0 mm 0,0 km/h (0 Bft) NW 304 0 min 0,000 mm 0,0 UV-I 0 W/m 1,5 C 0,0 km/h (0 Bft)
09.10.2016 04:33 2,0 C 2,1 C 96 % 1022,2 hPa 0,0 mm 0,0 km/h (0 Bft) NW 304 0 min 0,000 mm 0,0 UV-I 0 W/m 1,4 C 0,0 km/h (0 Bft)
09.10.2016 04:34 2,1 C 2,1 C 96 % 1022,3 hPa 0,0 mm 0,0 km/h (0 Bft) NW 304 0 min 0,000 mm 0,0 UV-I 0 W/m 1,5 C 0,0 km/h (0 Bft)
09.10.2016 04:35 2,0 C 2,1 C 96 % 1022,3 hPa 0,0 mm 0,0 km/h (0 Bft) NW 304 0 min 0,000 mm 0,0 UV-I 0 W/m 1,4 C 0,0 km/h (0 Bft)
09.10.2016 04:36 2,0 C 2,0 C 96 % 1022,2 hPa 0,0 mm 0,0 km/h (0 Bft) NW 304 0 min 0,000 mm 0,0 UV-I 0 W/m 1,4 C 0,0 km/h (0 Bft)
09.10.2016 04:37 1,9 C 2,0 C 96 % 1022,2 hPa 0,0 mm 0,0 km/h (0 Bft) NW 304 0 min 0,000 mm 0,0 UV-I 0 W/m 1,3 C 0,0 km/h (0 Bft)
09.10.2016 04:38 2,0 C 2,0 C 96 % 1022,2 hPa 0,0 mm 0,0 km/h (0 Bft) NW 304 0 min 0,000 mm 0,0 UV-I 0 W/m 1,4 C 0,0 km/h (0 Bft)
09.10.2016 04:39 2,0 C 2,0 C 96 % 1022,2 hPa 0,0 mm 0,0 km/h (0 Bft) NW 304 0 min 0,000 mm 0,0 UV-I 0 W/m 1,4 C 0,0 km/h (0 Bft)
09.10.2016 04:40 1,9 C 2,0 C 96 % 1022,2 hPa 0,0 mm 0,0 km/h (0 Bft) NW 304 0 min 0,000 mm 0,0 UV-I 0 W/m 1,3 C 0,0 km/h (0 Bft)
09.10.2016 04:41 2,0 C 2,0 C 96 % 1022,2 hPa 0,0 mm 0,0 km/h (0 Bft) NW 304 0 min 0,000 mm 0,0 UV-I 0 W/m 1,4 C 0,0 km/h (0 Bft)
09.10.2016 04:42 2,0 C 2,0 C 96 % 1022,1 hPa 0,0 mm 0,0 km/h (0 Bft) NW 304 0 min 0,000 mm 0,0 UV-I 0 W/m 1,4 C 0,0 km/h (0 Bft)
09.10.2016 04:43 2,0 C 2,0 C 96 % 1022,2 hPa 0,0 mm 0,2 km/h (0 Bft) NW 304 0 min 0,000 mm 0,0 UV-I 0 W/m 1,4 C 1,6 km/h (1 Bft)
09.10.2016 04:44 2,0 C 2,1 C 96 % 1022,1 hPa 0,0 mm 1,1 km/h (1 Bft) NW 304 0 min 0,000 mm 0,0 UV-I 0 W/m 1,4 C 1,6 km/h (1 Bft)
09.10.2016 04:45 2,0 C 2,1 C 96 % 1022,1 hPa 0,0 mm 1,3 km/h (1 Bft) NW 304 0 min 0,000 mm 0,0 UV-I 0 W/m 1,4 C 1,6 km/h (1 Bft)
09.10.2016 04:46 2,0 C 2,1 C 96 % 1022,2 hPa 0,0 mm 1,1 km/h (1 Bft) NW 304 0 min 0,000 mm 0,0 UV-I 0 W/m 1,4 C 1,6 km/h (1 Bft)
09.10.2016 04:47 2,0 C 2,0 C 96 % 1022,2 hPa 0,0 mm 0,7 km/h (0 Bft) NW 304 0 min 0,000 mm 0,0 UV-I 0 W/m 1,4 C 1,6 km/h (1 Bft)
09.10.2016 04:48 1,9 C 2,0 C 96 % 1022,2 hPa 0,0 mm 0,6 km/h (0 Bft) NW 304 0 min 0,000 mm 0,0 UV-I 0 W/m 1,3 C 1,6 km/h (1 Bft)
09.10.2016 04:49 1,8 C 1,9 C 96 % 1022,2 hPa 0,0 mm 0,0 km/h (0 Bft) NW 304 0 min 0,000 mm 0,0 UV-I 0 W/m 1,2 C 0,0 km/h (0 Bft)
09.10.2016 04:50 1,8 C 1,8 C 96 % 1022,2 hPa 0,0 mm 0,0 km/h (0 Bft) NW 304 0 min 0,000 mm 0,0 UV-I 0 W/m 1,2 C 0,0 km/h (0 Bft)
09.10.2016 04:51 1,8 C 1,8 C 96 % 1022,2 hPa 0,0 mm 0,0 km/h (0 Bft) NW 304 0 min 0,000 mm 0,0 UV-I 0 W/m 1,2 C 0,0 km/h (0 Bft)
09.10.2016 04:52 1,7 C 1,8 C 96 % 1022,2 hPa 0,0 mm 0,0 km/h (0 Bft) NW 304 0 min 0,000 mm 0,0 UV-I 0 W/m 1,1 C 0,0 km/h (0 Bft)
09.10.2016 04:53 1,7 C 1,7 C 96 % 1022,2 hPa 0,0 mm 0,3 km/h (0 Bft) NW 304 0 min 0,000 mm 0,0 UV-I 0 W/m 1,1 C 1,6 km/h (1 Bft)
09.10.2016 04:54 1,7 C 1,7 C 96 % 1022,2 hPa 0,0 mm 0,5 km/h (0 Bft) NW 304 0 min 0,000 mm 0,0 UV-I 0 W/m 1,1 C 1,6 km/h (1 Bft)
09.10.2016 04:55 1,7 C 1,7 C 96 % 1022,1 hPa 0,0 mm 0,9 km/h (0 Bft) NW 304 0 min 0,000 mm 0,0 UV-I 0 W/m 1,1 C 1,6 km/h (1 Bft)
09.10.2016 04:56 1,6 C 1,7 C 96 % 1022,2 hPa 0,0 mm 1,2 km/h (1 Bft) NW 304 0 min 0,000 mm 0,0 UV-I 0 W/m 1,0 C 3,2 km/h (1 Bft)
09.10.2016 04:57 1,7 C 1,7 C 96 % 1022,2 hPa 0,0 mm 2,1 km/h (1 Bft) S-SW 209 0 min 0,000 mm 0,0 UV-I 0 W/m 1,1 C 3,2 km/h (1 Bft)
09.10.2016 04:58 1,7 C 1,7 C 96 % 1022,2 hPa 0,0 mm 1,8 km/h (1 Bft) S-SW 209 0 min 0,000 mm 0,0 UV-I 0 W/m 1,1 C 3,2 km/h (1 Bft)
09.10.2016 04:59 1,8 C 1,8 C 96 % 1022,1 hPa 0,0 mm 1,1 km/h (1 Bft) S-SW 209 0 min 0,000 mm 0,0 UV-I 0 W/m 1,2 C 1,6 km/h (1 Bft)
09.10.2016 05:00 1,8 C 1,8 C 97 % 1022,1 hPa 0,0 mm 0,1 km/h (0 Bft) S-SW 209 0 min 0,000 mm 0,0 UV-I 0 W/m 1,4 C 1,6 km/h (1 Bft)
09.10.2016 05:01 1,8 C 1,8 C 97 % 1022,1 hPa 0,0 mm 0,0 km/h (0 Bft) S-SW 209 0 min 0,000 mm 0,0 UV-I 0 W/m 1,4 C 0,0 km/h (0 Bft)
09.10.2016 05:02 1,8 C 1,8 C 97 % 1022,1 hPa 0,0 mm 0,1 km/h (0 Bft) S-SW 209 0 min 0,000 mm 0,0 UV-I 0 W/m 1,4 C 1,6 km/h (1 Bft)
09.10.2016 05:03 1,7 C 1,8 C 96 % 1022,1 hPa 0,0 mm 0,2 km/h (0 Bft) S-SW 209 0 min 0,000 mm 0,0 UV-I 0 W/m 1,1 C 1,6 km/h (1 Bft)
09.10.2016 05:04 1,6 C 1,7 C 96 % 1022,2 hPa 0,0 mm 0,2 km/h (0 Bft) S-SW 209 0 min 0,000 mm 0,0 UV-I 0 W/m 1,0 C 1,6 km/h (1 Bft)
09.10.2016 05:05 1,6 C 1,6 C 96 % 1022,1 hPa 0,0 mm 0,0 km/h (0 Bft) S-SW 209 0 min 0,000 mm 0,0 UV-I 0 W/m 1,0 C 0,0 km/h (0 Bft)
09.10.2016 05:06 1,6 C 1,6 C 96 % 1022,2 hPa 0,0 mm 0,2 km/h (0 Bft) S-SW 209 0 min 0,000 mm 0,0 UV-I 0 W/m 1,0 C 1,6 km/h (1 Bft)
09.10.2016 05:07 1,5 C 1,6 C 96 % 1022,2 hPa 0,0 mm 0,0 km/h (0 Bft) S-SW 209 0 min 0,000 mm 0,0 UV-I 0 W/m 0,9 C 0,0 km/h (0 Bft)
09.10.2016 05:08 1,4 C 1,5 C 96 % 1022,2 hPa 0,0 mm 0,0 km/h (0 Bft) S-SW 209 0 min 0,000 mm 0,0 UV-I 0 W/m 0,8 C 0,0 km/h (0 Bft)
09.10.2016 05:09 1,4 C 1,4 C 96 % 1022,2 hPa 0,0 mm 0,0 km/h (0 Bft) S-SW 209 0 min 0,000 mm 0,0 UV-I 0 W/m 0,8 C 0,0 km/h (0 Bft)
09.10.2016 05:10 1,3 C 1,4 C 96 % 1022,2 hPa 0,0 mm 0,0 km/h (0 Bft) S-SW 209 0 min 0,000 mm 0,0 UV-I 0 W/m 0,7 C 0,0 km/h (0 Bft)
09.10.2016 05:11 1,3 C 1,3 C 96 % 1022,2 hPa 0,0 mm 0,0 km/h (0 Bft) S-SW 209 0 min 0,000 mm 0,0 UV-I 0 W/m 0,7 C 0,0 km/h (0 Bft)
09.10.2016 05:12 1,3 C 1,3 C 96 % 1022,2 hPa 0,0 mm 1,1 km/h (1 Bft) S-SW 209 0 min 0,000 mm 0,0 UV-I 0 W/m 0,7 C 1,6 km/h (1 Bft)
09.10.2016 05:13 1,3 C 1,3 C 96 % 1022,2 hPa 0,0 mm 0,7 km/h (0 Bft) S-SW 209 0 min 0,000 mm 0,0 UV-I 0 W/m 0,7 C 1,6 km/h (1 Bft)
09.10.2016 05:14 1,3 C 1,3 C 96 % 1022,2 hPa 0,0 mm 0,7 km/h (0 Bft) S-SW 209 0 min 0,000 mm 0,0 UV-I 0 W/m 0,7 C 1,6 km/h (1 Bft)
09.10.2016 05:15 1,3 C 1,3 C 96 % 1022,2 hPa 0,0 mm 0,3 km/h (0 Bft) S-SW 209 0 min 0,000 mm 0,0 UV-I 0 W/m 0,7 C 1,6 km/h (1 Bft)
09.10.2016 05:16 1,3 C 1,3 C 96 % 1022,2 hPa 0,0 mm 0,3 km/h (0 Bft) S-SW 209 0 min 0,000 mm 0,0 UV-I 0 W/m 0,7 C 1,6 km/h (1 Bft)
09.10.2016 05:17 1,3 C 1,3 C 96 % 1022,2 hPa 0,0 mm 0,0 km/h (0 Bft) S-SW 209 0 min 0,000 mm 0,0 UV-I 0 W/m 0,7 C 0,0 km/h (0 Bft)
09.10.2016 05:18 1,3 C 1,3 C 96 % 1022,2 hPa 0,0 mm 0,0 km/h (0 Bft) S-SW 209 0 min 0,000 mm 0,0 UV-I 0 W/m 0,7 C 0,0 km/h (0 Bft)
09.10.2016 05:19 1,3 C 1,3 C 96 % 1022,2 hPa 0,0 mm 0,0 km/h (0 Bft) S-SW 209 0 min 0,000 mm 0,0 UV-I 0 W/m 0,7 C 0,0 km/h (0 Bft)
09.10.2016 05:20 1,2 C 1,3 C 96 % 1022,2 hPa 0,0 mm 0,0 km/h (0 Bft) S-SW 209 0 min 0,000 mm 0,0 UV-I 0 W/m 0,6 C 0,0 km/h (0 Bft)
09.10.2016 05:21 1,2 C 1,2 C 96 % 1022,2 hPa 0,0 mm 0,0 km/h (0 Bft) S-SW 209 0 min 0,000 mm 0,0 UV-I 0 W/m 0,6 C 0,0 km/h (0 Bft)
09.10.2016 05:22 1,2 C 1,3 C 96 % 1022,2 hPa 0,0 mm 0,3 km/h (0 Bft) S-SW 209 0 min 0,000 mm 0,0 UV-I 0 W/m 0,6 C 1,6 km/h (1 Bft)
09.10.2016 05:23 1,2 C 1,2 C 96 % 1022,2 hPa 0,0 mm 0,0 km/h (0 Bft) S-SW 209 0 min 0,000 mm 0,0 UV-I 0 W/m 0,6 C 0,0 km/h (0 Bft)
09.10.2016 05:24 1,2 C 1,2 C 96 % 1022,2 hPa 0,0 mm 0,0 km/h (0 Bft) S-SW 209 0 min 0,000 mm 0,0 UV-I 0 W/m 0,6 C 0,0 km/h (0 Bft)
09.10.2016 05:25 1,1 C 1,2 C 96 % 1022,2 hPa 0,0 mm 0,0 km/h (0 Bft) S-SW 209 0 min 0,000 mm 0,0 UV-I 0 W/m 0,5 C 0,0 km/h (0 Bft)
09.10.2016 05:26 1,1 C 1,1 C 96 % 1022,2 hPa 0,0 mm 0,3 km/h (0 Bft) S-SW 209 0 min 0,000 mm 0,0 UV-I 0 W/m 0,5 C 1,6 km/h (1 Bft)
09.10.2016 05:27 1,1 C 1,1 C 96 % 1022,2 hPa 0,0 mm 2,1 km/h (1 Bft) S-SW 209 0 min 0,000 mm 0,0 UV-I 0 W/m 0,5 C 3,2 km/h (1 Bft)
09.10.2016 05:28 1,1 C 1,1 C 96 % 1022,2 hPa 0,0 mm 1,7 km/h (1 Bft) S-SW 209 0 min 0,000 mm 0,0 UV-I 0 W/m 0,5 C 3,2 km/h (1 Bft)
09.10.2016 05:29 1,1 C 1,1 C 96 % 1022,2 hPa 0,0 mm 1,4 km/h (1 Bft) S-SW 209 0 min 0,000 mm 0,0 UV-I 0 W/m 0,5 C 1,6 km/h (1 Bft)
09.10.2016 05:30 1,1 C 1,1 C 96 % 1022,2 hPa 0,0 mm 1,2 km/h (1 Bft) S-SW 209 0 min 0,000 mm 0,0 UV-I 0 W/m 0,5 C 1,6 km/h (1 Bft)
09.10.2016 05:31 1,0 C 1,1 C 96 % 1022,2 hPa 0,0 mm 0,5 km/h (0 Bft) S-SW 209 0 min 0,000 mm 0,0 UV-I 0 W/m 0,4 C 1,6 km/h (1 Bft)
09.10.2016 05:32 0,9 C 1,0 C 96 % 1022,2 hPa 0,0 mm 1,1 km/h (1 Bft) S-SW 209 0 min 0,000 mm 0,0 UV-I 0 W/m 0,3 C 1,6 km/h (1 Bft)
09.10.2016 05:33 1,0 C 1,0 C 96 % 1022,2 hPa 0,0 mm 0,0 km/h (0 Bft) S-SW 209 0 min 0,000 mm 0,0 UV-I 0 W/m 0,4 C 0,0 km/h (0 Bft)
09.10.2016 05:35 1,0 C 1,0 C 96 % 1022,2 hPa 0,0 mm 0,0 km/h (0 Bft) S-SW 209 0 min 0,000 mm 0,0 UV-I 0 W/m 0,4 C 0,0 km/h (0 Bft)
09.10.2016 05:36 0,9 C 1,0 C 96 % 1022,2 hPa 0,0 mm 0,0 km/h (0 Bft) S-SW 209 0 min 0,000 mm 0,0 UV-I 0 W/m 0,3 C 0,0 km/h (0 Bft)
09.10.2016 05:37 0,9 C 0,9 C 96 % 1022,2 hPa 0,0 mm 0,0 km/h (0 Bft) S-SW 209 0 min 0,000 mm 0,0 UV-I 0 W/m 0,3 C 0,0 km/h (0 Bft)
09.10.2016 05:38 0,9 C 0,9 C 96 % 1022,2 hPa 0,0 mm 0,1 km/h (0 Bft) S-SW 209 0 min 0,000 mm 0,0 UV-I 0 W/m 0,3 C 1,6 km/h (1 Bft)
09.10.2016 05:39 0,9 C 0,9 C 96 % 1022,2 hPa 0,0 mm 0,1 km/h (0 Bft) S-SW 209 0 min 0,000 mm 0,0 UV-I 0 W/m 0,3 C 1,6 km/h (1 Bft)
09.10.2016 05:40 0,9 C 0,9 C 96 % 1022,2 hPa 0,0 mm 0,0 km/h (0 Bft) S-SW 209 0 min 0,000 mm 0,0 UV-I 0 W/m 0,3 C 0,0 km/h (0 Bft)
09.10.2016 05:41 0,8 C 0,9 C 96 % 1022,2 hPa 0,0 mm 0,3 km/h (0 Bft) S-SW 209 0 min 0,000 mm 0,0 UV-I 0 W/m 0,2 C 1,6 km/h (1 Bft)
09.10.2016 05:42 0,8 C 0,8 C 96 % 1022,2 hPa 0,0 mm 0,0 km/h (0 Bft) S-SW 209 0 min 0,000 mm 0,0 UV-I 0 W/m 0,2 C 0,0 km/h (0 Bft)
09.10.2016 05:43 0,8 C 0,8 C 96 % 1022,2 hPa 0,0 mm 0,0 km/h (0 Bft) S-SW 209 0 min 0,000 mm 0,0 UV-I 0 W/m 0,2 C 0,0 km/h (0 Bft)
09.10.2016 05:44 0,8 C 0,8 C 96 % 1022,2 hPa 0,0 mm 0,0 km/h (0 Bft) S-SW 209 0 min 0,000 mm 0,0 UV-I 0 W/m 0,2 C 0,0 km/h (0 Bft)
09.10.2016 05:45 0,8 C 0,8 C 96 % 1022,2 hPa 0,0 mm 0,0 km/h (0 Bft) S-SW 209 0 min 0,000 mm 0,0 UV-I 0 W/m 0,2 C 0,0 km/h (0 Bft)
09.10.2016 05:46 0,8 C 0,8 C 96 % 1022,1 hPa 0,0 mm 0,3 km/h (0 Bft) S-SW 209 0 min 0,000 mm 0,0 UV-I 0 W/m 0,2 C 1,6 km/h (1 Bft)
09.10.2016 05:47 0,9 C 0,9 C 96 % 1022,1 hPa 0,0 mm 0,1 km/h (0 Bft) S-SW 209 0 min 0,000 mm 0,0 UV-I 0 W/m 0,3 C 1,6 km/h (1 Bft)
09.10.2016 05:48 0,8 C 0,9 C 97 % 1022,2 hPa 0,0 mm 0,0 km/h (0 Bft) S-SW 209 0 min 0,000 mm 0,0 UV-I 0 W/m 0,4 C 0,0 km/h (0 Bft)
09.10.2016 05:49 0,8 C 0,8 C 96 % 1022,2 hPa 0,0 mm 0,0 km/h (0 Bft) S-SW 209 0 min 0,000 mm 0,0 UV-I 0 W/m 0,2 C 0,0 km/h (0 Bft)
09.10.2016 05:50 0,7 C 0,8 C 96 % 1022,2 hPa 0,0 mm 0,0 km/h (0 Bft) S-SW 209 0 min 0,000 mm 0,0 UV-I 0 W/m 0,1 C 0,0 km/h (0 Bft)
09.10.2016 05:51 0,7 C 0,7 C 96 % 1022,2 hPa 0,0 mm 0,0 km/h (0 Bft) S-SW 209 0 min 0,000 mm 0,0 UV-I 0 W/m 0,1 C 0,0 km/h (0 Bft)
09.10.2016 05:52 0,7 C 0,7 C 96 % 1022,2 hPa 0,0 mm 0,0 km/h (0 Bft) S-SW 209 0 min 0,000 mm 0,0 UV-I 0 W/m 0,1 C 0,0 km/h (0 Bft)
09.10.2016 05:53 0,7 C 0,7 C 96 % 1022,2 hPa 0,0 mm 0,0 km/h (0 Bft) S-SW 209 0 min 0,000 mm 0,0 UV-I 0 W/m 0,1 C 0,0 km/h (0 Bft)
09.10.2016 05:54 0,7 C 0,7 C 96 % 1022,2 hPa 0,0 mm 0,0 km/h (0 Bft) S-SW 209 0 min 0,000 mm 0,0 UV-I 0 W/m 0,1 C 0,0 km/h (0 Bft)
09.10.2016 05:55 0,7 C 0,7 C 96 % 1022,2 hPa 0,0 mm 0,0 km/h (0 Bft) S-SW 209 0 min 0,000 mm 0,0 UV-I 0 W/m 0,1 C 0,0 km/h (0 Bft)
09.10.2016 05:56 0,7 C 0,7 C 96 % 1022,2 hPa 0,0 mm 0,0 km/h (0 Bft) S-SW 209 0 min 0,000 mm 0,0 UV-I 0 W/m 0,1 C 0,0 km/h (0 Bft)
09.10.2016 05:57 0,7 C 0,7 C 96 % 1022,1 hPa 0,0 mm 0,0 km/h (0 Bft) S-SW 209 0 min 0,000 mm 0,0 UV-I 0 W/m 0,1 C 0,0 km/h (0 Bft)
09.10.2016 05:58 0,7 C 0,7 C 96 % 1022,2 hPa 0,0 mm 0,0 km/h (0 Bft) S-SW 209 0 min 0,000 mm 0,0 UV-I 0 W/m 0,1 C 0,0 km/h (0 Bft)
09.10.2016 05:59 0,7 C 0,7 C 96 % 1022,2 hPa 0,0 mm 0,0 km/h (0 Bft) S-SW 209 0 min 0,000 mm 0,0 UV-I 0 W/m 0,1 C 0,0 km/h (0 Bft)
09.10.2016 06:00 0,8 C 0,8 C 96 % 1022,2 hPa 0,0 mm 0,0 km/h (0 Bft) S-SW 209 0 min 0,000 mm 0,0 UV-I 0 W/m 0,2 C 0,0 km/h (0 Bft)
09.10.2016 06:01 0,8 C 0,8 C 96 % 1022,2 hPa 0,0 mm 0,0 km/h (0 Bft) S-SW 209 0 min 0,000 mm 0,0 UV-I 0 W/m 0,2 C 0,0 km/h (0 Bft)
09.10.2016 06:02 0,8 C 0,8 C 96 % 1022,2 hPa 0,0 mm 0,0 km/h (0 Bft) S-SW 209 0 min 0,000 mm 0,0 UV-I 0 W/m 0,2 C 0,0 km/h (0 Bft)
09.10.2016 06:03 0,8 C 0,8 C 96 % 1022,2 hPa 0,0 mm 0,4 km/h (0 Bft) S-SW 209 0 min 0,000 mm 0,0 UV-I 0 W/m 0,2 C 1,6 km/h (1 Bft)
09.10.2016 06:04 0,8 C 0,8 C 96 % 1022,2 hPa 0,0 mm 0,8 km/h (0 Bft) S-SW 209 0 min 0,000 mm 0,0 UV-I 0 W/m 0,2 C 3,2 km/h (1 Bft)
09.10.2016 06:05 0,8 C 0,8 C 96 % 1022,3 hPa 0,0 mm 0,0 km/h (0 Bft) S-SW 209 0 min 0,000 mm 0,0 UV-I 0 W/m 0,2 C 0,0 km/h (0 Bft)
09.10.2016 06:06 0,8 C 0,8 C 96 % 1022,2 hPa 0,0 mm 0,0 km/h (0 Bft) S-SW 209 0 min 0,000 mm 0,0 UV-I 0 W/m 0,2 C 0,0 km/h (0 Bft)
09.10.2016 06:07 0,9 C 0,9 C 97 % 1022,2 hPa 0,0 mm 0,0 km/h (0 Bft) S-SW 209 0 min 0,000 mm 0,0 UV-I 0 W/m 0,5 C 0,0 km/h (0 Bft)
09.10.2016 06:08 0,9 C 0,9 C 97 % 1022,2 hPa 0,0 mm 0,0 km/h (0 Bft) S-SW 209 0 min 0,000 mm 0,0 UV-I 0 W/m 0,5 C 0,0 km/h (0 Bft)
09.10.2016 06:09 0,9 C 0,9 C 97 % 1022,2 hPa 0,0 mm 0,0 km/h (0 Bft) S-SW 209 0 min 0,000 mm 0,0 UV-I 0 W/m 0,5 C 0,0 km/h (0 Bft)
09.10.2016 06:10 0,9 C 0,9 C 97 % 1022,2 hPa 0,0 mm 0,0 km/h (0 Bft) S-SW 209 0 min 0,000 mm 0,0 UV-I 0 W/m 0,5 C 0,0 km/h (0 Bft)
09.10.2016 06:11 0,9 C 0,9 C 97 % 1022,2 hPa 0,0 mm 0,0 km/h (0 Bft) S-SW 209 0 min 0,000 mm 0,0 UV-I 0 W/m 0,5 C 0,0 km/h (0 Bft)
09.10.2016 06:12 0,8 C 0,9 C 96 % 1022,2 hPa 0,0 mm 0,0 km/h (0 Bft) S-SW 209 0 min 0,000 mm 0,0 UV-I 0 W/m 0,2 C 0,0 km/h (0 Bft)
09.10.2016 06:13 0,8 C 0,8 C 96 % 1022,2 hPa 0,0 mm 0,0 km/h (0 Bft) S-SW 209 0 min 0,000 mm 0,0 UV-I 0 W/m 0,2 C 0,0 km/h (0 Bft)
09.10.2016 06:14 0,7 C 0,8 C 96 % 1022,2 hPa 0,0 mm 0,0 km/h (0 Bft) S-SW 209 0 min 0,000 mm 0,0 UV-I 0 W/m 0,1 C 0,0 km/h (0 Bft)
09.10.2016 06:15 0,7 C 0,7 C 96 % 1022,2 hPa 0,0 mm 0,0 km/h (0 Bft) S-SW 209 0 min 0,000 mm 0,0 UV-I 0 W/m 0,1 C 0,0 km/h (0 Bft)
09.10.2016 06:16 0,7 C 0,7 C 96 % 1022,2 hPa 0,0 mm 0,0 km/h (0 Bft) S-SW 209 0 min 0,000 mm 0,0 UV-I 0 W/m 0,1 C 0,0 km/h (0 Bft)
09.10.2016 06:17 0,6 C 0,7 C 96 % 1022,2 hPa 0,0 mm 0,0 km/h (0 Bft) S-SW 209 0 min 0,000 mm 0,0 UV-I 0 W/m 0,0 C 0,0 km/h (0 Bft)
09.10.2016 06:18 0,6 C 0,6 C 96 % 1022,3 hPa 0,0 mm 0,0 km/h (0 Bft) S-SW 209 0 min 0,000 mm 0,0 UV-I 0 W/m 0,0 C 0,0 km/h (0 Bft)
09.10.2016 06:19 0,6 C 0,6 C 96 % 1022,2 hPa 0,0 mm 0,0 km/h (0 Bft) S-SW 209 0 min 0,000 mm 0,0 UV-I 0 W/m 0,0 C 0,0 km/h (0 Bft)
09.10.2016 06:20 0,6 C 0,6 C 96 % 1022,3 hPa 0,0 mm 0,0 km/h (0 Bft) S-SW 209 0 min 0,000 mm 0,0 UV-I 0 W/m 0,0 C 0,0 km/h (0 Bft)
09.10.2016 06:21 0,6 C 0,6 C 96 % 1022,3 hPa 0,0 mm 0,0 km/h (0 Bft) S-SW 209 0 min 0,000 mm 0,0 UV-I 0 W/m 0,0 C 0,0 km/h (0 Bft)
09.10.2016 06:22 0,6 C 0,6 C 96 % 1022,3 hPa 0,0 mm 0,0 km/h (0 Bft) S-SW 209 0 min 0,000 mm 0,0 UV-I 0 W/m 0,0 C 0,0 km/h (0 Bft)
09.10.2016 06:23 0,6 C 0,6 C 96 % 1022,3 hPa 0,0 mm 0,0 km/h (0 Bft) S-SW 209 0 min 0,000 mm 0,0 UV-I 0 W/m 0,0 C 0,0 km/h (0 Bft)
09.10.2016 06:24 0,5 C 0,6 C 96 % 1022,3 hPa 0,0 mm 0,0 km/h (0 Bft) S-SW 209 0 min 0,000 mm 0,0 UV-I 0 W/m -0,1 C 0,0 km/h (0 Bft)
09.10.2016 06:25 0,5 C 0,5 C 96 % 1022,2 hPa 0,0 mm 0,0 km/h (0 Bft) S-SW 209 0 min 0,000 mm 0,0 UV-I 0 W/m -0,1 C 0,0 km/h (0 Bft)
09.10.2016 06:26 0,6 C 0,6 C 96 % 1022,2 hPa 0,0 mm 0,0 km/h (0 Bft) S-SW 209 0 min 0,000 mm 0,0 UV-I 0 W/m 0,0 C 0,0 km/h (0 Bft)
09.10.2016 06:27 0,5 C 0,6 C 96 % 1022,3 hPa 0,0 mm 0,0 km/h (0 Bft) S-SW 209 0 min 0,000 mm 0,0 UV-I 0 W/m -0,1 C 0,0 km/h (0 Bft)
09.10.2016 06:28 0,5 C 0,6 C 96 % 1022,2 hPa 0,0 mm 0,0 km/h (0 Bft) S-SW 209 0 min 0,000 mm 0,0 UV-I 0 W/m -0,1 C 0,0 km/h (0 Bft)
09.10.2016 06:29 0,6 C 0,6 C 96 % 1022,3 hPa 0,0 mm 0,0 km/h (0 Bft) S-SW 209 0 min 0,000 mm 0,0 UV-I 0 W/m 0,0 C 0,0 km/h (0 Bft)
09.10.2016 06:30 0,6 C 0,6 C 96 % 1022,3 hPa 0,0 mm 0,0 km/h (0 Bft) S-SW 209 0 min 0,000 mm 0,0 UV-I 0 W/m 0,0 C 0,0 km/h (0 Bft)
09.10.2016 06:31 0,6 C 0,6 C 96 % 1022,3 hPa 0,0 mm 0,0 km/h (0 Bft) S-SW 209 0 min 0,000 mm 0,0 UV-I 0 W/m 0,0 C 0,0 km/h (0 Bft)
09.10.2016 06:32 0,7 C 0,7 C 97 % 1022,2 hPa 0,0 mm 0,0 km/h (0 Bft) S-SW 209 0 min 0,000 mm 0,0 UV-I 0 W/m 0,3 C 0,0 km/h (0 Bft)
09.10.2016 06:33 0,6 C 0,7 C 97 % 1022,3 hPa 0,0 mm 0,0 km/h (0 Bft) S-SW 209 0 min 0,000 mm 0,0 UV-I 0 W/m 0,2 C 0,0 km/h (0 Bft)
09.10.2016 06:34 0,6 C 0,6 C 97 % 1022,2 hPa 0,0 mm 0,0 km/h (0 Bft) S-SW 209 0 min 0,000 mm 0,0 UV-I 0 W/m 0,2 C 0,0 km/h (0 Bft)
09.10.2016 06:35 0,6 C 0,6 C 97 % 1022,3 hPa 0,0 mm 0,0 km/h (0 Bft) S-SW 209 0 min 0,000 mm 0,0 UV-I 0 W/m 0,2 C 0,0 km/h (0 Bft)
09.10.2016 06:36 0,6 C 0,6 C 97 % 1022,3 hPa 0,0 mm 0,0 km/h (0 Bft) S-SW 209 0 min 0,000 mm 0,0 UV-I 0 W/m 0,2 C 0,0 km/h (0 Bft)
09.10.2016 06:37 0,6 C 0,6 C 97 % 1022,2 hPa 0,0 mm 0,0 km/h (0 Bft) S-SW 209 0 min 0,000 mm 0,0 UV-I 0 W/m 0,2 C 0,0 km/h (0 Bft)
09.10.2016 06:38 0,7 C 0,7 C 97 % 1022,3 hPa 0,0 mm 0,8 km/h (0 Bft) S-SW 209 0 min 0,000 mm 0,0 UV-I 0 W/m 0,3 C 3,2 km/h (1 Bft)
09.10.2016 06:39 0,7 C 0,7 C 97 % 1022,3 hPa 0,0 mm 1,5 km/h (1 Bft) S-SW 209 0 min 0,000 mm 0,0 UV-I 0 W/m 0,3 C 1,6 km/h (1 Bft)
09.10.2016 06:40 0,7 C 0,7 C 96 % 1022,2 hPa 0,0 mm 1,3 km/h (1 Bft) S-SW 209 0 min 0,000 mm 0,0 UV-I 0 W/m 0,1 C 1,6 km/h (1 Bft)
09.10.2016 06:41 0,7 C 0,7 C 97 % 1022,2 hPa 0,0 mm 0,5 km/h (0 Bft) S-SW 209 0 min 0,000 mm 0,0 UV-I 0 W/m 0,3 C 1,6 km/h (1 Bft)
09.10.2016 06:42 0,7 C 0,7 C 97 % 1022,2 hPa 0,0 mm 0,1 km/h (0 Bft) S-SW 209 0 min 0,000 mm 0,0 UV-I 0 W/m 0,3 C 1,6 km/h (1 Bft)
09.10.2016 06:43 0,7 C 0,7 C 97 % 1022,2 hPa 0,0 mm 0,2 km/h (0 Bft) S-SW 209 0 min 0,000 mm 0,0 UV-I 0 W/m 0,3 C 1,6 km/h (1 Bft)
09.10.2016 06:44 0,7 C 0,7 C 97 % 1022,2 hPa 0,0 mm 0,2 km/h (0 Bft) S-SW 209 0 min 0,000 mm 0,0 UV-I 0 W/m 0,3 C 1,6 km/h (1 Bft)
09.10.2016 06:45 0,6 C 0,7 C 97 % 1022,2 hPa 0,0 mm 0,3 km/h (0 Bft) S-SW 209 0 min 0,000 mm 0,0 UV-I 0 W/m 0,2 C 1,6 km/h (1 Bft)
09.10.2016 06:46 0,6 C 0,7 C 97 % 1022,2 hPa 0,0 mm 0,0 km/h (0 Bft) S-SW 209 0 min 0,000 mm 0,0 UV-I 0 W/m 0,2 C 0,0 km/h (0 Bft)
09.10.2016 06:47 0,6 C 0,6 C 97 % 1022,3 hPa 0,0 mm 0,0 km/h (0 Bft) S-SW 209 0 min 0,000 mm 0,0 UV-I 0 W/m 0,2 C 0,0 km/h (0 Bft)
09.10.2016 06:48 0,6 C 0,6 C 97 % 1022,3 hPa 0,0 mm 0,0 km/h (0 Bft) S-SW 209 0 min 0,000 mm 0,0 UV-I 0 W/m 0,2 C 0,0 km/h (0 Bft)
09.10.2016 06:49 0,6 C 0,6 C 97 % 1022,2 hPa 0,0 mm 0,0 km/h (0 Bft) S-SW 209 0 min 0,000 mm 0,0 UV-I 0 W/m 0,2 C 0,0 km/h (0 Bft)
09.10.2016 06:50 0,5 C 0,6 C 96 % 1022,2 hPa 0,0 mm 0,0 km/h (0 Bft) S-SW 209 0 min 0,000 mm 0,0 UV-I 0 W/m -0,1 C 0,0 km/h (0 Bft)
09.10.2016 06:51 0,5 C 0,5 C 96 % 1022,3 hPa 0,0 mm 0,0 km/h (0 Bft) S-SW 209 0 min 0,000 mm 0,0 UV-I 0 W/m -0,1 C 0,0 km/h (0 Bft)
09.10.2016 06:52 0,5 C 0,5 C 96 % 1022,3 hPa 0,0 mm 0,3 km/h (0 Bft) S-SW 209 0 min 0,000 mm 0,0 UV-I 0 W/m -0,1 C 1,6 km/h (1 Bft)
09.10.2016 06:53 0,6 C 0,6 C 97 % 1022,3 hPa 0,0 mm 0,0 km/h (0 Bft) S-SW 209 0 min 0,000 mm 0,0 UV-I 0 W/m 0,2 C 0,0 km/h (0 Bft)
09.10.2016 06:54 0,6 C 0,6 C 97 % 1022,3 hPa 0,0 mm 0,0 km/h (0 Bft) S-SW 209 0 min 0,000 mm 0,0 UV-I 0 W/m 0,2 C 0,0 km/h (0 Bft)
09.10.2016 06:55 0,6 C 0,6 C 97 % 1022,3 hPa 0,0 mm 0,0 km/h (0 Bft) S-SW 209 0 min 0,000 mm 0,0 UV-I 0 W/m 0,2 C 0,0 km/h (0 Bft)
09.10.2016 06:56 0,6 C 0,6 C 97 % 1022,3 hPa 0,0 mm 0,0 km/h (0 Bft) S-SW 209 0 min 0,000 mm 0,0 UV-I 0 W/m 0,2 C 0,0 km/h (0 Bft)
09.10.2016 06:57 0,7 C 0,7 C 97 % 1022,3 hPa 0,0 mm 0,0 km/h (0 Bft) S-SW 209 0 min 0,000 mm 0,0 UV-I 0 W/m 0,3 C 0,0 km/h (0 Bft)
09.10.2016 06:58 0,7 C 0,7 C 97 % 1022,3 hPa 0,0 mm 0,0 km/h (0 Bft) S-SW 209 0 min 0,000 mm 0,0 UV-I 0 W/m 0,3 C 0,0 km/h (0 Bft)
09.10.2016 06:59 0,7 C 0,7 C 97 % 1022,2 hPa 0,0 mm 0,0 km/h (0 Bft) S-SW 209 0 min 0,000 mm 0,0 UV-I 0 W/m 0,3 C 0,0 km/h (0 Bft)
09.10.2016 07:00 0,6 C 0,7 C 97 % 1022,3 hPa 0,0 mm 0,0 km/h (0 Bft) S-SW 209 0 min 0,000 mm 0,0 UV-I 0 W/m 0,2 C 0,0 km/h (0 Bft)
09.10.2016 07:01 0,6 C 0,6 C 96 % 1022,3 hPa 0,0 mm 0,0 km/h (0 Bft) S-SW 209 0 min 0,000 mm 0,0 UV-I 0 W/m 0,0 C 0,0 km/h (0 Bft)
09.10.2016 07:02 0,6 C 0,6 C 96 % 1022,2 hPa 0,0 mm 0,0 km/h (0 Bft) S-SW 209 0 min 0,000 mm 0,0 UV-I 0 W/m 0,0 C 0,0 km/h (0 Bft)
09.10.2016 07:03 0,6 C 0,6 C 97 % 1022,2 hPa 0,0 mm 0,0 km/h (0 Bft) S-SW 209 0 min 0,000 mm 0,0 UV-I 0 W/m 0,2 C 0,0 km/h (0 Bft)
09.10.2016 07:04 0,6 C 0,6 C 97 % 1022,2 hPa 0,0 mm 0,0 km/h (0 Bft) S-SW 209 0 min 0,000 mm 0,0 UV-I 0 W/m 0,2 C 0,0 km/h (0 Bft)
09.10.2016 07:05 0,5 C 0,6 C 97 % 1022,2 hPa 0,0 mm 0,0 km/h (0 Bft) S-SW 209 0 min 0,000 mm 0,0 UV-I 0 W/m 0,1 C 0,0 km/h (0 Bft)
09.10.2016 07:06 0,5 C 0,6 C 97 % 1022,2 hPa 0,0 mm 0,0 km/h (0 Bft) S-SW 209 0 min 0,000 mm 0,0 UV-I 0 W/m 0,1 C 0,0 km/h (0 Bft)
09.10.2016 07:07 0,6 C 0,6 C 97 % 1022,2 hPa 0,0 mm 0,0 km/h (0 Bft) S-SW 209 0 min 0,000 mm 0,0 UV-I 0 W/m 0,2 C 0,0 km/h (0 Bft)
09.10.2016 07:08 0,6 C 0,6 C 97 % 1022,2 hPa 0,0 mm 1,4 km/h (1 Bft) N-NW 331 0 min 0,000 mm 0,0 UV-I 0 W/m 0,2 C 3,2 km/h (1 Bft)
09.10.2016 07:09 0,6 C 0,6 C 97 % 1022,2 hPa 0,0 mm 0,2 km/h (0 Bft) N-NW 331 0 min 0,000 mm 0,0 UV-I 0 W/m 0,2 C 1,6 km/h (1 Bft)
09.10.2016 07:10 0,6 C 0,6 C 97 % 1022,3 hPa 0,0 mm 0,8 km/h (0 Bft) N-NW 331 0 min 0,000 mm 0,0 UV-I 0 W/m 0,2 C 1,6 km/h (1 Bft)
09.10.2016 07:11 0,6 C 0,6 C 97 % 1022,3 hPa 0,0 mm 0,7 km/h (0 Bft) N-NW 331 0 min 0,000 mm 0,0 UV-I 0 W/m 0,2 C 1,6 km/h (1 Bft)
09.10.2016 07:12 0,6 C 0,6 C 96 % 1022,3 hPa 0,0 mm 0,0 km/h (0 Bft) N-NW 331 0 min 0,000 mm 0,0 UV-I 0 W/m 0,0 C 0,0 km/h (0 Bft)
09.10.2016 07:13 0,6 C 0,6 C 97 % 1022,3 hPa 0,0 mm 0,0 km/h (0 Bft) N-NW 331 0 min 0,000 mm 0,0 UV-I 0 W/m 0,2 C 0,0 km/h (0 Bft)
09.10.2016 07:14 0,6 C 0,6 C 97 % 1022,3 hPa 0,0 mm 0,0 km/h (0 Bft) N-NW 331 0 min 0,000 mm 0,0 UV-I 0 W/m 0,2 C 0,0 km/h (0 Bft)
09.10.2016 07:15 0,6 C 0,6 C 97 % 1022,3 hPa 0,0 mm 0,0 km/h (0 Bft) N-NW 331 0 min 0,000 mm 0,0 UV-I 0 W/m 0,2 C 0,0 km/h (0 Bft)
09.10.2016 07:16 0,6 C 0,6 C 96 % 1022,4 hPa 0,0 mm 0,0 km/h (0 Bft) N-NW 331 0 min 0,000 mm 0,0 UV-I 0 W/m 0,0 C 0,0 km/h (0 Bft)
09.10.2016 07:17 0,6 C 0,6 C 97 % 1022,3 hPa 0,0 mm 0,0 km/h (0 Bft) N-NW 331 0 min 0,000 mm 0,0 UV-I 0 W/m 0,2 C 0,0 km/h (0 Bft)
09.10.2016 07:18 0,6 C 0,6 C 96 % 1022,4 hPa 0,0 mm 0,0 km/h (0 Bft) N-NW 331 0 min 0,000 mm 0,0 UV-I 0 W/m 0,0 C 0,0 km/h (0 Bft)
09.10.2016 07:19 0,6 C 0,6 C 96 % 1022,4 hPa 0,0 mm 0,0 km/h (0 Bft) N-NW 331 0 min 0,000 mm 0,0 UV-I 0 W/m 0,0 C 0,0 km/h (0 Bft)
09.10.2016 07:20 0,6 C 0,6 C 97 % 1022,3 hPa 0,0 mm 0,0 km/h (0 Bft) N-NW 331 0 min 0,000 mm 0,0 UV-I 0 W/m 0,2 C 0,0 km/h (0 Bft)
09.10.2016 07:21 0,6 C 0,6 C 96 % 1022,4 hPa 0,0 mm 0,3 km/h (0 Bft) N-NW 331 0 min 0,000 mm 0,0 UV-I 0 W/m 0,0 C 1,6 km/h (1 Bft)
09.10.2016 07:22 0,7 C 0,7 C 97 % 1022,4 hPa 0,0 mm 0,5 km/h (0 Bft) N-NW 331 0 min 0,000 mm 0,0 UV-I 0 W/m 0,3 C 1,6 km/h (1 Bft)
09.10.2016 07:23 0,7 C 0,7 C 97 % 1022,4 hPa 0,0 mm 0,2 km/h (0 Bft) N-NW 331 0 min 0,000 mm 0,0 UV-I 0 W/m 0,3 C 1,6 km/h (1 Bft)
09.10.2016 07:24 0,7 C 0,7 C 97 % 1022,4 hPa 0,0 mm 0,0 km/h (0 Bft) N-NW 331 0 min 0,000 mm 0,0 UV-I 0 W/m 0,3 C 0,0 km/h (0 Bft)
09.10.2016 07:25 0,8 C 0,8 C 97 % 1022,4 hPa 0,0 mm 0,1 km/h (0 Bft) N-NW 331 0 min 0,000 mm 0,0 UV-I 0 W/m 0,4 C 1,6 km/h (1 Bft)
09.10.2016 07:26 0,7 C 0,8 C 97 % 1022,4 hPa 0,0 mm 0,7 km/h (0 Bft) N-NW 331 0 min 0,000 mm 0,0 UV-I 0 W/m 0,3 C 1,6 km/h (1 Bft)
09.10.2016 07:27 0,6 C 0,7 C 97 % 1022,4 hPa 0,0 mm 0,0 km/h (0 Bft) N-NW 331 0 min 0,000 mm 0,0 UV-I 5 W/m 0,2 C 0,0 km/h (0 Bft)
09.10.2016 07:28 0,6 C 0,6 C 96 % 1022,3 hPa 0,0 mm 0,0 km/h (0 Bft) N-NW 331 0 min 0,000 mm 0,0 UV-I 5 W/m 0,0 C 0,0 km/h (0 Bft)
09.10.2016 07:29 0,6 C 0,6 C 96 % 1022,4 hPa 0,0 mm 0,0 km/h (0 Bft) N-NW 331 0 min 0,000 mm 0,0 UV-I 5 W/m 0,0 C 0,0 km/h (0 Bft)
09.10.2016 07:30 0,6 C 0,6 C 97 % 1022,4 hPa 0,0 mm 0,0 km/h (0 Bft) N-NW 331 0 min 0,000 mm 0,0 UV-I 5 W/m 0,2 C 0,0 km/h (0 Bft)
09.10.2016 07:31 0,6 C 0,6 C 97 % 1022,4 hPa 0,0 mm 0,0 km/h (0 Bft) N-NW 331 0 min 0,000 mm 0,0 UV-I 5 W/m 0,2 C 0,0 km/h (0 Bft)
09.10.2016 07:32 0,6 C 0,6 C 96 % 1022,4 hPa 0,0 mm 0,0 km/h (0 Bft) N-NW 331 0 min 0,000 mm 0,0 UV-I 7 W/m 0,0 C 0,0 km/h (0 Bft)
09.10.2016 07:33 0,6 C 0,6 C 96 % 1022,4 hPa 0,0 mm 0,0 km/h (0 Bft) N-NW 331 0 min 0,000 mm 0,0 UV-I 7 W/m 0,0 C 0,0 km/h (0 Bft)
09.10.2016 07:34 0,6 C 0,6 C 96 % 1022,4 hPa 0,0 mm 0,0 km/h (0 Bft) N-NW 331 0 min 0,000 mm 0,0 UV-I 7 W/m 0,0 C 0,0 km/h (0 Bft)
09.10.2016 07:35 0,6 C 0,6 C 96 % 1022,4 hPa 0,0 mm 0,0 km/h (0 Bft) N-NW 331 0 min 0,000 mm 0,0 UV-I 9 W/m 0,0 C 0,0 km/h (0 Bft)
09.10.2016 07:36 0,6 C 0,6 C 96 % 1022,4 hPa 0,0 mm 0,0 km/h (0 Bft) N-NW 331 0 min 0,000 mm 0,0 UV-I 9 W/m 0,0 C 0,0 km/h (0 Bft)
09.10.2016 07:37 0,6 C 0,6 C 96 % 1022,4 hPa 0,0 mm 0,0 km/h (0 Bft) N-NW 331 1 min 0,000 mm 0,0 UV-I 11 W/m 0,0 C 0,0 km/h (0 Bft)
09.10.2016 07:38 0,6 C 0,6 C 96 % 1022,4 hPa 0,0 mm 0,0 km/h (0 Bft) N-NW 331 1 min 0,000 mm 0,0 UV-I 11 W/m 0,0 C 0,0 km/h (0 Bft)
09.10.2016 07:39 0,6 C 0,6 C 96 % 1022,4 hPa 0,0 mm 0,0 km/h (0 Bft) N-NW 331 0 min 0,000 mm 0,0 UV-I 11 W/m 0,0 C 0,0 km/h (0 Bft)
09.10.2016 07:40 0,6 C 0,6 C 96 % 1022,4 hPa 0,0 mm 0,0 km/h (0 Bft) N-NW 331 0 min 0,000 mm 0,0 UV-I 11 W/m 0,0 C 0,0 km/h (0 Bft)
09.10.2016 07:41 0,6 C 0,6 C 96 % 1022,4 hPa 0,0 mm 0,0 km/h (0 Bft) N-NW 331 0 min 0,000 mm 0,0 UV-I 12 W/m 0,0 C 0,0 km/h (0 Bft)
09.10.2016 07:42 0,6 C 0,6 C 96 % 1022,5 hPa 0,0 mm 0,0 km/h (0 Bft) N-NW 331 0 min 0,000 mm 0,0 UV-I 12 W/m 0,0 C 0,0 km/h (0 Bft)
09.10.2016 07:43 0,6 C 0,6 C 96 % 1022,5 hPa 0,0 mm 0,0 km/h (0 Bft) N-NW 331 0 min 0,000 mm 0,0 UV-I 14 W/m 0,0 C 0,0 km/h (0 Bft)
09.10.2016 07:44 0,6 C 0,6 C 96 % 1022,5 hPa 0,0 mm 0,0 km/h (0 Bft) N-NW 331 0 min 0,000 mm 0,0 UV-I 14 W/m 0,0 C 0,0 km/h (0 Bft)
09.10.2016 07:45 0,6 C 0,6 C 96 % 1022,5 hPa 0,0 mm 0,0 km/h (0 Bft) N-NW 331 0 min 0,000 mm 0,0 UV-I 12 W/m 0,0 C 0,0 km/h (0 Bft)
09.10.2016 07:46 0,6 C 0,6 C 96 % 1022,5 hPa 0,0 mm 0,0 km/h (0 Bft) N-NW 331 0 min 0,000 mm 0,0 UV-I 14 W/m 0,0 C 0,0 km/h (0 Bft)
09.10.2016 07:47 0,6 C 0,6 C 96 % 1022,5 hPa 0,0 mm 0,7 km/h (0 Bft) N-NW 331 0 min 0,000 mm 0,0 UV-I 14 W/m 0,0 C 1,6 km/h (1 Bft)
09.10.2016 07:48 0,7 C 0,7 C 97 % 1022,5 hPa 0,0 mm 0,7 km/h (0 Bft) N-NW 331 0 min 0,000 mm 0,0 UV-I 14 W/m 0,3 C 1,6 km/h (1 Bft)
09.10.2016 07:49 0,7 C 0,7 C 97 % 1022,5 hPa 0,0 mm 0,4 km/h (0 Bft) N-NW 331 0 min 0,000 mm 0,0 UV-I 16 W/m 0,3 C 1,6 km/h (1 Bft)
09.10.2016 07:50 0,7 C 0,7 C 97 % 1022,5 hPa 0,0 mm 0,3 km/h (0 Bft) N-NW 331 0 min 0,000 mm 0,0 UV-I 16 W/m 0,3 C 1,6 km/h (1 Bft)
09.10.2016 07:51 0,8 C 0,8 C 97 % 1022,5 hPa 0,0 mm 1,1 km/h (1 Bft) N-NW 331 0 min 0,000 mm 0,0 UV-I 18 W/m 0,4 C 1,6 km/h (1 Bft)
09.10.2016 07:52 0,8 C 0,8 C 97 % 1022,5 hPa 0,0 mm 0,3 km/h (0 Bft) N-NW 331 0 min 0,000 mm 0,0 UV-I 18 W/m 0,4 C 1,6 km/h (1 Bft)
09.10.2016 07:53 0,8 C 0,8 C 97 % 1022,4 hPa 0,0 mm 0,0 km/h (0 Bft) N-NW 331 0 min 0,000 mm 0,0 UV-I 19 W/m 0,4 C 0,0 km/h (0 Bft)
09.10.2016 07:54 0,9 C 0,9 C 97 % 1022,4 hPa 0,0 mm 0,0 km/h (0 Bft) N-NW 331 0 min 0,000 mm 0,0 UV-I 21 W/m 0,5 C 0,0 km/h (0 Bft)
09.10.2016 07:55 0,9 C 0,9 C 97 % 1022,4 hPa 0,0 mm 0,0 km/h (0 Bft) N-NW 331 0 min 0,000 mm 0,0 UV-I 23 W/m 0,5 C 0,0 km/h (0 Bft)
09.10.2016 07:56 0,8 C 0,9 C 97 % 1022,4 hPa 0,0 mm 0,0 km/h (0 Bft) N-NW 331 0 min 0,000 mm 0,0 UV-I 25 W/m 0,4 C 0,0 km/h (0 Bft)
09.10.2016 07:57 0,7 C 0,8 C 97 % 1022,4 hPa 0,0 mm 0,0 km/h (0 Bft) N-NW 331 0 min 0,000 mm 0,0 UV-I 25 W/m 0,3 C 0,0 km/h (0 Bft)
09.10.2016 07:58 0,7 C 0,8 C 97 % 1022,4 hPa 0,0 mm 0,0 km/h (0 Bft) N-NW 331 0 min 0,000 mm 0,0 UV-I 26 W/m 0,3 C 0,0 km/h (0 Bft)
09.10.2016 07:59 0,7 C 0,7 C 97 % 1022,4 hPa 0,0 mm 0,0 km/h (0 Bft) N-NW 331 0 min 0,000 mm 0,0 UV-I 26 W/m 0,3 C 0,0 km/h (0 Bft)
09.10.2016 08:00 0,8 C 0,8 C 97 % 1022,5 hPa 0,0 mm 0,6 km/h (0 Bft) N-NW 331 0 min 0,000 mm 0,0 UV-I 26 W/m 0,4 C 1,6 km/h (1 Bft)
09.10.2016 08:01 0,7 C 0,8 C 97 % 1022,4 hPa 0,0 mm 0,1 km/h (0 Bft) N-NW 331 0 min 0,000 mm 0,0 UV-I 30 W/m 0,3 C 1,6 km/h (1 Bft)
09.10.2016 08:02 0,7 C 0,7 C 97 % 1022,4 hPa 0,0 mm 0,0 km/h (0 Bft) N-NW 331 0 min 0,000 mm 0,0 UV-I 30 W/m 0,3 C 0,0 km/h (0 Bft)
09.10.2016 08:03 0,7 C 0,7 C 97 % 1022,4 hPa 0,0 mm 0,0 km/h (0 Bft) N-NW 331 0 min 0,000 mm 0,0 UV-I 32 W/m 0,3 C 0,0 km/h (0 Bft)
09.10.2016 08:04 0,7 C 0,7 C 97 % 1022,4 hPa 0,0 mm 0,0 km/h (0 Bft) N-NW 331 0 min 0,000 mm 0,0 UV-I 33 W/m 0,3 C 0,0 km/h (0 Bft)
09.10.2016 08:05 0,7 C 0,7 C 97 % 1022,4 hPa 0,0 mm 0,0 km/h (0 Bft) N-NW 331 0 min 0,000 mm 0,0 UV-I 33 W/m 0,3 C 0,0 km/h (0 Bft)
09.10.2016 08:06 0,7 C 0,7 C 97 % 1022,4 hPa 0,0 mm 0,0 km/h (0 Bft) N-NW 331 0 min 0,000 mm 0,0 UV-I 35 W/m 0,3 C 0,0 km/h (0 Bft)
09.10.2016 08:07 0,8 C 0,8 C 97 % 1022,4 hPa 0,0 mm 0,1 km/h (0 Bft) N-NW 331 0 min 0,000 mm 0,0 UV-I 35 W/m 0,4 C 1,6 km/h (1 Bft)
09.10.2016 08:08 0,9 C 0,9 C 97 % 1022,4 hPa 0,0 mm 0,0 km/h (0 Bft) N-NW 331 0 min 0,000 mm 0,0 UV-I 35 W/m 0,5 C 0,0 km/h (0 Bft)
09.10.2016 08:09 1,0 C 1,0 C 97 % 1022,4 hPa 0,0 mm 0,1 km/h (0 Bft) N-NW 331 0 min 0,000 mm 0,0 UV-I 37 W/m 0,6 C 1,6 km/h (1 Bft)
09.10.2016 08:10 1,1 C 1,1 C 97 % 1022,4 hPa 0,0 mm 0,0 km/h (0 Bft) N-NW 331 0 min 0,000 mm 0,0 UV-I 35 W/m 0,7 C 0,0 km/h (0 Bft)
09.10.2016 08:11 1,1 C 1,1 C 97 % 1022,4 hPa 0,0 mm 0,0 km/h (0 Bft) N-NW 331 0 min 0,000 mm 0,0 UV-I 35 W/m 0,7 C 0,0 km/h (0 Bft)
09.10.2016 08:12 1,1 C 1,1 C 97 % 1022,4 hPa 0,0 mm 0,0 km/h (0 Bft) N-NW 331 0 min 0,000 mm 0,0 UV-I 37 W/m 0,7 C 0,0 km/h (0 Bft)
09.10.2016 08:13 1,1 C 1,1 C 97 % 1022,4 hPa 0,0 mm 0,0 km/h (0 Bft) N-NW 331 0 min 0,000 mm 0,0 UV-I 39 W/m 0,7 C 0,0 km/h (0 Bft)
09.10.2016 08:14 1,1 C 1,1 C 97 % 1022,4 hPa 0,0 mm 0,0 km/h (0 Bft) N-NW 331 0 min 0,000 mm 0,0 UV-I 39 W/m 0,7 C 0,0 km/h (0 Bft)
09.10.2016 08:15 1,2 C 1,2 C 97 % 1022,4 hPa 0,0 mm 0,0 km/h (0 Bft) N-NW 331 0 min 0,000 mm 0,0 UV-I 40 W/m 0,8 C 0,0 km/h (0 Bft)
09.10.2016 08:16 1,1 C 1,2 C 97 % 1022,4 hPa 0,0 mm 0,1 km/h (0 Bft) N-NW 331 0 min 0,000 mm 0,0 UV-I 39 W/m 0,7 C 1,6 km/h (1 Bft)
09.10.2016 08:17 1,1 C 1,1 C 97 % 1022,4 hPa 0,0 mm 0,6 km/h (0 Bft) N-NW 331 0 min 0,000 mm 0,0 UV-I 39 W/m 0,7 C 1,6 km/h (1 Bft)
09.10.2016 08:18 1,1 C 1,1 C 97 % 1022,4 hPa 0,0 mm 1,4 km/h (1 Bft) N-NW 331 0 min 0,000 mm 0,0 UV-I 40 W/m 0,7 C 1,6 km/h (1 Bft)
09.10.2016 08:19 1,0 C 1,1 C 97 % 1022,4 hPa 0,0 mm 1,4 km/h (1 Bft) N-NW 331 0 min 0,000 mm 0,0 UV-I 44 W/m 0,6 C 1,6 km/h (1 Bft)
09.10.2016 08:20 1,0 C 1,1 C 97 % 1022,5 hPa 0,0 mm 0,2 km/h (0 Bft) N-NW 331 0 min 0,000 mm 0,0 UV-I 44 W/m 0,6 C 1,6 km/h (1 Bft)
09.10.2016 08:21 1,0 C 1,0 C 97 % 1022,4 hPa 0,0 mm 0,8 km/h (0 Bft) N-NW 331 0 min 0,000 mm 0,0 UV-I 44 W/m 0,6 C 1,6 km/h (1 Bft)
09.10.2016 08:22 1,0 C 1,0 C 97 % 1022,4 hPa 0,0 mm 0,0 km/h (0 Bft) N-NW 331 0 min 0,000 mm 0,0 UV-I 44 W/m 0,6 C 0,0 km/h (0 Bft)
09.10.2016 08:23 1,0 C 1,0 C 97 % 1022,5 hPa 0,0 mm 0,0 km/h (0 Bft) N-NW 331 0 min 0,000 mm 0,0 UV-I 42 W/m 0,6 C 0,0 km/h (0 Bft)
09.10.2016 08:24 1,0 C 1,0 C 97 % 1022,4 hPa 0,0 mm 0,0 km/h (0 Bft) N-NW 331 0 min 0,000 mm 0,0 UV-I 42 W/m 0,6 C 0,0 km/h (0 Bft)
09.10.2016 08:25 1,0 C 1,0 C 97 % 1022,5 hPa 0,0 mm 0,0 km/h (0 Bft) N-NW 331 0 min 0,000 mm 0,0 UV-I 42 W/m 0,6 C 0,0 km/h (0 Bft)
09.10.2016 08:26 0,9 C 1,0 C 97 % 1022,5 hPa 0,0 mm 0,1 km/h (0 Bft) N-NW 331 0 min 0,000 mm 0,0 UV-I 42 W/m 0,5 C 1,6 km/h (1 Bft)
09.10.2016 08:27 0,9 C 0,9 C 97 % 1022,5 hPa 0,0 mm 0,0 km/h (0 Bft) N-NW 331 0 min 0,000 mm 0,0 UV-I 40 W/m 0,5 C 0,0 km/h (0 Bft)
09.10.2016 08:28 0,9 C 0,9 C 97 % 1022,5 hPa 0,0 mm 0,0 km/h (0 Bft) N-NW 331 0 min 0,000 mm 0,0 UV-I 40 W/m 0,5 C 0,0 km/h (0 Bft)
09.10.2016 08:29 0,9 C 0,9 C 97 % 1022,5 hPa 0,0 mm 0,2 km/h (0 Bft) N-NW 331 0 min 0,000 mm 0,0 UV-I 40 W/m 0,5 C 1,6 km/h (1 Bft)
09.10.2016 08:30 0,9 C 0,9 C 97 % 1022,5 hPa 0,0 mm 0,3 km/h (0 Bft) N-NW 331 0 min 0,000 mm 0,0 UV-I 40 W/m 0,5 C 1,6 km/h (1 Bft)
09.10.2016 08:31 0,9 C 0,9 C 97 % 1022,5 hPa 0,0 mm 0,1 km/h (0 Bft) N-NW 331 0 min 0,000 mm 0,0 UV-I 40 W/m 0,5 C 1,6 km/h (1 Bft)
09.10.2016 08:32 0,9 C 0,9 C 97 % 1022,6 hPa 0,0 mm 0,0 km/h (0 Bft) N-NW 331 0 min 0,000 mm 0,0 UV-I 40 W/m 0,5 C 0,0 km/h (0 Bft)
09.10.2016 08:33 0,9 C 0,9 C 97 % 1022,5 hPa 0,0 mm 0,0 km/h (0 Bft) N-NW 331 0 min 0,000 mm 0,0 UV-I 40 W/m 0,5 C 0,0 km/h (0 Bft)
09.10.2016 08:34 0,9 C 0,9 C 97 % 1022,5 hPa 0,0 mm 0,0 km/h (0 Bft) N-NW 331 0 min 0,000 mm 0,0 UV-I 40 W/m 0,5 C 0,0 km/h (0 Bft)
09.10.2016 08:35 0,9 C 0,9 C 97 % 1022,6 hPa 0,0 mm 0,0 km/h (0 Bft) N-NW 331 0 min 0,000 mm 0,0 UV-I 42 W/m 0,5 C 0,0 km/h (0 Bft)
09.10.2016 08:36 0,9 C 0,9 C 97 % 1022,5 hPa 0,0 mm 0,0 km/h (0 Bft) N-NW 331 0 min 0,000 mm 0,0 UV-I 47 W/m 0,5 C 0,0 km/h (0 Bft)
09.10.2016 08:37 0,9 C 0,9 C 97 % 1022,5 hPa 0,0 mm 0,2 km/h (0 Bft) N-NW 331 0 min 0,000 mm 0,0 UV-I 47 W/m 0,5 C 1,6 km/h (1 Bft)
09.10.2016 08:38 0,9 C 0,9 C 97 % 1022,6 hPa 0,0 mm 0,0 km/h (0 Bft) N-NW 331 0 min 0,000 mm 0,0 UV-I 49 W/m 0,5 C 0,0 km/h (0 Bft)
09.10.2016 08:39 0,9 C 0,9 C 97 % 1022,6 hPa 0,0 mm 0,3 km/h (0 Bft) N-NW 331 0 min 0,000 mm 0,0 UV-I 53 W/m 0,5 C 1,6 km/h (1 Bft)
09.10.2016 08:40 0,9 C 0,9 C 97 % 1022,6 hPa 0,0 mm 0,2 km/h (0 Bft) N-NW 331 0 min 0,000 mm 0,0 UV-I 56 W/m 0,5 C 1,6 km/h (1 Bft)
09.10.2016 08:41 0,9 C 0,9 C 97 % 1022,6 hPa 0,0 mm 0,0 km/h (0 Bft) N-NW 331 0 min 0,000 mm 0,0 UV-I 60 W/m 0,5 C 0,0 km/h (0 Bft)
09.10.2016 08:42 0,9 C 0,9 C 97 % 1022,6 hPa 0,0 mm 0,0 km/h (0 Bft) N-NW 331 0 min 0,000 mm 0,0 UV-I 67 W/m 0,5 C 0,0 km/h (0 Bft)
09.10.2016 08:43 0,9 C 1,0 C 97 % 1022,6 hPa 0,0 mm 0,0 km/h (0 Bft) N-NW 331 0 min 0,000 mm 0,0 UV-I 65 W/m 0,5 C 0,0 km/h (0 Bft)
09.10.2016 08:44 1,0 C 1,0 C 97 % 1022,6 hPa 0,0 mm 0,0 km/h (0 Bft) N-NW 331 0 min 0,000 mm 0,0 UV-I 62 W/m 0,6 C 0,0 km/h (0 Bft)
09.10.2016 08:45 1,0 C 1,1 C 97 % 1022,5 hPa 0,0 mm 0,2 km/h (0 Bft) N-NW 331 0 min 0,000 mm 0,0 UV-I 62 W/m 0,6 C 1,6 km/h (1 Bft)
09.10.2016 08:46 1,0 C 1,1 C 97 % 1022,5 hPa 0,0 mm 0,0 km/h (0 Bft) N-NW 331 0 min 0,000 mm 0,0 UV-I 63 W/m 0,6 C 0,0 km/h (0 Bft)
09.10.2016 08:47 1,0 C 1,1 C 97 % 1022,5 hPa 0,0 mm 0,3 km/h (0 Bft) N-NO 26 0 min 0,000 mm 0,0 UV-I 63 W/m 0,6 C 1,6 km/h (1 Bft)
09.10.2016 08:48 1,0 C 1,0 C 97 % 1022,6 hPa 0,0 mm 1,5 km/h (1 Bft) N-NO 26 0 min 0,000 mm 0,5 UV-I 65 W/m 0,6 C 3,2 km/h (1 Bft)
09.10.2016 08:49 1,1 C 1,1 C 97 % 1022,6 hPa 0,0 mm 0,5 km/h (0 Bft) N-NO 26 0 min 0,000 mm 0,5 UV-I 65 W/m 0,7 C 1,6 km/h (1 Bft)
09.10.2016 08:50 1,1 C 1,1 C 97 % 1022,6 hPa 0,0 mm 0,8 km/h (0 Bft) N-NO 26 0 min 0,000 mm 0,5 UV-I 69 W/m 0,7 C 1,6 km/h (1 Bft)
09.10.2016 08:51 1,1 C 1,1 C 97 % 1022,6 hPa 0,0 mm 1,6 km/h (1 Bft) N-NO 26 0 min 0,000 mm 0,5 UV-I 69 W/m 0,7 C 1,6 km/h (1 Bft)
09.10.2016 08:52 1,1 C 1,1 C 97 % 1022,6 hPa 0,0 mm 1,7 km/h (1 Bft) N-NO 26 0 min 0,000 mm 0,5 UV-I 70 W/m 0,7 C 3,2 km/h (1 Bft)
09.10.2016 08:53 1,2 C 1,2 C 97 % 1022,6 hPa 0,0 mm 0,9 km/h (0 Bft) N-NO 26 0 min 0,000 mm 0,5 UV-I 70 W/m 0,8 C 1,6 km/h (1 Bft)
09.10.2016 08:54 1,2 C 1,2 C 97 % 1022,6 hPa 0,0 mm 2,4 km/h (1 Bft) NO 46 0 min 0,000 mm 0,5 UV-I 69 W/m 0,8 C 3,2 km/h (1 Bft)
09.10.2016 08:55 1,3 C 1,3 C 97 % 1022,6 hPa 0,0 mm 1,5 km/h (1 Bft) NO 46 0 min 0,000 mm 0,5 UV-I 69 W/m 0,9 C 3,2 km/h (1 Bft)
09.10.2016 08:56 1,3 C 1,3 C 97 % 1022,6 hPa 0,0 mm 1,3 km/h (1 Bft) NO 46 0 min 0,000 mm 0,5 UV-I 67 W/m 0,9 C 1,6 km/h (1 Bft)
09.10.2016 08:57 1,3 C 1,3 C 97 % 1022,6 hPa 0,0 mm 1,6 km/h (1 Bft) NO 46 0 min 0,000 mm 0,5 UV-I 69 W/m 0,9 C 1,6 km/h (1 Bft)
09.10.2016 08:58 1,3 C 1,3 C 97 % 1022,6 hPa 0,0 mm 1,7 km/h (1 Bft) NO 46 0 min 0,000 mm 0,5 UV-I 70 W/m 0,9 C 3,2 km/h (1 Bft)
09.10.2016 08:59 1,3 C 1,3 C 97 % 1022,6 hPa 0,0 mm 1,9 km/h (1 Bft) NO 46 0 min 0,000 mm 0,5 UV-I 74 W/m 0,9 C 3,2 km/h (1 Bft)
09.10.2016 09:00 1,3 C 1,3 C 97 % 1022,6 hPa 0,0 mm 0,1 km/h (0 Bft) NO 46 0 min 0,000 mm 0,5 UV-I 76 W/m 0,9 C 1,6 km/h (1 Bft)
09.10.2016 09:01 1,3 C 1,3 C 97 % 1022,6 hPa 0,0 mm 1,5 km/h (1 Bft) NO 46 0 min 0,025 mm 0,5 UV-I 81 W/m 0,9 C 3,2 km/h (1 Bft)
09.10.2016 09:02 1,3 C 1,3 C 97 % 1022,6 hPa 0,0 mm 1,2 km/h (1 Bft) NO 46 0 min 0,000 mm 0,6 UV-I 81 W/m 0,9 C 1,6 km/h (1 Bft)
09.10.2016 09:03 1,3 C 1,3 C 97 % 1022,7 hPa 0,0 mm 1,3 km/h (1 Bft) NO 46 0 min 0,000 mm 0,6 UV-I 88 W/m 0,9 C 1,6 km/h (1 Bft)
09.10.2016 09:04 1,3 C 1,3 C 97 % 1022,6 hPa 0,0 mm 0,9 km/h (0 Bft) NO 46 0 min 0,000 mm 0,6 UV-I 83 W/m 0,9 C 1,6 km/h (1 Bft)
09.10.2016 09:05 1,3 C 1,3 C 97 % 1022,6 hPa 0,0 mm 0,2 km/h (0 Bft) NO 46 0 min 0,000 mm 0,6 UV-I 83 W/m 0,9 C 1,6 km/h (1 Bft)
09.10.2016 09:06 1,3 C 1,3 C 97 % 1022,5 hPa 0,0 mm 0,1 km/h (0 Bft) NO 46 0 min 0,000 mm 0,6 UV-I 95 W/m 0,9 C 1,6 km/h (1 Bft)
09.10.2016 09:07 1,4 C 1,4 C 97 % 1022,5 hPa 0,0 mm 0,1 km/h (0 Bft) NO 46 0 min 0,000 mm 0,6 UV-I 95 W/m 1,0 C 1,6 km/h (1 Bft)
09.10.2016 09:08 1,4 C 1,4 C 97 % 1022,6 hPa 0,0 mm 1,0 km/h (0 Bft) NO 46 0 min 0,000 mm 0,6 UV-I 91 W/m 1,0 C 1,6 km/h (1 Bft)
09.10.2016 09:09 1,4 C 1,4 C 97 % 1022,6 hPa 0,0 mm 1,0 km/h (0 Bft) NO 46 0 min 0,000 mm 0,6 UV-I 90 W/m 1,0 C 1,6 km/h (1 Bft)
09.10.2016 09:10 1,4 C 1,4 C 97 % 1022,6 hPa 0,0 mm 0,2 km/h (0 Bft) NO 46 0 min 0,000 mm 0,7 UV-I 84 W/m 1,0 C 1,6 km/h (1 Bft)
09.10.2016 09:11 1,4 C 1,4 C 97 % 1022,6 hPa 0,0 mm 0,0 km/h (0 Bft) NO 46 0 min 0,000 mm 0,7 UV-I 79 W/m 1,0 C 0,0 km/h (0 Bft)
09.10.2016 09:12 1,4 C 1,4 C 97 % 1022,6 hPa 0,0 mm 0,0 km/h (0 Bft) NO 46 0 min 0,000 mm 0,7 UV-I 77 W/m 1,0 C 0,0 km/h (0 Bft)
09.10.2016 09:13 1,5 C 1,5 C 97 % 1022,6 hPa 0,0 mm 0,0 km/h (0 Bft) NO 46 0 min 0,000 mm 0,7 UV-I 76 W/m 1,1 C 0,0 km/h (0 Bft)
09.10.2016 09:14 1,6 C 1,6 C 97 % 1022,6 hPa 0,0 mm 0,0 km/h (0 Bft) NO 46 0 min 0,000 mm 0,7 UV-I 72 W/m 1,2 C 0,0 km/h (0 Bft)
09.10.2016 09:15 1,5 C 1,6 C 97 % 1022,6 hPa 0,0 mm 0,0 km/h (0 Bft) NO 46 0 min 0,000 mm 0,7 UV-I 69 W/m 1,1 C 0,0 km/h (0 Bft)
09.10.2016 09:16 1,5 C 1,5 C 97 % 1022,6 hPa 0,0 mm 0,0 km/h (0 Bft) NO 46 0 min 0,000 mm 0,7 UV-I 69 W/m 1,1 C 0,0 km/h (0 Bft)
09.10.2016 09:17 1,6 C 1,6 C 97 % 1022,6 hPa 0,0 mm 0,1 km/h (0 Bft) NO 46 0 min 0,000 mm 0,7 UV-I 67 W/m 1,2 C 1,6 km/h (1 Bft)
09.10.2016 09:18 1,6 C 1,6 C 97 % 1022,5 hPa 0,0 mm 0,1 km/h (0 Bft) NO 46 0 min 0,000 mm 0,7 UV-I 69 W/m 1,2 C 1,6 km/h (1 Bft)
09.10.2016 09:19 1,6 C 1,6 C 97 % 1022,5 hPa 0,0 mm 0,0 km/h (0 Bft) NO 46 0 min 0,000 mm 0,7 UV-I 70 W/m 1,2 C 0,0 km/h (0 Bft)
09.10.2016 09:20 1,7 C 1,7 C 97 % 1022,5 hPa 0,0 mm 0,0 km/h (0 Bft) NO 46 0 min 0,000 mm 0,7 UV-I 63 W/m 1,3 C 0,0 km/h (0 Bft)
09.10.2016 09:21 1,7 C 1,7 C 97 % 1022,6 hPa 0,0 mm 0,0 km/h (0 Bft) NO 46 0 min 0,000 mm 0,7 UV-I 74 W/m 1,3 C 0,0 km/h (0 Bft)
09.10.2016 09:22 1,7 C 1,7 C 97 % 1022,6 hPa 0,0 mm 0,8 km/h (0 Bft) NO 46 0 min 0,000 mm 0,7 UV-I 69 W/m 1,3 C 1,6 km/h (1 Bft)
09.10.2016 09:23 1,8 C 1,8 C 97 % 1022,6 hPa 0,0 mm 0,7 km/h (0 Bft) NO 46 0 min 0,000 mm 0,7 UV-I 72 W/m 1,4 C 1,6 km/h (1 Bft)
09.10.2016 09:24 1,8 C 1,8 C 97 % 1022,6 hPa 0,0 mm 0,0 km/h (0 Bft) NO 46 0 min 0,000 mm 0,7 UV-I 69 W/m 1,4 C 0,0 km/h (0 Bft)
09.10.2016 09:25 1,8 C 1,8 C 97 % 1022,6 hPa 0,0 mm 0,0 km/h (0 Bft) NO 46 0 min 0,000 mm 0,7 UV-I 69 W/m 1,4 C 0,0 km/h (0 Bft)
09.10.2016 09:26 1,9 C 1,9 C 97 % 1022,6 hPa 0,0 mm 0,0 km/h (0 Bft) NO 46 0 min 0,000 mm 0,7 UV-I 69 W/m 1,5 C 0,0 km/h (0 Bft)
09.10.2016 09:27 1,9 C 1,9 C 97 % 1022,6 hPa 0,0 mm 0,0 km/h (0 Bft) NO 46 0 min 0,000 mm 0,7 UV-I 69 W/m 1,5 C 0,0 km/h (0 Bft)
09.10.2016 09:28 1,9 C 1,9 C 97 % 1022,6 hPa 0,0 mm 0,0 km/h (0 Bft) NO 46 0 min 0,000 mm 0,7 UV-I 69 W/m 1,5 C 0,0 km/h (0 Bft)
09.10.2016 09:29 2,0 C 2,0 C 97 % 1022,6 hPa 0,0 mm 0,0 km/h (0 Bft) NO 46 0 min 0,000 mm 0,8 UV-I 62 W/m 1,6 C 0,0 km/h (0 Bft)
09.10.2016 09:30 2,0 C 2,0 C 97 % 1022,7 hPa 0,0 mm 0,0 km/h (0 Bft) NO 46 0 min 0,000 mm 0,8 UV-I 62 W/m 1,6 C 0,0 km/h (0 Bft)
09.10.2016 09:31 2,1 C 2,1 C 97 % 1022,7 hPa 0,0 mm 0,0 km/h (0 Bft) NO 46 0 min 0,000 mm 0,8 UV-I 62 W/m 1,7 C 0,0 km/h (0 Bft)
09.10.2016 09:32 2,1 C 2,1 C 97 % 1022,7 hPa 0,0 mm 0,0 km/h (0 Bft) NO 46 0 min 0,000 mm 0,8 UV-I 62 W/m 1,7 C 0,0 km/h (0 Bft)
09.10.2016 09:33 2,1 C 2,1 C 97 % 1022,7 hPa 0,0 mm 0,0 km/h (0 Bft) NO 46 0 min 0,000 mm 0,8 UV-I 60 W/m 1,7 C 0,0 km/h (0 Bft)
09.10.2016 09:34 2,1 C 2,2 C 97 % 1022,6 hPa 0,0 mm 0,0 km/h (0 Bft) NO 46 0 min 0,000 mm 0,8 UV-I 60 W/m 1,7 C 0,0 km/h (0 Bft)
09.10.2016 09:35 2,2 C 2,2 C 97 % 1022,6 hPa 0,0 mm 0,0 km/h (0 Bft) NO 46 0 min 0,000 mm 0,8 UV-I 65 W/m 1,8 C 0,0 km/h (0 Bft)
09.10.2016 09:36 2,2 C 2,2 C 97 % 1022,6 hPa 0,0 mm 0,0 km/h (0 Bft) NO 46 0 min 0,000 mm 0,8 UV-I 65 W/m 1,8 C 0,0 km/h (0 Bft)
09.10.2016 09:37 2,2 C 2,2 C 97 % 1022,7 hPa 0,0 mm 0,0 km/h (0 Bft) NO 46 0 min 0,000 mm 0,8 UV-I 67 W/m 1,8 C 0,0 km/h (0 Bft)
09.10.2016 09:38 2,3 C 2,3 C 97 % 1022,6 hPa 0,0 mm 0,0 km/h (0 Bft) NO 46 0 min 0,000 mm 0,8 UV-I 67 W/m 1,9 C 0,0 km/h (0 Bft)
09.10.2016 09:39 2,3 C 2,3 C 97 % 1022,7 hPa 0,0 mm 0,0 km/h (0 Bft) NO 46 0 min 0,000 mm 0,9 UV-I 67 W/m 1,9 C 0,0 km/h (0 Bft)
09.10.2016 09:40 2,3 C 2,3 C 97 % 1022,6 hPa 0,0 mm 0,0 km/h (0 Bft) NO 46 0 min 0,000 mm 0,9 UV-I 67 W/m 1,9 C 0,0 km/h (0 Bft)
09.10.2016 09:41 2,3 C 2,3 C 97 % 1022,6 hPa 0,0 mm 0,0 km/h (0 Bft) NO 46 0 min 0,000 mm 0,9 UV-I 69 W/m 1,9 C 0,0 km/h (0 Bft)
09.10.2016 09:42 2,4 C 2,4 C 97 % 1022,7 hPa 0,0 mm 0,0 km/h (0 Bft) NO 46 0 min 0,000 mm 0,9 UV-I 69 W/m 2,0 C 0,0 km/h (0 Bft)
09.10.2016 09:43 2,4 C 2,4 C 97 % 1022,6 hPa 0,0 mm 0,0 km/h (0 Bft) NO 46 0 min 0,000 mm 0,9 UV-I 69 W/m 2,0 C 0,0 km/h (0 Bft)
09.10.2016 09:44 2,4 C 2,4 C 97 % 1022,6 hPa 0,0 mm 0,0 km/h (0 Bft) NO 46 0 min 0,000 mm 0,9 UV-I 70 W/m 2,0 C 0,0 km/h (0 Bft)
09.10.2016 09:45 2,4 C 2,4 C 97 % 1022,6 hPa 0,0 mm 0,0 km/h (0 Bft) NO 46 0 min 0,000 mm 0,9 UV-I 72 W/m 2,0 C 0,0 km/h (0 Bft)
09.10.2016 09:46 2,4 C 2,4 C 97 % 1022,6 hPa 0,0 mm 0,0 km/h (0 Bft) NO 46 0 min 0,000 mm 0,9 UV-I 74 W/m 2,0 C 0,0 km/h (0 Bft)
09.10.2016 09:47 2,5 C 2,5 C 97 % 1022,6 hPa 0,0 mm 0,0 km/h (0 Bft) NO 46 0 min 0,000 mm 0,9 UV-I 74 W/m 2,1 C 0,0 km/h (0 Bft)
09.10.2016 09:48 2,6 C 2,6 C 97 % 1022,6 hPa 0,0 mm 0,0 km/h (0 Bft) NO 46 0 min 0,000 mm 0,9 UV-I 74 W/m 2,2 C 0,0 km/h (0 Bft)
09.10.2016 09:49 2,6 C 2,6 C 97 % 1022,6 hPa 0,0 mm 0,0 km/h (0 Bft) NO 46 0 min 0,000 mm 0,9 UV-I 76 W/m 2,2 C 0,0 km/h (0 Bft)
09.10.2016 09:50 2,7 C 2,7 C 97 % 1022,6 hPa 0,0 mm 0,0 km/h (0 Bft) NO 46 0 min 0,000 mm 0,9 UV-I 76 W/m 2,3 C 0,0 km/h (0 Bft)
09.10.2016 09:51 2,7 C 2,7 C 97 % 1022,6 hPa 0,0 mm 0,0 km/h (0 Bft) NO 46 0 min 0,000 mm 0,9 UV-I 86 W/m 2,3 C 0,0 km/h (0 Bft)
09.10.2016 09:52 2,7 C 2,7 C 97 % 1022,6 hPa 0,0 mm 0,0 km/h (0 Bft) NO 46 0 min 0,000 mm 1,0 UV-I 84 W/m 2,3 C 0,0 km/h (0 Bft)
09.10.2016 09:53 2,8 C 2,8 C 97 % 1022,6 hPa 0,0 mm 0,0 km/h (0 Bft) NO 46 0 min 0,000 mm 0,9 UV-I 72 W/m 2,4 C 0,0 km/h (0 Bft)
09.10.2016 09:54 2,8 C 2,8 C 97 % 1022,5 hPa 0,0 mm 0,0 km/h (0 Bft) NO 46 0 min 0,000 mm 0,9 UV-I 67 W/m 2,4 C 0,0 km/h (0 Bft)
09.10.2016 09:55 2,8 C 2,8 C 97 % 1022,6 hPa 0,0 mm 0,0 km/h (0 Bft) NO 46 0 min 0,000 mm 0,9 UV-I 62 W/m 2,4 C 0,0 km/h (0 Bft)
09.10.2016 09:56 2,9 C 2,9 C 97 % 1022,5 hPa 0,0 mm 0,0 km/h (0 Bft) NO 46 0 min 0,000 mm 0,9 UV-I 56 W/m 2,5 C 0,0 km/h (0 Bft)
09.10.2016 09:57 2,9 C 2,9 C 97 % 1022,6 hPa 0,0 mm 0,0 km/h (0 Bft) NO 46 0 min 0,000 mm 0,9 UV-I 54 W/m 2,5 C 0,0 km/h (0 Bft)
09.10.2016 09:58 3,0 C 3,0 C 97 % 1022,6 hPa 0,0 mm 0,0 km/h (0 Bft) NO 46 0 min 0,000 mm 0,0 UV-I 56 W/m 2,6 C 0,0 km/h (0 Bft)
09.10.2016 09:59 3,0 C 3,0 C 97 % 1022,5 hPa 0,0 mm 0,0 km/h (0 Bft) NO 46 0 min 0,000 mm 1,0 UV-I 63 W/m 2,6 C 0,0 km/h (0 Bft)
09.10.2016 10:00 3,1 C 3,1 C 97 % 1022,5 hPa 0,0 mm 0,0 km/h (0 Bft) NO 46 0 min 0,000 mm 1,0 UV-I 81 W/m 2,7 C 0,0 km/h (0 Bft)
09.10.2016 10:01 3,1 C 3,1 C 97 % 1022,5 hPa 0,0 mm 0,0 km/h (0 Bft) NO 46 0 min 0,025 mm 1,0 UV-I 84 W/m 2,7 C 0,0 km/h (0 Bft)
09.10.2016 10:02 3,2 C 3,2 C 97 % 1022,5 hPa 0,0 mm 0,0 km/h (0 Bft) NO 46 0 min 0,001 mm 1,0 UV-I 77 W/m 2,8 C 0,0 km/h (0 Bft)
09.10.2016 10:03 3,3 C 3,3 C 97 % 1022,5 hPa 0,0 mm 0,0 km/h (0 Bft) NO 46 0 min 0,000 mm 1,0 UV-I 72 W/m 2,9 C 0,0 km/h (0 Bft)
09.10.2016 10:04 3,3 C 3,3 C 97 % 1022,6 hPa 0,0 mm 0,0 km/h (0 Bft) NO 46 0 min 0,000 mm 1,0 UV-I 81 W/m 2,9 C 0,0 km/h (0 Bft)
09.10.2016 10:05 3,3 C 3,3 C 97 % 1022,5 hPa 0,0 mm 0,0 km/h (0 Bft) NO 46 0 min 0,000 mm 1,0 UV-I 79 W/m 2,9 C 0,0 km/h (0 Bft)
09.10.2016 10:06 3,4 C 3,4 C 97 % 1022,6 hPa 0,0 mm 0,0 km/h (0 Bft) NO 46 0 min 0,000 mm 1,0 UV-I 76 W/m 3,0 C 0,0 km/h (0 Bft)
09.10.2016 10:07 3,4 C 3,4 C 97 % 1022,5 hPa 0,0 mm 0,0 km/h (0 Bft) NO 46 0 min 0,000 mm 1,0 UV-I 77 W/m 3,0 C 0,0 km/h (0 Bft)
09.10.2016 10:08 3,5 C 3,5 C 97 % 1022,5 hPa 0,0 mm 0,0 km/h (0 Bft) NO 46 0 min 0,000 mm 1,0 UV-I 76 W/m 3,1 C 0,0 km/h (0 Bft)
09.10.2016 10:09 3,6 C 3,6 C 97 % 1022,5 hPa 0,0 mm 0,0 km/h (0 Bft) NO 46 0 min 0,000 mm 1,0 UV-I 77 W/m 3,2 C 0,0 km/h (0 Bft)
09.10.2016 10:10 3,6 C 3,6 C 97 % 1022,5 hPa 0,0 mm 0,0 km/h (0 Bft) NO 46 0 min 0,000 mm 1,0 UV-I 77 W/m 3,2 C 0,0 km/h (0 Bft)
09.10.2016 10:11 3,6 C 3,6 C 97 % 1022,5 hPa 0,0 mm 0,0 km/h (0 Bft) NO 46 0 min 0,000 mm 1,1 UV-I 76 W/m 3,2 C 0,0 km/h (0 Bft)
09.10.2016 10:12 3,7 C 3,7 C 97 % 1022,5 hPa 0,0 mm 0,0 km/h (0 Bft) NO 46 0 min 0,000 mm 1,1 UV-I 74 W/m 3,3 C 0,0 km/h (0 Bft)
09.10.2016 10:13 3,7 C 3,7 C 97 % 1022,5 hPa 0,0 mm 0,0 km/h (0 Bft) NO 46 0 min 0,000 mm 1,1 UV-I 83 W/m 3,3 C 0,0 km/h (0 Bft)
09.10.2016 10:14 3,8 C 3,8 C 97 % 1022,5 hPa 0,0 mm 0,0 km/h (0 Bft) NO 46 0 min 0,000 mm 1,1 UV-I 84 W/m 3,4 C 0,0 km/h (0 Bft)
09.10.2016 10:15 3,8 C 3,8 C 97 % 1022,5 hPa 0,0 mm 0,0 km/h (0 Bft) NO 46 0 min 0,000 mm 1,1 UV-I 84 W/m 3,4 C 0,0 km/h (0 Bft)
09.10.2016 10:16 3,8 C 3,8 C 97 % 1022,5 hPa 0,0 mm 0,0 km/h (0 Bft) NO 46 0 min 0,000 mm 1,1 UV-I 88 W/m 3,4 C 0,0 km/h (0 Bft)
09.10.2016 10:17 3,9 C 3,9 C 97 % 1022,5 hPa 0,0 mm 0,0 km/h (0 Bft) NO 46 0 min 0,000 mm 1,1 UV-I 98 W/m 3,5 C 0,0 km/h (0 Bft)
09.10.2016 10:18 3,9 C 3,9 C 97 % 1022,5 hPa 0,0 mm 0,0 km/h (0 Bft) NO 46 0 min 0,000 mm 1,1 UV-I 111 W/m 3,5 C 0,0 km/h (0 Bft)
09.10.2016 10:19 4,0 C 4,0 C 97 % 1022,5 hPa 0,0 mm 0,0 km/h (0 Bft) NO 46 0 min 0,000 mm 1,1 UV-I 114 W/m 3,6 C 0,0 km/h (0 Bft)
09.10.2016 10:20 4,0 C 4,0 C 97 % 1022,6 hPa 0,0 mm 0,0 km/h (0 Bft) NO 46 0 min 0,000 mm 1,1 UV-I 98 W/m 3,6 C 0,0 km/h (0 Bft)
09.10.2016 10:21 4,1 C 4,1 C 97 % 1022,6 hPa 0,0 mm 1,1 km/h (1 Bft) O-NO 71 0 min 0,000 mm 1,1 UV-I 123 W/m 3,7 C 4,8 km/h (1 Bft)
09.10.2016 10:22 4,1 C 4,1 C 97 % 1022,5 hPa 0,0 mm 2,5 km/h (1 Bft) O-NO 65 0 min 0,000 mm 1,2 UV-I 132 W/m 3,7 C 4,8 km/h (1 Bft)
09.10.2016 10:23 4,2 C 4,2 C 97 % 1022,5 hPa 0,0 mm 6,2 km/h (2 Bft) O-NO 63 0 min 0,000 mm 1,2 UV-I 118 W/m 3,8 C 8,0 km/h (2 Bft)
09.10.2016 10:24 4,3 C 4,3 C 96 % 1022,5 hPa 0,0 mm 3,8 km/h (1 Bft) O 80 0 min 0,000 mm 1,2 UV-I 118 W/m 3,7 C 4,8 km/h (1 Bft)
09.10.2016 10:25 4,4 C 4,4 C 96 % 1022,5 hPa 0,0 mm 5,1 km/h (1 Bft) N-NO 29 0 min 0,000 mm 1,2 UV-I 127 W/m 3,8 C 8,0 km/h (2 Bft)
09.10.2016 10:26 4,6 C 4,6 C 96 % 1022,5 hPa 0,0 mm 7,0 km/h (2 Bft) O 98 0 min 0,000 mm 1,1 UV-I 97 W/m 4,0 C 9,7 km/h (2 Bft)
09.10.2016 10:27 4,6 C 4,6 C 96 % 1022,5 hPa 0,0 mm 5,0 km/h (1 Bft) O 92 0 min 0,000 mm 1,1 UV-I 91 W/m 4,0 C 11,3 km/h (2 Bft)
09.10.2016 10:28 4,6 C 4,6 C 95 % 1022,5 hPa 0,0 mm 6,6 km/h (2 Bft) O 89 0 min 0,000 mm 1,1 UV-I 86 W/m 3,9 C 8,0 km/h (2 Bft)
09.10.2016 10:29 4,6 C 4,6 C 95 % 1022,5 hPa 0,0 mm 1,8 km/h (1 Bft) O-SO 111 0 min 0,000 mm 1,1 UV-I 88 W/m 3,9 C 4,8 km/h (1 Bft)
09.10.2016 10:30 4,6 C 4,6 C 95 % 1022,5 hPa 0,0 mm 1,9 km/h (1 Bft) O-NO 61 0 min 0,000 mm 1,1 UV-I 91 W/m 3,9 C 3,2 km/h (1 Bft)
09.10.2016 10:31 4,6 C 4,6 C 95 % 1022,5 hPa 0,0 mm 2,4 km/h (1 Bft) O-NO 61 0 min 0,000 mm 1,2 UV-I 90 W/m 3,9 C 3,2 km/h (1 Bft)
09.10.2016 10:32 4,6 C 4,6 C 94 % 1022,5 hPa 0,0 mm 1,9 km/h (1 Bft) O-NO 61 0 min 0,000 mm 1,2 UV-I 98 W/m 3,7 C 3,2 km/h (1 Bft)
09.10.2016 10:33 4,6 C 4,6 C 94 % 1022,5 hPa 0,0 mm 3,0 km/h (1 Bft) NO 53 0 min 0,000 mm 1,2 UV-I 97 W/m 3,7 C 4,8 km/h (1 Bft)
09.10.2016 10:34 4,6 C 4,6 C 94 % 1022,5 hPa 0,0 mm 1,7 km/h (1 Bft) NO 53 0 min 0,000 mm 1,2 UV-I 95 W/m 3,7 C 3,2 km/h (1 Bft)
09.10.2016 10:35 4,7 C 4,7 C 94 % 1022,5 hPa 0,0 mm 3,7 km/h (1 Bft) O-SO 108 0 min 0,000 mm 1,2 UV-I 113 W/m 3,8 C 6,4 km/h (2 Bft)
09.10.2016 10:36 4,7 C 4,7 C 94 % 1022,5 hPa 0,0 mm 6,9 km/h (2 Bft) O-NO 66 0 min 0,000 mm 1,3 UV-I 114 W/m 3,8 C 9,7 km/h (2 Bft)
09.10.2016 10:37 4,8 C 4,8 C 94 % 1022,5 hPa 0,0 mm 5,2 km/h (1 Bft) NO 54 0 min 0,000 mm 1,3 UV-I 109 W/m 3,9 C 8,0 km/h (2 Bft)
09.10.2016 10:38 4,8 C 4,8 C 93 % 1022,5 hPa 0,0 mm 7,0 km/h (2 Bft) O-NO 68 0 min 0,000 mm 1,2 UV-I 95 W/m 3,8 C 9,7 km/h (2 Bft)
09.10.2016 10:39 4,9 C 4,9 C 93 % 1022,5 hPa 0,0 mm 5,0 km/h (1 Bft) NO 34 0 min 0,000 mm 1,3 UV-I 90 W/m 3,9 C 6,4 km/h (2 Bft)
09.10.2016 10:40 5,0 C 5,0 C 93 % 1022,5 hPa 0,0 mm 4,0 km/h (1 Bft) O-NO 63 0 min 0,000 mm 1,3 UV-I 91 W/m 4,0 C 6,4 km/h (2 Bft)
09.10.2016 10:41 5,1 C 5,1 C 93 % 1022,4 hPa 0,0 mm 5,0 km/h (1 Bft) N-NO 33 0 min 0,000 mm 1,3 UV-I 95 W/m 4,1 C 6,4 km/h (2 Bft)
09.10.2016 10:42 5,1 C 5,1 C 92 % 1022,5 hPa 0,0 mm 7,8 km/h (2 Bft) O-NO 59 0 min 0,000 mm 1,3 UV-I 98 W/m 3,9 C 12,9 km/h (3 Bft)
09.10.2016 10:43 5,1 C 5,1 C 92 % 1022,5 hPa 0,0 mm 5,1 km/h (1 Bft) O 80 0 min 0,000 mm 1,3 UV-I 102 W/m 3,9 C 8,0 km/h (2 Bft)
09.10.2016 10:44 5,1 C 5,1 C 92 % 1022,5 hPa 0,0 mm 7,3 km/h (2 Bft) NO 49 0 min 0,000 mm 1,3 UV-I 98 W/m 3,9 C 9,7 km/h (2 Bft)
09.10.2016 10:45 5,1 C 5,2 C 92 % 1022,5 hPa 0,0 mm 6,3 km/h (2 Bft) O-NO 65 0 min 0,000 mm 1,3 UV-I 86 W/m 3,9 C 11,3 km/h (2 Bft)
09.10.2016 10:46 5,2 C 5,2 C 92 % 1022,4 hPa 0,0 mm 4,0 km/h (1 Bft) O-NO 66 0 min 0,000 mm 1,3 UV-I 90 W/m 4,0 C 4,8 km/h (1 Bft)
09.10.2016 10:47 5,1 C 5,2 C 92 % 1022,4 hPa 0,0 mm 2,3 km/h (1 Bft) NO 34 0 min 0,000 mm 1,3 UV-I 91 W/m 3,9 C 6,4 km/h (2 Bft)
09.10.2016 10:48 5,2 C 5,2 C 92 % 1022,4 hPa 0,0 mm 6,2 km/h (2 Bft) NO 51 0 min 0,000 mm 1,3 UV-I 100 W/m 4,0 C 8,0 km/h (2 Bft)
09.10.2016 10:49 5,2 C 5,3 C 93 % 1022,4 hPa 0,0 mm 1,9 km/h (1 Bft) NO 51 0 min 0,000 mm 1,4 UV-I 135 W/m 4,2 C 4,8 km/h (1 Bft)
09.10.2016 10:50 5,3 C 5,3 C 92 % 1022,4 hPa 0,0 mm 4,2 km/h (1 Bft) NO 55 0 min 0,000 mm 1,5 UV-I 153 W/m 4,1 C 8,0 km/h (2 Bft)
09.10.2016 10:51 5,3 C 5,3 C 92 % 1022,4 hPa 0,0 mm 5,0 km/h (1 Bft) NO 35 0 min 0,000 mm 1,5 UV-I 167 W/m 4,1 C 6,4 km/h (2 Bft)
09.10.2016 10:52 5,4 C 5,4 C 92 % 1022,5 hPa 0,0 mm 7,2 km/h (2 Bft) O-NO 63 0 min 0,000 mm 1,6 UV-I 190 W/m 4,2 C 12,9 km/h (3 Bft)
09.10.2016 10:53 5,4 C 5,4 C 92 % 1022,5 hPa 0,0 mm 8,2 km/h (2 Bft) NO 34 1 min 0,000 mm 1,8 UV-I 274 W/m 4,2 C 11,3 km/h (2 Bft)
09.10.2016 10:54 5,3 C 5,4 C 90 % 1022,5 hPa 0,0 mm 6,4 km/h (2 Bft) O-NO 71 1 min 0,000 mm 1,7 UV-I 279 W/m 3,8 C 8,0 km/h (2 Bft)
09.10.2016 10:55 5,3 C 5,3 C 91 % 1022,5 hPa 0,0 mm 6,5 km/h (2 Bft) O-NO 57 1 min 0,000 mm 1,8 UV-I 288 W/m 4,0 C 9,7 km/h (2 Bft)
09.10.2016 10:56 5,3 C 5,3 C 91 % 1022,4 hPa 0,0 mm 4,2 km/h (1 Bft) O-NO 61 1 min 0,000 mm 2,1 UV-I 338 W/m 4,0 C 8,0 km/h (2 Bft)
09.10.2016 10:57 5,3 C 5,3 C 91 % 1022,4 hPa 0,0 mm 7,9 km/h (2 Bft) O-NO 78 1 min 0,000 mm 2,1 UV-I 338 W/m 4,0 C 12,9 km/h (3 Bft)
09.10.2016 10:58 5,3 C 5,3 C 91 % 1022,5 hPa 0,0 mm 5,5 km/h (1 Bft) N-NO 26 1 min 0,000 mm 1,7 UV-I 338 W/m 4,0 C 9,7 km/h (2 Bft)
09.10.2016 10:59 5,3 C 5,3 C 90 % 1022,5 hPa 0,0 mm 6,9 km/h (2 Bft) O-NO 65 1 min 0,000 mm 1,5 UV-I 338 W/m 3,8 C 11,3 km/h (2 Bft)
09.10.2016 11:00 5,4 C 5,4 C 90 % 1022,5 hPa 0,0 mm 7,3 km/h (2 Bft) O-NO 76 0 min 0,000 mm 1,4 UV-I 142 W/m 3,9 C 11,3 km/h (2 Bft)
09.10.2016 11:01 5,4 C 5,4 C 91 % 1022,4 hPa 0,0 mm 6,7 km/h (2 Bft) O-NO 72 0 min 0,051 mm 1,8 UV-I 227 W/m 4,1 C 11,3 km/h (2 Bft)
09.10.2016 11:02 5,5 C 5,5 C 91 % 1022,5 hPa 0,0 mm 5,8 km/h (2 Bft) O-NO 78 0 min 0,000 mm 2,2 UV-I 227 W/m 4,2 C 8,0 km/h (2 Bft)
09.10.2016 11:03 5,5 C 5,6 C 91 % 1022,5 hPa 0,0 mm 5,2 km/h (1 Bft) NO 34 0 min 0,000 mm 2,2 UV-I 227 W/m 4,2 C 8,0 km/h (2 Bft)
09.10.2016 11:04 5,6 C 5,6 C 90 % 1022,5 hPa 0,0 mm 4,7 km/h (1 Bft) NO 50 0 min 0,000 mm 2,2 UV-I 227 W/m 4,1 C 8,0 km/h (2 Bft)
09.10.2016 11:05 5,6 C 5,6 C 90 % 1022,5 hPa 0,0 mm 6,8 km/h (2 Bft) S-SO 155 0 min 0,000 mm 2,2 UV-I 227 W/m 4,1 C 12,9 km/h (3 Bft)
09.10.2016 11:06 5,6 C 5,6 C 89 % 1022,5 hPa 0,0 mm 6,8 km/h (2 Bft) O-NO 71 1 min 0,000 mm 1,7 UV-I 490 W/m 3,9 C 11,3 km/h (2 Bft)
09.10.2016 11:07 5,6 C 5,6 C 90 % 1022,5 hPa 0,0 mm 5,2 km/h (1 Bft) O 98 1 min 0,000 mm 2,2 UV-I 497 W/m 4,1 C 11,3 km/h (2 Bft)
09.10.2016 11:08 5,5 C 5,6 C 89 % 1022,4 hPa 0,0 mm 3,5 km/h (1 Bft) N-NO 27 0 min 0,000 mm 1,5 UV-I 250 W/m 3,8 C 6,4 km/h (2 Bft)
09.10.2016 11:09 5,5 C 5,5 C 90 % 1022,4 hPa 0,0 mm 5,8 km/h (2 Bft) NO 40 0 min 0,000 mm 1,5 UV-I 250 W/m 4,0 C 8,0 km/h (2 Bft)
09.10.2016 11:10 5,6 C 5,6 C 91 % 1022,4 hPa 0,0 mm 5,9 km/h (2 Bft) NO 50 0 min 0,000 mm 2,0 UV-I 250 W/m 4,2 C 8,0 km/h (2 Bft)
09.10.2016 11:11 5,5 C 5,6 C 91 % 1022,4 hPa 0,0 mm 2,5 km/h (1 Bft) NO 50 0 min 0,000 mm 2,0 UV-I 250 W/m 4,2 C 4,8 km/h (1 Bft)
09.10.2016 11:12 5,4 C 5,5 C 91 % 1022,4 hPa 0,0 mm 3,0 km/h (1 Bft) N-NO 30 0 min 0,000 mm 2,3 UV-I 250 W/m 4,1 C 4,8 km/h (1 Bft)
09.10.2016 11:13 5,6 C 5,6 C 91 % 1022,4 hPa 0,0 mm 4,5 km/h (1 Bft) O-SO 102 1 min 0,000 mm 2,2 UV-I 482 W/m 4,2 C 6,4 km/h (2 Bft)
09.10.2016 11:14 5,6 C 5,6 C 91 % 1022,4 hPa 0,0 mm 4,8 km/h (1 Bft) NO 44 1 min 0,000 mm 2,2 UV-I 417 W/m 4,2 C 8,0 km/h (2 Bft)
09.10.2016 11:15 5,7 C 5,7 C 91 % 1022,4 hPa 0,0 mm 6,5 km/h (2 Bft) N-NO 21 1 min 0,000 mm 2,2 UV-I 446 W/m 4,3 C 11,3 km/h (2 Bft)
09.10.2016 11:16 5,8 C 5,8 C 90 % 1022,4 hPa 0,0 mm 9,5 km/h (2 Bft) N-NO 19 1 min 0,000 mm 2,2 UV-I 401 W/m 4,3 C 12,9 km/h (3 Bft)
09.10.2016 11:17 5,9 C 5,9 C 90 % 1022,4 hPa 0,0 mm 5,9 km/h (2 Bft) NO 51 1 min 0,000 mm 2,0 UV-I 302 W/m 4,4 C 12,9 km/h (3 Bft)
09.10.2016 11:18 6,0 C 6,0 C 90 % 1022,4 hPa 0,0 mm 7,7 km/h (2 Bft) NO 49 0 min 0,000 mm 1,9 UV-I 246 W/m 4,5 C 12,9 km/h (3 Bft)
09.10.2016 11:19 6,1 C 6,1 C 90 % 1022,4 hPa 0,0 mm 5,1 km/h (1 Bft) NO 38 1 min 0,000 mm 1,9 UV-I 294 W/m 4,6 C 9,7 km/h (2 Bft)
09.10.2016 11:20 6,1 C 6,1 C 89 % 1022,4 hPa 0,0 mm 4,5 km/h (1 Bft) N 5 1 min 0,000 mm 1,9 UV-I 341 W/m 4,4 C 6,4 km/h (2 Bft)
09.10.2016 11:21 6,2 C 6,2 C 90 % 1022,3 hPa 0,0 mm 2,9 km/h (1 Bft) N-NO 24 1 min 0,000 mm 2,1 UV-I 383 W/m 4,7 C 4,8 km/h (1 Bft)
09.10.2016 11:22 6,2 C 6,2 C 90 % 1022,3 hPa 0,0 mm 8,9 km/h (2 Bft) NO 45 1 min 0,000 mm 2,2 UV-I 473 W/m 4,7 C 12,9 km/h (3 Bft)
09.10.2016 11:23 6,3 C 6,3 C 90 % 1022,3 hPa 0,0 mm 9,7 km/h (2 Bft) NO 39 1 min 0,000 mm 2,2 UV-I 401 W/m 4,8 C 16,1 km/h (3 Bft)
09.10.2016 11:24 6,3 C 6,3 C 89 % 1022,4 hPa 0,0 mm 10,8 km/h (2 Bft) N-NO 28 1 min 0,000 mm 2,3 UV-I 497 W/m 4,6 C 14,5 km/h (3 Bft)
09.10.2016 11:25 6,4 C 6,4 C 88 % 1022,3 hPa 0,0 mm 7,8 km/h (2 Bft) NO 40 1 min 0,000 mm 2,3 UV-I 570 W/m 4,6 C 14,5 km/h (3 Bft)
09.10.2016 11:26 6,3 C 6,4 C 88 % 1022,3 hPa 0,0 mm 4,8 km/h (1 Bft) NO 34 1 min 0,000 mm 2,3 UV-I 570 W/m 4,5 C 8,0 km/h (2 Bft)
09.10.2016 11:27 6,3 C 6,3 C 89 % 1022,3 hPa 0,0 mm 9,3 km/h (2 Bft) N-NO 16 1 min 0,000 mm 2,2 UV-I 422 W/m 4,6 C 11,3 km/h (2 Bft)
09.10.2016 11:28 6,3 C 6,3 C 88 % 1022,3 hPa 0,0 mm 5,5 km/h (1 Bft) O-NO 76 1 min 0,000 mm 2,6 UV-I 577 W/m 4,5 C 9,7 km/h (2 Bft)
09.10.2016 11:29 6,3 C 6,3 C 89 % 1022,3 hPa 0,0 mm 4,4 km/h (1 Bft) O-NO 69 1 min 0,000 mm 2,5 UV-I 570 W/m 4,6 C 6,4 km/h (2 Bft)
09.10.2016 11:30 6,2 C 6,3 C 89 % 1022,3 hPa 0,0 mm 4,0 km/h (1 Bft) O-NO 71 1 min 0,000 mm 2,2 UV-I 471 W/m 4,5 C 6,4 km/h (2 Bft)
09.10.2016 11:31 6,2 C 6,2 C 89 % 1022,4 hPa 0,0 mm 7,0 km/h (2 Bft) NO 51 1 min 0,000 mm 1,9 UV-I 471 W/m 4,5 C 8,0 km/h (2 Bft)
09.10.2016 11:32 6,2 C 6,2 C 89 % 1022,3 hPa 0,0 mm 3,8 km/h (1 Bft) O-NO 57 0 min 0,000 mm 1,8 UV-I 267 W/m 4,5 C 6,4 km/h (2 Bft)
09.10.2016 11:33 6,3 C 6,3 C 90 % 1022,3 hPa 0,0 mm 4,1 km/h (1 Bft) NO 54 0 min 0,000 mm 1,8 UV-I 237 W/m 4,8 C 4,8 km/h (1 Bft)
09.10.2016 11:34 6,2 C 6,3 C 88 % 1022,3 hPa 0,0 mm 8,6 km/h (2 Bft) O-NO 65 0 min 0,000 mm 1,8 UV-I 241 W/m 4,4 C 14,5 km/h (3 Bft)
09.10.2016 11:35 6,2 C 6,2 C 89 % 1022,4 hPa 0,0 mm 6,7 km/h (2 Bft) O-NO 61 1 min 0,000 mm 2,0 UV-I 313 W/m 4,5 C 9,7 km/h (2 Bft)
09.10.2016 11:36 6,2 C 6,2 C 88 % 1022,4 hPa 0,0 mm 9,8 km/h (2 Bft) N-NO 25 1 min 0,000 mm 2,0 UV-I 339 W/m 4,4 C 12,9 km/h (3 Bft)
09.10.2016 11:37 6,1 C 6,2 C 88 % 1022,4 hPa 0,0 mm 4,1 km/h (1 Bft) NO 42 0 min 0,000 mm 1,9 UV-I 285 W/m 4,3 C 8,0 km/h (2 Bft)
09.10.2016 11:38 6,1 C 6,1 C 89 % 1022,4 hPa 0,0 mm 0,9 km/h (0 Bft) NO 42 1 min 0,000 mm 1,9 UV-I 327 W/m 4,4 C 3,2 km/h (1 Bft)
09.10.2016 11:39 6,2 C 6,2 C 90 % 1022,4 hPa 0,0 mm 4,1 km/h (1 Bft) NO 34 1 min 0,000 mm 2,0 UV-I 360 W/m 4,7 C 8,0 km/h (2 Bft)
09.10.2016 11:40 6,2 C 6,2 C 89 % 1022,4 hPa 0,0 mm 9,7 km/h (2 Bft) O-NO 69 1 min 0,000 mm 1,9 UV-I 327 W/m 4,5 C 12,9 km/h (3 Bft)
09.10.2016 11:41 6,2 C 6,2 C 88 % 1022,4 hPa 0,0 mm 8,6 km/h (2 Bft) O 83 0 min 0,000 mm 1,8 UV-I 269 W/m 4,4 C 14,5 km/h (3 Bft)
09.10.2016 11:42 6,3 C 6,3 C 88 % 1022,4 hPa 0,0 mm 6,9 km/h (2 Bft) O-SO 103 0 min 0,000 mm 1,8 UV-I 276 W/m 4,5 C 14,5 km/h (3 Bft)
09.10.2016 11:43 6,3 C 6,3 C 88 % 1022,4 hPa 0,0 mm 6,0 km/h (2 Bft) O 84 0 min 0,000 mm 1,9 UV-I 290 W/m 4,5 C 9,7 km/h (2 Bft)
09.10.2016 11:44 6,3 C 6,3 C 87 % 1022,4 hPa 0,0 mm 4,0 km/h (1 Bft) O-NO 74 0 min 0,000 mm 1,9 UV-I 271 W/m 4,3 C 8,0 km/h (2 Bft)
09.10.2016 11:45 6,3 C 6,3 C 88 % 1022,4 hPa 0,0 mm 6,3 km/h (2 Bft) O-NO 59 0 min 0,000 mm 1,9 UV-I 281 W/m 4,5 C 11,3 km/h (2 Bft)
09.10.2016 11:46 6,2 C 6,3 C 87 % 1022,4 hPa 0,0 mm 4,1 km/h (1 Bft) NO 34 1 min 0,000 mm 2,0 UV-I 304 W/m 4,2 C 4,8 km/h (1 Bft)
09.10.2016 11:47 6,2 C 6,3 C 87 % 1022,4 hPa 0,0 mm 7,0 km/h (2 Bft) O-NO 58 1 min 0,000 mm 2,1 UV-I 323 W/m 4,2 C 8,0 km/h (2 Bft)
09.10.2016 11:48 6,3 C 6,3 C 88 % 1022,4 hPa 0,0 mm 6,8 km/h (2 Bft) NO 56 1 min 0,000 mm 2,1 UV-I 378 W/m 4,5 C 9,7 km/h (2 Bft)
09.10.2016 11:49 6,4 C 6,4 C 87 % 1022,4 hPa 0,0 mm 4,1 km/h (1 Bft) O-NO 69 1 min 0,000 mm 2,1 UV-I 362 W/m 4,4 C 6,4 km/h (2 Bft)
09.10.2016 11:50 6,4 C 6,4 C 87 % 1022,4 hPa 0,0 mm 4,4 km/h (1 Bft) O-NO 61 1 min 0,000 mm 2,1 UV-I 359 W/m 4,4 C 6,4 km/h (2 Bft)
09.10.2016 11:51 6,4 C 6,4 C 87 % 1022,5 hPa 0,0 mm 3,5 km/h (1 Bft) O-NO 61 1 min 0,000 mm 2,2 UV-I 392 W/m 4,4 C 4,8 km/h (1 Bft)
09.10.2016 11:52 6,5 C 6,5 C 87 % 1022,5 hPa 0,0 mm 6,3 km/h (2 Bft) N-NO 19 1 min 0,000 mm 2,1 UV-I 357 W/m 4,5 C 8,0 km/h (2 Bft)
09.10.2016 11:53 6,5 C 6,5 C 88 % 1022,4 hPa 0,0 mm 4,8 km/h (1 Bft) O 95 1 min 0,000 mm 2,1 UV-I 339 W/m 4,7 C 8,0 km/h (2 Bft)
09.10.2016 11:54 6,4 C 6,5 C 87 % 1022,4 hPa 0,0 mm 4,2 km/h (1 Bft) NO 53 1 min 0,000 mm 2,1 UV-I 332 W/m 4,4 C 6,4 km/h (2 Bft)
09.10.2016 11:55 6,4 C 6,5 C 86 % 1022,4 hPa 0,0 mm 6,1 km/h (2 Bft) NO 53 1 min 0,000 mm 2,1 UV-I 330 W/m 4,2 C 9,7 km/h (2 Bft)
09.10.2016 11:56 6,5 C 6,5 C 86 % 1022,4 hPa 0,0 mm 8,0 km/h (2 Bft) NO 44 1 min 0,000 mm 2,1 UV-I 316 W/m 4,3 C 11,3 km/h (2 Bft)
09.10.2016 11:57 6,5 C 6,5 C 87 % 1022,4 hPa 0,0 mm 8,1 km/h (2 Bft) NO 42 1 min 0,000 mm 2,2 UV-I 397 W/m 4,5 C 12,9 km/h (3 Bft)
09.10.2016 11:58 6,5 C 6,5 C 86 % 1022,4 hPa 0,0 mm 9,3 km/h (2 Bft) NO 40 1 min 0,000 mm 2,2 UV-I 362 W/m 4,3 C 14,5 km/h (3 Bft)
09.10.2016 11:59 6,4 C 6,5 C 86 % 1022,3 hPa 0,0 mm 5,0 km/h (1 Bft) O-NO 69 1 min 0,000 mm 2,1 UV-I 325 W/m 4,2 C 9,7 km/h (2 Bft)
09.10.2016 12:00 6,4 C 6,4 C 86 % 1022,4 hPa 0,0 mm 8,4 km/h (2 Bft) O-NO 61 1 min 0,000 mm 2,2 UV-I 330 W/m 4,2 C 14,5 km/h (3 Bft)
09.10.2016 12:01 6,5 C 6,5 C 87 % 1022,4 hPa 0,0 mm 5,4 km/h (1 Bft) N-NO 31 1 min 0,152 mm 2,2 UV-I 332 W/m 4,5 C 8,0 km/h (2 Bft)
09.10.2016 12:02 6,5 C 6,5 C 87 % 1022,4 hPa 0,0 mm 4,6 km/h (1 Bft) N-NO 32 1 min 0,000 mm 2,2 UV-I 362 W/m 4,5 C 6,4 km/h (2 Bft)
09.10.2016 12:03 6,6 C 6,6 C 88 % 1022,3 hPa 0,0 mm 8,1 km/h (2 Bft) NO 42 1 min 0,000 mm 2,2 UV-I 403 W/m 4,8 C 9,7 km/h (2 Bft)
09.10.2016 12:04 6,7 C 6,7 C 86 % 1022,4 hPa 0,0 mm 8,0 km/h (2 Bft) NO 55 1 min 0,000 mm 2,2 UV-I 334 W/m 4,5 C 14,5 km/h (3 Bft)
09.10.2016 12:05 6,6 C 6,7 C 87 % 1022,4 hPa 0,0 mm 6,2 km/h (2 Bft) O-NO 68 1 min 0,000 mm 2,2 UV-I 334 W/m 4,6 C 8,0 km/h (2 Bft)
09.10.2016 12:06 6,6 C 6,7 C 86 % 1022,4 hPa 0,0 mm 7,2 km/h (2 Bft) NO 50 1 min 0,000 mm 2,2 UV-I 345 W/m 4,4 C 9,7 km/h (2 Bft)
09.10.2016 12:07 6,6 C 6,6 C 86 % 1022,3 hPa 0,0 mm 6,2 km/h (2 Bft) O-NO 67 1 min 0,000 mm 2,2 UV-I 357 W/m 4,4 C 11,3 km/h (2 Bft)
09.10.2016 12:08 6,5 C 6,6 C 86 % 1022,4 hPa 0,0 mm 6,8 km/h (2 Bft) NO 55 1 min 0,000 mm 2,2 UV-I 341 W/m 4,3 C 12,9 km/h (3 Bft)
09.10.2016 12:09 6,5 C 6,5 C 86 % 1022,3 hPa 0,0 mm 10,7 km/h (2 Bft) O-SO 109 1 min 0,000 mm 2,2 UV-I 348 W/m 4,3 C 16,1 km/h (3 Bft)
09.10.2016 12:10 6,5 C 6,5 C 88 % 1022,3 hPa 0,0 mm 4,5 km/h (1 Bft) NO 53 1 min 0,000 mm 2,4 UV-I 376 W/m 4,7 C 8,0 km/h (2 Bft)
09.10.2016 12:11 6,6 C 6,6 C 87 % 1022,4 hPa 0,0 mm 6,4 km/h (2 Bft) O-SO 119 1 min 0,000 mm 2,6 UV-I 376 W/m 4,6 C 8,0 km/h (2 Bft)
09.10.2016 12:12 6,6 C 6,6 C 87 % 1022,3 hPa 0,0 mm 5,4 km/h (1 Bft) NO 34 1 min 0,000 mm 2,4 UV-I 376 W/m 4,6 C 9,7 km/h (2 Bft)
09.10.2016 12:13 6,6 C 6,6 C 87 % 1022,3 hPa 0,0 mm 7,1 km/h (2 Bft) O-NO 74 1 min 0,000 mm 2,4 UV-I 397 W/m 4,6 C 9,7 km/h (2 Bft)
09.10.2016 12:14 6,6 C 6,7 C 88 % 1022,3 hPa 0,0 mm 2,9 km/h (1 Bft) O-NO 61 1 min 0,000 mm 2,4 UV-I 397 W/m 4,8 C 6,4 km/h (2 Bft)
09.10.2016 12:15 6,7 C 6,7 C 88 % 1022,3 hPa 0,0 mm 4,4 km/h (1 Bft) NO 51 1 min 0,000 mm 2,4 UV-I 387 W/m 4,9 C 8,0 km/h (2 Bft)
09.10.2016 12:16 6,7 C 6,7 C 88 % 1022,3 hPa 0,0 mm 2,8 km/h (1 Bft) O-NO 58 1 min 0,000 mm 2,4 UV-I 383 W/m 4,9 C 4,8 km/h (1 Bft)
09.10.2016 12:17 6,8 C 6,8 C 87 % 1022,4 hPa 0,0 mm 4,0 km/h (1 Bft) NO 49 1 min 0,000 mm 2,4 UV-I 441 W/m 4,8 C 8,0 km/h (2 Bft)
09.10.2016 12:18 6,7 C 6,8 C 86 % 1022,4 hPa 0,0 mm 6,6 km/h (2 Bft) SO 129 1 min 0,000 mm 2,4 UV-I 360 W/m 4,5 C 9,7 km/h (2 Bft)
09.10.2016 12:19 6,7 C 6,7 C 88 % 1022,4 hPa 0,0 mm 7,2 km/h (2 Bft) O 83 1 min 0,000 mm 2,8 UV-I 360 W/m 4,9 C 12,9 km/h (3 Bft)
09.10.2016 12:20 6,7 C 6,7 C 87 % 1022,4 hPa 0,0 mm 5,7 km/h (1 Bft) NO 53 1 min 0,000 mm 2,6 UV-I 360 W/m 4,7 C 8,0 km/h (2 Bft)
09.10.2016 12:21 6,7 C 6,7 C 87 % 1022,4 hPa 0,0 mm 8,4 km/h (2 Bft) O-NO 65 1 min 0,000 mm 2,6 UV-I 432 W/m 4,7 C 11,3 km/h (2 Bft)
09.10.2016 12:22 6,8 C 6,8 C 86 % 1022,3 hPa 0,0 mm 5,2 km/h (1 Bft) O 88 1 min 0,000 mm 3,1 UV-I 432 W/m 4,6 C 8,0 km/h (2 Bft)
09.10.2016 12:23 6,8 C 6,8 C 86 % 1022,3 hPa 0,0 mm 5,3 km/h (1 Bft) O-NO 76 1 min 0,000 mm 3,1 UV-I 432 W/m 4,6 C 11,3 km/h (2 Bft)
09.10.2016 12:24 6,7 C 6,8 C 86 % 1022,3 hPa 0,0 mm 3,0 km/h (1 Bft) O-SO 112 1 min 0,000 mm 2,8 UV-I 432 W/m 4,5 C 4,8 km/h (1 Bft)
09.10.2016 12:25 6,7 C 6,7 C 86 % 1022,3 hPa 0,0 mm 6,7 km/h (2 Bft) NO 45 1 min 0,000 mm 2,7 UV-I 492 W/m 4,5 C 14,5 km/h (3 Bft)
09.10.2016 12:26 6,8 C 6,8 C 86 % 1022,3 hPa 0,0 mm 4,5 km/h (1 Bft) O-NO 67 1 min 0,000 mm 2,7 UV-I 492 W/m 4,6 C 8,0 km/h (2 Bft)
09.10.2016 12:27 6,9 C 6,9 C 87 % 1022,3 hPa 0,0 mm 5,3 km/h (1 Bft) O 80 1 min 0,000 mm 2,6 UV-I 427 W/m 4,9 C 8,0 km/h (2 Bft)
09.10.2016 12:28 7,1 C 7,1 C 84 % 1022,3 hPa 0,0 mm 4,8 km/h (1 Bft) N-NO 30 1 min 0,000 mm 2,5 UV-I 383 W/m 4,6 C 6,4 km/h (2 Bft)
09.10.2016 12:29 7,1 C 7,1 C 84 % 1022,3 hPa 0,0 mm 7,2 km/h (2 Bft) O-NO 71 1 min 0,000 mm 2,8 UV-I 383 W/m 4,6 C 12,9 km/h (3 Bft)
09.10.2016 12:30 7,1 C 7,2 C 83 % 1022,4 hPa 0,0 mm 5,4 km/h (1 Bft) O-NO 64 1 min 0,000 mm 2,5 UV-I 408 W/m 4,4 C 9,7 km/h (2 Bft)
09.10.2016 12:31 7,1 C 7,1 C 83 % 1022,4 hPa 0,0 mm 5,7 km/h (1 Bft) NO 51 1 min 0,000 mm 3,1 UV-I 584 W/m 4,4 C 8,0 km/h (2 Bft)
09.10.2016 12:32 7,1 C 7,1 C 84 % 1022,3 hPa 0,0 mm 9,0 km/h (2 Bft) N 5 1 min 0,000 mm 2,7 UV-I 584 W/m 4,6 C 14,5 km/h (3 Bft)
09.10.2016 12:33 7,1 C 7,1 C 84 % 1022,3 hPa 0,0 mm 12,6 km/h (3 Bft) O 86 1 min 0,000 mm 2,9 UV-I 584 W/m 4,6 C 19,3 km/h (3 Bft)
09.10.2016 12:34 7,1 C 7,1 C 83 % 1022,3 hPa 0,0 mm 8,4 km/h (2 Bft) O-NO 64 1 min 0,000 mm 2,6 UV-I 584 W/m 4,4 C 14,5 km/h (3 Bft)
09.10.2016 12:35 7,1 C 7,1 C 84 % 1022,3 hPa 0,0 mm 6,4 km/h (2 Bft) NO 44 1 min 0,000 mm 2,4 UV-I 355 W/m 4,6 C 12,9 km/h (3 Bft)
09.10.2016 12:36 7,2 C 7,2 C 84 % 1022,2 hPa 0,0 mm 6,9 km/h (2 Bft) O-NO 67 1 min 0,000 mm 2,5 UV-I 362 W/m 4,7 C 8,0 km/h (2 Bft)
09.10.2016 12:37 7,2 C 7,2 C 84 % 1022,3 hPa 0,0 mm 8,0 km/h (2 Bft) N-NO 19 1 min 0,000 mm 2,5 UV-I 362 W/m 4,7 C 12,9 km/h (3 Bft)
09.10.2016 12:38 7,3 C 7,3 C 85 % 1022,3 hPa 0,0 mm 6,8 km/h (2 Bft) O-SO 105 1 min 0,000 mm 2,4 UV-I 362 W/m 4,9 C 8,0 km/h (2 Bft)
09.10.2016 12:39 7,2 C 7,3 C 86 % 1022,3 hPa 0,0 mm 6,4 km/h (2 Bft) O-NO 78 1 min 0,000 mm 2,4 UV-I 371 W/m 5,0 C 9,7 km/h (2 Bft)
09.10.2016 12:40 7,1 C 7,2 C 84 % 1022,3 hPa 0,0 mm 6,4 km/h (2 Bft) O 79 1 min 0,000 mm 2,4 UV-I 383 W/m 4,6 C 11,3 km/h (2 Bft)
09.10.2016 12:41 7,2 C 7,2 C 85 % 1022,3 hPa 0,0 mm 8,1 km/h (2 Bft) NO 52 1 min 0,000 mm 2,4 UV-I 380 W/m 4,9 C 14,5 km/h (3 Bft)
09.10.2016 12:42 7,2 C 7,2 C 86 % 1022,3 hPa 0,0 mm 7,2 km/h (2 Bft) O 81 1 min 0,000 mm 2,6 UV-I 397 W/m 5,0 C 9,7 km/h (2 Bft)
09.10.2016 12:43 7,1 C 7,2 C 86 % 1022,3 hPa 0,0 mm 4,1 km/h (1 Bft) NO 46 1 min 0,000 mm 2,4 UV-I 364 W/m 4,9 C 9,7 km/h (2 Bft)
09.10.2016 12:44 7,1 C 7,1 C 84 % 1022,3 hPa 0,0 mm 7,1 km/h (2 Bft) O-NO 61 1 min 0,000 mm 2,3 UV-I 334 W/m 4,6 C 16,1 km/h (3 Bft)
09.10.2016 12:45 7,2 C 7,2 C 86 % 1022,3 hPa 0,0 mm 6,6 km/h (2 Bft) O-SO 102 1 min 0,000 mm 2,4 UV-I 352 W/m 5,0 C 11,3 km/h (2 Bft)
09.10.2016 12:46 7,2 C 7,2 C 85 % 1022,2 hPa 0,0 mm 7,5 km/h (2 Bft) O-NO 67 1 min 0,000 mm 2,4 UV-I 357 W/m 4,9 C 9,7 km/h (2 Bft)
09.10.2016 12:47 7,2 C 7,2 C 84 % 1022,2 hPa 0,0 mm 7,3 km/h (2 Bft) O-NO 69 1 min 0,000 mm 2,4 UV-I 357 W/m 4,7 C 14,5 km/h (3 Bft)
09.10.2016 12:48 7,2 C 7,2 C 84 % 1022,3 hPa 0,0 mm 5,4 km/h (1 Bft) O-NO 70 1 min 0,000 mm 2,5 UV-I 373 W/m 4,7 C 8,0 km/h (2 Bft)
09.10.2016 12:49 7,2 C 7,2 C 85 % 1022,2 hPa 0,0 mm 5,6 km/h (1 Bft) NO 35 1 min 0,000 mm 2,6 UV-I 383 W/m 4,9 C 8,0 km/h (2 Bft)
09.10.2016 12:50 7,2 C 7,2 C 84 % 1022,3 hPa 0,0 mm 7,3 km/h (2 Bft) O-NO 76 1 min 0,000 mm 2,4 UV-I 366 W/m 4,7 C 12,9 km/h (3 Bft)
09.10.2016 12:51 7,3 C 7,3 C 84 % 1022,2 hPa 0,0 mm 7,3 km/h (2 Bft) N-NO 29 1 min 0,000 mm 2,5 UV-I 369 W/m 4,8 C 12,9 km/h (3 Bft)
09.10.2016 12:52 7,3 C 7,3 C 85 % 1022,3 hPa 0,0 mm 6,2 km/h (2 Bft) NO 45 1 min 0,000 mm 2,4 UV-I 376 W/m 4,9 C 8,0 km/h (2 Bft)
09.10.2016 12:53 7,3 C 7,4 C 84 % 1022,2 hPa 0,0 mm 5,8 km/h (2 Bft) NO 35 1 min 0,000 mm 2,4 UV-I 469 W/m 4,8 C 11,3 km/h (2 Bft)
09.10.2016 12:54 7,4 C 7,4 C 84 % 1022,3 hPa 0,0 mm 7,1 km/h (2 Bft) O 80 1 min 0,000 mm 2,3 UV-I 369 W/m 4,9 C 11,3 km/h (2 Bft)
09.10.2016 12:55 7,4 C 7,4 C 83 % 1022,3 hPa 0,0 mm 8,3 km/h (2 Bft) O-NO 71 1 min 0,000 mm 2,4 UV-I 366 W/m 4,7 C 12,9 km/h (3 Bft)
09.10.2016 12:56 7,4 C 7,5 C 83 % 1022,2 hPa 0,0 mm 7,7 km/h (2 Bft) N-NO 32 1 min 0,000 mm 2,4 UV-I 362 W/m 4,7 C 14,5 km/h (3 Bft)
09.10.2016 12:57 7,4 C 7,4 C 82 % 1022,2 hPa 0,0 mm 5,2 km/h (1 Bft) O-NO 74 1 min 0,000 mm 2,5 UV-I 369 W/m 4,5 C 11,3 km/h (2 Bft)
09.10.2016 12:58 7,3 C 7,4 C 82 % 1022,2 hPa 0,0 mm 7,9 km/h (2 Bft) O-NO 63 1 min 0,000 mm 2,7 UV-I 388 W/m 4,4 C 14,5 km/h (3 Bft)
09.10.2016 12:59 7,3 C 7,3 C 82 % 1022,2 hPa 0,0 mm 4,4 km/h (1 Bft) SO 130 1 min 0,000 mm 2,5 UV-I 388 W/m 4,4 C 9,7 km/h (2 Bft)
09.10.2016 13:00 7,3 C 7,3 C 83 % 1022,2 hPa 0,0 mm 3,6 km/h (1 Bft) O-NO 64 1 min 0,000 mm 2,9 UV-I 480 W/m 4,6 C 6,4 km/h (2 Bft)
09.10.2016 13:01 7,3 C 7,3 C 83 % 1022,2 hPa 0,0 mm 7,8 km/h (2 Bft) O-SO 113 1 min 0,178 mm 2,8 UV-I 480 W/m 4,6 C 16,1 km/h (3 Bft)
09.10.2016 13:02 7,4 C 7,4 C 84 % 1022,2 hPa 0,0 mm 8,6 km/h (2 Bft) O 84 1 min 0,000 mm 2,4 UV-I 480 W/m 4,9 C 14,5 km/h (3 Bft)
09.10.2016 13:03 7,3 C 7,4 C 83 % 1022,2 hPa 0,0 mm 6,7 km/h (2 Bft) NO 48 1 min 0,000 mm 2,4 UV-I 355 W/m 4,6 C 14,5 km/h (3 Bft)
09.10.2016 13:04 7,3 C 7,4 C 83 % 1022,2 hPa 0,0 mm 7,9 km/h (2 Bft) NO 41 0 min 0,000 mm 2,2 UV-I 316 W/m 4,6 C 12,9 km/h (3 Bft)
09.10.2016 13:05 7,4 C 7,4 C 81 % 1022,2 hPa 0,0 mm 7,2 km/h (2 Bft) NO 49 1 min 0,000 mm 2,3 UV-I 343 W/m 4,4 C 9,7 km/h (2 Bft)
09.10.2016 13:06 7,5 C 7,5 C 82 % 1022,1 hPa 0,0 mm 5,6 km/h (1 Bft) O-NO 67 1 min 0,000 mm 2,3 UV-I 341 W/m 4,6 C 9,7 km/h (2 Bft)
09.10.2016 13:07 7,6 C 7,6 C 83 % 1022,2 hPa 0,0 mm 6,0 km/h (2 Bft) O-NO 65 1 min 0,000 mm 2,6 UV-I 408 W/m 4,9 C 9,7 km/h (2 Bft)
09.10.2016 13:08 7,6 C 7,6 C 83 % 1022,2 hPa 0,0 mm 6,4 km/h (2 Bft) O 99 1 min 0,000 mm 2,4 UV-I 390 W/m 4,9 C 12,9 km/h (3 Bft)
09.10.2016 13:09 7,5 C 7,6 C 82 % 1022,1 hPa 0,0 mm 6,6 km/h (2 Bft) O-NO 74 1 min 0,000 mm 2,5 UV-I 381 W/m 4,6 C 11,3 km/h (2 Bft)
09.10.2016 13:10 7,5 C 7,5 C 84 % 1022,1 hPa 0,0 mm 6,2 km/h (2 Bft) O 91 1 min 0,000 mm 2,5 UV-I 390 W/m 5,0 C 11,3 km/h (2 Bft)
09.10.2016 13:11 7,4 C 7,5 C 82 % 1022,0 hPa 0,0 mm 7,8 km/h (2 Bft) O 80 1 min 0,000 mm 3,1 UV-I 390 W/m 4,5 C 11,3 km/h (2 Bft)
09.10.2016 13:12 7,3 C 7,4 C 84 % 1022,1 hPa 0,0 mm 5,6 km/h (1 Bft) NO 53 1 min 0,000 mm 2,7 UV-I 390 W/m 4,8 C 8,0 km/h (2 Bft)
09.10.2016 13:13 7,3 C 7,3 C 84 % 1022,0 hPa 0,0 mm 9,3 km/h (2 Bft) NO 53 1 min 0,000 mm 2,6 UV-I 464 W/m 4,8 C 14,5 km/h (3 Bft)
09.10.2016 13:14 7,4 C 7,4 C 84 % 1022,0 hPa 0,0 mm 10,6 km/h (2 Bft) N-NO 24 1 min 0,000 mm 2,5 UV-I 383 W/m 4,9 C 17,7 km/h (3 Bft)
09.10.2016 13:15 7,4 C 7,4 C 84 % 1022,0 hPa 0,0 mm 5,2 km/h (1 Bft) NO 55 1 min 0,000 mm 2,5 UV-I 383 W/m 4,9 C 9,7 km/h (2 Bft)
09.10.2016 13:16 7,6 C 7,6 C 84 % 1022,0 hPa 0,0 mm 5,1 km/h (1 Bft) O 92 1 min 0,000 mm 2,4 UV-I 380 W/m 5,1 C 9,7 km/h (2 Bft)
09.10.2016 13:17 7,6 C 7,6 C 83 % 1022,0 hPa 0,0 mm 7,2 km/h (2 Bft) O 98 1 min 0,000 mm 2,4 UV-I 373 W/m 4,9 C 12,9 km/h (3 Bft)
09.10.2016 13:18 7,6 C 7,6 C 83 % 1022,0 hPa 0,0 mm 5,2 km/h (1 Bft) NO 47 1 min 0,000 mm 2,6 UV-I 399 W/m 4,9 C 6,4 km/h (2 Bft)
09.10.2016 13:19 7,4 C 7,6 C 82 % 1022,0 hPa 0,0 mm 4,3 km/h (1 Bft) N-NO 22 1 min 0,000 mm 2,9 UV-I 399 W/m 4,5 C 6,4 km/h (2 Bft)
09.10.2016 13:20 7,5 C 7,5 C 82 % 1022,0 hPa 0,0 mm 4,0 km/h (1 Bft) O-NO 59 1 min 0,000 mm 2,4 UV-I 399 W/m 4,6 C 6,4 km/h (2 Bft)
09.10.2016 13:21 7,4 C 7,5 C 83 % 1022,0 hPa 0,0 mm 6,6 km/h (2 Bft) SO 134 1 min 0,000 mm 2,4 UV-I 381 W/m 4,7 C 11,3 km/h (2 Bft)
09.10.2016 13:22 7,3 C 7,4 C 84 % 1021,9 hPa 0,0 mm 3,4 km/h (1 Bft) NO 51 1 min 0,000 mm 2,4 UV-I 353 W/m 4,8 C 8,0 km/h (2 Bft)
09.10.2016 13:23 7,3 C 7,3 C 84 % 1022,0 hPa 0,0 mm 6,0 km/h (2 Bft) O-NO 74 1 min 0,000 mm 2,3 UV-I 327 W/m 4,8 C 11,3 km/h (2 Bft)
09.10.2016 13:24 7,4 C 7,4 C 85 % 1021,9 hPa 0,0 mm 6,1 km/h (2 Bft) S-SO 149 1 min 0,000 mm 2,3 UV-I 332 W/m 5,0 C 11,3 km/h (2 Bft)
09.10.2016 13:25 7,4 C 7,4 C 84 % 1021,9 hPa 0,0 mm 2,1 km/h (1 Bft) O-SO 117 1 min 0,000 mm 2,3 UV-I 338 W/m 4,9 C 3,2 km/h (1 Bft)
09.10.2016 13:26 7,5 C 7,5 C 85 % 1021,8 hPa 0,0 mm 5,3 km/h (1 Bft) NO 42 1 min 0,000 mm 2,4 UV-I 338 W/m 5,1 C 8,0 km/h (2 Bft)
09.10.2016 13:27 7,6 C 7,6 C 84 % 1021,8 hPa 0,0 mm 4,0 km/h (1 Bft) O 84 1 min 0,000 mm 2,3 UV-I 371 W/m 5,1 C 8,0 km/h (2 Bft)
09.10.2016 13:28 7,6 C 7,7 C 84 % 1021,8 hPa 0,0 mm 4,2 km/h (1 Bft) NO 53 0 min 0,000 mm 2,2 UV-I 316 W/m 5,1 C 6,4 km/h (2 Bft)
09.10.2016 13:29 7,6 C 7,6 C 84 % 1021,8 hPa 0,0 mm 8,4 km/h (2 Bft) O 86 0 min 0,000 mm 2,2 UV-I 304 W/m 5,1 C 14,5 km/h (3 Bft)
09.10.2016 13:30 7,6 C 7,6 C 84 % 1021,8 hPa 0,0 mm 6,2 km/h (2 Bft) S-SO 156 0 min 0,000 mm 2,1 UV-I 299 W/m 5,1 C 11,3 km/h (2 Bft)
09.10.2016 13:31 7,6 C 7,6 C 83 % 1021,9 hPa 0,0 mm 5,7 km/h (1 Bft) O-NO 65 0 min 0,000 mm 2,1 UV-I 297 W/m 4,9 C 8,0 km/h (2 Bft)
09.10.2016 13:32 7,5 C 7,6 C 83 % 1021,9 hPa 0,0 mm 6,9 km/h (2 Bft) O-NO 76 0 min 0,000 mm 2,1 UV-I 301 W/m 4,8 C 8,0 km/h (2 Bft)
09.10.2016 13:33 7,4 C 7,5 C 83 % 1021,9 hPa 0,0 mm 1,7 km/h (1 Bft) O-NO 61 0 min 0,000 mm 2,2 UV-I 313 W/m 4,7 C 4,8 km/h (1 Bft)
09.10.2016 13:34 7,4 C 7,5 C 84 % 1021,8 hPa 0,0 mm 7,0 km/h (2 Bft) O-NO 76 1 min 0,000 mm 2,2 UV-I 338 W/m 4,9 C 9,7 km/h (2 Bft)
09.10.2016 13:35 7,4 C 7,4 C 83 % 1021,9 hPa 0,0 mm 12,1 km/h (2 Bft) O 81 1 min 0,000 mm 2,2 UV-I 339 W/m 4,7 C 16,1 km/h (3 Bft)
09.10.2016 13:36 7,4 C 7,4 C 83 % 1021,7 hPa 0,0 mm 7,8 km/h (2 Bft) NO 55 1 min 0,000 mm 2,4 UV-I 364 W/m 4,7 C 11,3 km/h (2 Bft)
09.10.2016 13:37 7,4 C 7,4 C 83 % 1021,8 hPa 0,0 mm 7,0 km/h (2 Bft) O 82 1 min 0,000 mm 2,4 UV-I 376 W/m 4,7 C 16,1 km/h (3 Bft)
09.10.2016 13:38 7,4 C 7,4 C 83 % 1021,8 hPa 0,0 mm 6,5 km/h (2 Bft) O-SO 107 1 min 0,000 mm 2,3 UV-I 410 W/m 4,7 C 12,9 km/h (3 Bft)
09.10.2016 13:39 7,3 C 7,4 C 84 % 1021,8 hPa 0,0 mm 3,1 km/h (1 Bft) O-NO 76 1 min 0,000 mm 2,3 UV-I 364 W/m 4,8 C 6,4 km/h (2 Bft)
09.10.2016 13:40 7,4 C 7,4 C 84 % 1021,7 hPa 0,0 mm 8,8 km/h (2 Bft) SO 125 1 min 0,000 mm 2,3 UV-I 355 W/m 4,9 C 14,5 km/h (3 Bft)
09.10.2016 13:41 7,4 C 7,4 C 83 % 1021,8 hPa 0,0 mm 9,1 km/h (2 Bft) N-NO 20 1 min 0,000 mm 2,3 UV-I 339 W/m 4,7 C 12,9 km/h (3 Bft)
09.10.2016 13:42 7,4 C 7,4 C 83 % 1021,8 hPa 0,0 mm 6,2 km/h (2 Bft) O 86 1 min 0,000 mm 2,2 UV-I 332 W/m 4,7 C 9,7 km/h (2 Bft)
09.10.2016 13:43 7,5 C 7,5 C 82 % 1021,8 hPa 0,0 mm 6,8 km/h (2 Bft) O 79 1 min 0,000 mm 2,2 UV-I 338 W/m 4,6 C 11,3 km/h (2 Bft)
09.10.2016 13:44 7,6 C 7,6 C 83 % 1021,8 hPa 0,0 mm 8,6 km/h (2 Bft) N-NO 32 1 min 0,000 mm 2,1 UV-I 320 W/m 4,9 C 14,5 km/h (3 Bft)
09.10.2016 13:45 7,6 C 7,6 C 81 % 1021,9 hPa 0,0 mm 7,1 km/h (2 Bft) N-NO 29 1 min 0,000 mm 2,2 UV-I 329 W/m 4,6 C 11,3 km/h (2 Bft)
09.10.2016 13:46 7,6 C 7,6 C 82 % 1021,9 hPa 0,0 mm 3,8 km/h (1 Bft) O-NO 57 1 min 0,000 mm 2,3 UV-I 454 W/m 4,7 C 6,4 km/h (2 Bft)
09.10.2016 13:47 7,6 C 7,6 C 82 % 1022,0 hPa 0,0 mm 5,2 km/h (1 Bft) O 80 1 min 0,000 mm 2,3 UV-I 436 W/m 4,7 C 11,3 km/h (2 Bft)
09.10.2016 13:48 7,6 C 7,6 C 82 % 1022,0 hPa 0,0 mm 7,4 km/h (2 Bft) SO 132 1 min 0,000 mm 2,2 UV-I 336 W/m 4,7 C 12,9 km/h (3 Bft)
09.10.2016 13:49 7,6 C 7,6 C 80 % 1022,0 hPa 0,0 mm 3,0 km/h (1 Bft) N-NO 14 1 min 0,000 mm 2,3 UV-I 413 W/m 4,4 C 6,4 km/h (2 Bft)
09.10.2016 13:50 7,6 C 7,6 C 82 % 1021,9 hPa 0,0 mm 4,3 km/h (1 Bft) NO 49 1 min 0,000 mm 2,2 UV-I 352 W/m 4,7 C 6,4 km/h (2 Bft)
09.10.2016 13:51 7,8 C 7,8 C 83 % 1021,9 hPa 0,0 mm 6,8 km/h (2 Bft) O-NO 75 1 min 0,000 mm 2,2 UV-I 338 W/m 5,1 C 12,9 km/h (3 Bft)
09.10.2016 13:52 7,8 C 7,8 C 81 % 1021,9 hPa 0,0 mm 5,0 km/h (1 Bft) NO 38 1 min 0,000 mm 2,2 UV-I 318 W/m 4,7 C 9,7 km/h (2 Bft)
09.10.2016 13:53 7,8 C 7,8 C 80 % 1021,9 hPa 0,0 mm 6,4 km/h (2 Bft) O-NO 58 0 min 0,000 mm 2,1 UV-I 295 W/m 4,6 C 12,9 km/h (3 Bft)
09.10.2016 13:54 7,7 C 7,8 C 79 % 1021,9 hPa 0,0 mm 6,8 km/h (2 Bft) O 86 0 min 0,000 mm 2,0 UV-I 278 W/m 4,3 C 11,3 km/h (2 Bft)
09.10.2016 13:55 7,7 C 7,8 C 81 % 1021,9 hPa 0,0 mm 2,8 km/h (1 Bft) O-NO 71 0 min 0,000 mm 2,0 UV-I 274 W/m 4,7 C 8,0 km/h (2 Bft)
09.10.2016 13:56 7,8 C 7,8 C 79 % 1021,8 hPa 0,0 mm 9,4 km/h (2 Bft) O 101 0 min 0,000 mm 2,0 UV-I 290 W/m 4,4 C 12,9 km/h (3 Bft)
09.10.2016 13:57 7,7 C 7,8 C 79 % 1021,8 hPa 0,0 mm 5,7 km/h (1 Bft) O-SO 108 0 min 0,000 mm 2,0 UV-I 290 W/m 4,3 C 8,0 km/h (2 Bft)
09.10.2016 13:58 7,7 C 7,7 C 79 % 1021,8 hPa 0,0 mm 3,9 km/h (1 Bft) O-NO 65 1 min 0,000 mm 2,0 UV-I 313 W/m 4,3 C 6,4 km/h (2 Bft)
09.10.2016 13:59 7,7 C 7,7 C 80 % 1021,8 hPa 0,0 mm 4,8 km/h (1 Bft) O-NO 63 0 min 0,000 mm 1,9 UV-I 269 W/m 4,5 C 8,0 km/h (2 Bft)
09.10.2016 14:00 7,7 C 7,7 C 80 % 1021,8 hPa 0,0 mm 5,5 km/h (1 Bft) O 95 0 min 0,000 mm 1,9 UV-I 262 W/m 4,5 C 8,0 km/h (2 Bft)
09.10.2016 14:01 7,7 C 7,7 C 80 % 1021,8 hPa 0,0 mm 4,1 km/h (1 Bft) O 84 0 min 0,178 mm 1,8 UV-I 260 W/m 4,5 C 8,0 km/h (2 Bft)
09.10.2016 14:02 7,7 C 7,7 C 81 % 1021,8 hPa 0,0 mm 4,9 km/h (1 Bft) O-NO 57 0 min 0,000 mm 1,8 UV-I 257 W/m 4,7 C 9,7 km/h (2 Bft)
09.10.2016 14:03 7,8 C 7,8 C 83 % 1021,7 hPa 0,0 mm 6,7 km/h (2 Bft) O-NO 61 0 min 0,000 mm 1,8 UV-I 255 W/m 5,1 C 9,7 km/h (2 Bft)
09.10.2016 14:04 7,8 C 7,8 C 81 % 1021,8 hPa 0,0 mm 5,6 km/h (1 Bft) O-NO 74 0 min 0,000 mm 1,8 UV-I 250 W/m 4,7 C 8,0 km/h (2 Bft)
09.10.2016 14:05 7,8 C 7,8 C 79 % 1021,8 hPa 0,0 mm 5,9 km/h (2 Bft) NO 41 0 min 0,000 mm 1,8 UV-I 250 W/m 4,4 C 8,0 km/h (2 Bft)
09.10.2016 14:06 7,8 C 7,8 C 80 % 1021,8 hPa 0,0 mm 4,1 km/h (1 Bft) NO 55 0 min 0,000 mm 1,7 UV-I 250 W/m 4,6 C 6,4 km/h (2 Bft)
09.10.2016 14:07 7,9 C 7,9 C 79 % 1021,8 hPa 0,0 mm 5,2 km/h (1 Bft) O-NO 65 0 min 0,000 mm 1,7 UV-I 246 W/m 4,5 C 9,7 km/h (2 Bft)
09.10.2016 14:08 7,9 C 7,9 C 75 % 1021,7 hPa 0,0 mm 4,9 km/h (1 Bft) NO 54 0 min 0,000 mm 1,7 UV-I 248 W/m 3,7 C 9,7 km/h (2 Bft)
09.10.2016 14:09 7,9 C 7,9 C 76 % 1021,8 hPa 0,0 mm 7,9 km/h (2 Bft) N-NO 14 0 min 0,000 mm 1,7 UV-I 246 W/m 3,9 C 11,3 km/h (2 Bft)
09.10.2016 14:10 7,9 C 7,9 C 76 % 1021,7 hPa 0,0 mm 4,9 km/h (1 Bft) O-NO 63 0 min 0,000 mm 1,7 UV-I 246 W/m 3,9 C 6,4 km/h (2 Bft)
09.10.2016 14:11 7,9 C 7,9 C 77 % 1021,7 hPa 0,0 mm 5,5 km/h (1 Bft) O-NO 62 0 min 0,000 mm 1,7 UV-I 248 W/m 4,1 C 8,0 km/h (2 Bft)
09.10.2016 14:12 7,8 C 7,9 C 77 % 1021,7 hPa 0,0 mm 2,4 km/h (1 Bft) O-NO 78 0 min 0,000 mm 1,7 UV-I 246 W/m 4,0 C 4,8 km/h (1 Bft)
09.10.2016 14:13 7,8 C 7,8 C 76 % 1021,8 hPa 0,0 mm 3,1 km/h (1 Bft) NO 49 0 min 0,000 mm 1,7 UV-I 243 W/m 3,8 C 4,8 km/h (1 Bft)
09.10.2016 14:14 7,8 C 7,8 C 78 % 1021,7 hPa 0,0 mm 2,7 km/h (1 Bft) O-NO 70 0 min 0,000 mm 1,7 UV-I 237 W/m 4,2 C 6,4 km/h (2 Bft)
09.10.2016 14:15 7,8 C 7,8 C 79 % 1021,7 hPa 0,0 mm 7,8 km/h (2 Bft) N-NO 17 0 min 0,000 mm 1,7 UV-I 232 W/m 4,4 C 14,5 km/h (3 Bft)
09.10.2016 14:16 7,8 C 7,8 C 78 % 1021,7 hPa 0,0 mm 7,8 km/h (2 Bft) O-NO 69 0 min 0,000 mm 1,7 UV-I 225 W/m 4,2 C 11,3 km/h (2 Bft)
09.10.2016 14:17 7,9 C 7,9 C 79 % 1021,7 hPa 0,0 mm 8,9 km/h (2 Bft) N-NO 33 0 min 0,000 mm 1,7 UV-I 225 W/m 4,5 C 14,5 km/h (3 Bft)
09.10.2016 14:18 7,8 C 7,9 C 79 % 1021,7 hPa 0,0 mm 4,6 km/h (1 Bft) NO 44 0 min 0,000 mm 1,7 UV-I 223 W/m 4,4 C 8,0 km/h (2 Bft)
09.10.2016 14:19 7,8 C 7,9 C 79 % 1021,6 hPa 0,0 mm 5,3 km/h (1 Bft) O 80 0 min 0,000 mm 1,6 UV-I 223 W/m 4,4 C 9,7 km/h (2 Bft)
09.10.2016 14:20 7,8 C 7,8 C 80 % 1021,6 hPa 0,0 mm 4,3 km/h (1 Bft) O-SO 111 0 min 0,000 mm 1,6 UV-I 221 W/m 4,6 C 6,4 km/h (2 Bft)
09.10.2016 14:21 7,8 C 7,8 C 79 % 1021,7 hPa 0,0 mm 1,8 km/h (1 Bft) O-NO 77 0 min 0,000 mm 1,6 UV-I 220 W/m 4,4 C 3,2 km/h (1 Bft)
09.10.2016 14:22 7,7 C 7,8 C 79 % 1021,7 hPa 0,0 mm 5,2 km/h (1 Bft) O-NO 57 0 min 0,000 mm 1,6 UV-I 213 W/m 4,3 C 8,0 km/h (2 Bft)
09.10.2016 14:23 7,8 C 7,8 C 82 % 1021,6 hPa 0,0 mm 4,6 km/h (1 Bft) NO 47 0 min 0,000 mm 1,6 UV-I 209 W/m 4,9 C 6,4 km/h (2 Bft)
09.10.2016 14:24 7,8 C 7,8 C 81 % 1021,7 hPa 0,0 mm 3,0 km/h (1 Bft) O-NO 67 0 min 0,000 mm 1,5 UV-I 207 W/m 4,7 C 4,8 km/h (1 Bft)
09.10.2016 14:25 7,8 C 7,9 C 81 % 1021,7 hPa 0,0 mm 3,2 km/h (1 Bft) NO 54 0 min 0,000 mm 1,5 UV-I 207 W/m 4,7 C 4,8 km/h (1 Bft)
09.10.2016 14:26 7,9 C 7,9 C 82 % 1021,7 hPa 0,0 mm 3,9 km/h (1 Bft) O 80 0 min 0,000 mm 1,5 UV-I 207 W/m 5,0 C 6,4 km/h (2 Bft)
09.10.2016 14:27 7,9 C 7,9 C 82 % 1021,7 hPa 0,0 mm 4,0 km/h (1 Bft) O 82 0 min 0,000 mm 1,5 UV-I 209 W/m 5,0 C 8,0 km/h (2 Bft)
09.10.2016 14:28 8,0 C 8,0 C 83 % 1021,7 hPa 0,0 mm 3,5 km/h (1 Bft) NO 56 0 min 0,000 mm 1,5 UV-I 209 W/m 5,3 C 6,4 km/h (2 Bft)
09.10.2016 14:29 7,9 C 8,0 C 81 % 1021,7 hPa 0,0 mm 4,4 km/h (1 Bft) O-NO 78 0 min 0,000 mm 1,5 UV-I 207 W/m 4,8 C 8,0 km/h (2 Bft)
09.10.2016 14:30 7,9 C 7,9 C 81 % 1021,7 hPa 0,0 mm 4,8 km/h (1 Bft) NO 50 0 min 0,000 mm 1,5 UV-I 207 W/m 4,8 C 8,0 km/h (2 Bft)
09.10.2016 14:31 8,0 C 8,1 C 81 % 1021,7 hPa 0,0 mm 3,1 km/h (1 Bft) NO 50 0 min 0,000 mm 1,5 UV-I 206 W/m 4,9 C 4,8 km/h (1 Bft)
09.10.2016 14:32 8,1 C 8,1 C 82 % 1021,7 hPa 0,0 mm 2,8 km/h (1 Bft) O-NO 76 0 min 0,000 mm 1,5 UV-I 209 W/m 5,2 C 6,4 km/h (2 Bft)
09.10.2016 14:33 8,1 C 8,1 C 82 % 1021,7 hPa 0,0 mm 3,2 km/h (1 Bft) N-NW 338 0 min 0,000 mm 1,5 UV-I 209 W/m 5,2 C 6,4 km/h (2 Bft)
09.10.2016 14:34 8,1 C 8,1 C 81 % 1021,7 hPa 0,0 mm 4,8 km/h (1 Bft) N 350 0 min 0,000 mm 1,5 UV-I 211 W/m 5,0 C 6,4 km/h (2 Bft)
09.10.2016 14:35 8,1 C 8,1 C 82 % 1021,6 hPa 0,0 mm 6,9 km/h (2 Bft) N-NO 26 0 min 0,000 mm 1,5 UV-I 209 W/m 5,2 C 8,0 km/h (2 Bft)
09.10.2016 14:36 8,1 C 8,2 C 81 % 1021,7 hPa 0,0 mm 6,2 km/h (2 Bft) N 360 0 min 0,000 mm 1,5 UV-I 207 W/m 5,0 C 9,7 km/h (2 Bft)
09.10.2016 14:37 8,1 C 8,2 C 80 % 1021,7 hPa 0,0 mm 5,2 km/h (1 Bft) N-NO 27 0 min 0,000 mm 1,5 UV-I 204 W/m 4,9 C 6,4 km/h (2 Bft)
09.10.2016 14:38 8,1 C 8,1 C 80 % 1021,6 hPa 0,0 mm 6,4 km/h (2 Bft) O-NO 68 0 min 0,000 mm 1,5 UV-I 202 W/m 4,9 C 8,0 km/h (2 Bft)
09.10.2016 14:39 8,0 C 8,1 C 80 % 1021,7 hPa 0,0 mm 6,0 km/h (2 Bft) NO 44 0 min 0,000 mm 1,5 UV-I 209 W/m 4,8 C 8,0 km/h (2 Bft)
09.10.2016 14:40 7,9 C 8,0 C 80 % 1021,7 hPa 0,0 mm 4,6 km/h (1 Bft) N-NO 31 0 min 0,000 mm 1,5 UV-I 213 W/m 4,7 C 6,4 km/h (2 Bft)
09.10.2016 14:41 7,9 C 7,9 C 80 % 1021,7 hPa 0,0 mm 6,0 km/h (2 Bft) NO 53 0 min 0,000 mm 1,4 UV-I 211 W/m 4,7 C 8,0 km/h (2 Bft)
09.10.2016 14:42 7,9 C 7,9 C 81 % 1021,7 hPa 0,0 mm 3,7 km/h (1 Bft) N-NO 21 0 min 0,000 mm 1,4 UV-I 207 W/m 4,8 C 6,4 km/h (2 Bft)
09.10.2016 14:43 7,9 C 7,9 C 80 % 1021,7 hPa 0,0 mm 5,1 km/h (1 Bft) NO 40 0 min 0,000 mm 1,3 UV-I 199 W/m 4,7 C 8,0 km/h (2 Bft)
09.10.2016 14:44 7,9 C 7,9 C 80 % 1021,7 hPa 0,0 mm 3,7 km/h (1 Bft) N-NO 30 0 min 0,000 mm 1,3 UV-I 186 W/m 4,7 C 6,4 km/h (2 Bft)
09.10.2016 14:45 7,9 C 7,9 C 80 % 1021,7 hPa 0,0 mm 4,3 km/h (1 Bft) NO 54 0 min 0,000 mm 1,2 UV-I 179 W/m 4,7 C 6,4 km/h (2 Bft)
09.10.2016 14:46 7,9 C 7,9 C 81 % 1021,7 hPa 0,0 mm 4,8 km/h (1 Bft) O-NO 78 0 min 0,000 mm 1,2 UV-I 178 W/m 4,8 C 8,0 km/h (2 Bft)
09.10.2016 14:47 7,9 C 7,9 C 82 % 1021,7 hPa 0,0 mm 7,0 km/h (2 Bft) NO 47 0 min 0,000 mm 1,2 UV-I 176 W/m 5,0 C 9,7 km/h (2 Bft)
09.10.2016 14:48 7,9 C 7,9 C 80 % 1021,7 hPa 0,0 mm 7,8 km/h (2 Bft) O-NO 71 0 min 0,000 mm 1,3 UV-I 174 W/m 4,7 C 16,1 km/h (3 Bft)
09.10.2016 14:49 7,9 C 7,9 C 81 % 1021,7 hPa 0,0 mm 6,4 km/h (2 Bft) NO 40 0 min 0,000 mm 1,3 UV-I 178 W/m 4,8 C 12,9 km/h (3 Bft)
09.10.2016 14:50 7,9 C 7,9 C 80 % 1021,7 hPa 0,0 mm 3,6 km/h (1 Bft) N 5 0 min 0,000 mm 1,4 UV-I 190 W/m 4,7 C 6,4 km/h (2 Bft)
09.10.2016 14:51 7,9 C 7,9 C 81 % 1021,6 hPa 0,0 mm 4,6 km/h (1 Bft) NO 40 0 min 0,000 mm 1,4 UV-I 204 W/m 4,8 C 6,4 km/h (2 Bft)
09.10.2016 14:52 8,0 C 8,0 C 81 % 1021,6 hPa 0,0 mm 4,6 km/h (1 Bft) O-NO 71 0 min 0,000 mm 1,4 UV-I 200 W/m 4,9 C 6,4 km/h (2 Bft)
09.10.2016 14:53 7,9 C 8,0 C 81 % 1021,7 hPa 0,0 mm 3,8 km/h (1 Bft) NO 45 0 min 0,000 mm 1,3 UV-I 193 W/m 4,8 C 6,4 km/h (2 Bft)
09.10.2016 14:54 7,9 C 7,9 C 82 % 1021,7 hPa 0,0 mm 3,1 km/h (1 Bft) O-SO 123 0 min 0,000 mm 1,3 UV-I 183 W/m 5,0 C 4,8 km/h (1 Bft)
09.10.2016 14:55 7,9 C 7,9 C 81 % 1021,7 hPa 0,0 mm 3,3 km/h (1 Bft) O-NO 70 0 min 0,000 mm 1,2 UV-I 171 W/m 4,8 C 6,4 km/h (2 Bft)
09.10.2016 14:56 7,9 C 7,9 C 82 % 1021,7 hPa 0,0 mm 3,6 km/h (1 Bft) O-NO 67 0 min 0,000 mm 1,2 UV-I 160 W/m 5,0 C 6,4 km/h (2 Bft)
09.10.2016 14:57 7,8 C 7,9 C 82 % 1021,7 hPa 0,0 mm 4,6 km/h (1 Bft) NO 48 0 min 0,000 mm 1,2 UV-I 163 W/m 4,9 C 8,0 km/h (2 Bft)
09.10.2016 14:58 7,8 C 7,8 C 82 % 1021,7 hPa 0,0 mm 5,6 km/h (1 Bft) O-NO 69 0 min 0,000 mm 1,3 UV-I 172 W/m 4,9 C 8,0 km/h (2 Bft)
09.10.2016 14:59 7,9 C 7,9 C 83 % 1021,8 hPa 0,0 mm 5,6 km/h (1 Bft) O-SO 109 0 min 0,000 mm 1,3 UV-I 176 W/m 5,2 C 8,0 km/h (2 Bft)
09.10.2016 15:00 7,9 C 7,9 C 80 % 1021,7 hPa 0,0 mm 4,0 km/h (1 Bft) NO 44 0 min 0,000 mm 1,3 UV-I 185 W/m 4,7 C 6,4 km/h (2 Bft)
09.10.2016 15:01 7,8 C 7,9 C 79 % 1021,7 hPa 0,0 mm 5,1 km/h (1 Bft) O-NO 76 0 min 0,101 mm 1,3 UV-I 185 W/m 4,4 C 11,3 km/h (2 Bft)
09.10.2016 15:02 7,9 C 7,9 C 79 % 1021,7 hPa 0,0 mm 4,6 km/h (1 Bft) NO 55 0 min 0,000 mm 1,3 UV-I 181 W/m 4,5 C 6,4 km/h (2 Bft)
09.10.2016 15:03 7,9 C 7,9 C 78 % 1021,7 hPa 0,0 mm 6,1 km/h (2 Bft) N 355 0 min 0,000 mm 1,3 UV-I 181 W/m 4,3 C 9,7 km/h (2 Bft)
09.10.2016 15:04 7,9 C 7,9 C 78 % 1021,7 hPa 0,0 mm 7,0 km/h (2 Bft) N-NO 19 0 min 0,000 mm 1,4 UV-I 181 W/m 4,3 C 8,0 km/h (2 Bft)
09.10.2016 15:05 7,9 C 8,0 C 78 % 1021,7 hPa 0,0 mm 7,0 km/h (2 Bft) NO 48 0 min 0,000 mm 1,4 UV-I 185 W/m 4,3 C 11,3 km/h (2 Bft)
09.10.2016 15:06 7,9 C 8,0 C 77 % 1021,7 hPa 0,0 mm 7,5 km/h (2 Bft) NO 44 0 min 0,000 mm 1,4 UV-I 185 W/m 4,1 C 11,3 km/h (2 Bft)
09.10.2016 15:07 7,9 C 7,9 C 76 % 1021,6 hPa 0,0 mm 6,5 km/h (2 Bft) N-NO 17 0 min 0,000 mm 1,4 UV-I 185 W/m 3,9 C 8,0 km/h (2 Bft)
09.10.2016 15:08 7,9 C 7,9 C 76 % 1021,6 hPa 0,0 mm 5,0 km/h (1 Bft) NO 40 0 min 0,000 mm 1,4 UV-I 186 W/m 3,9 C 8,0 km/h (2 Bft)
09.10.2016 15:09 7,9 C 7,9 C 77 % 1021,6 hPa 0,0 mm 4,2 km/h (1 Bft) N 5 0 min 0,000 mm 1,4 UV-I 185 W/m 4,1 C 8,0 km/h (2 Bft)
09.10.2016 15:10 8,0 C 8,0 C 77 % 1021,6 hPa 0,0 mm 2,8 km/h (1 Bft) NO 52 0 min 0,000 mm 1,4 UV-I 183 W/m 4,2 C 4,8 km/h (1 Bft)
09.10.2016 15:11 8,0 C 8,0 C 77 % 1021,6 hPa 0,0 mm 6,6 km/h (2 Bft) O-NO 58 0 min 0,000 mm 1,3 UV-I 183 W/m 4,2 C 8,0 km/h (2 Bft)
09.10.2016 15:12 7,9 C 8,0 C 77 % 1021,6 hPa 0,0 mm 4,7 km/h (1 Bft) N-NO 30 0 min 0,000 mm 1,3 UV-I 181 W/m 4,1 C 6,4 km/h (2 Bft)
09.10.2016 15:13 7,9 C 7,9 C 76 % 1021,6 hPa 0,0 mm 3,2 km/h (1 Bft) O-NO 73 0 min 0,000 mm 1,3 UV-I 181 W/m 3,9 C 6,4 km/h (2 Bft)
09.10.2016 15:14 7,9 C 7,9 C 76 % 1021,6 hPa 0,0 mm 5,2 km/h (1 Bft) N 5 0 min 0,000 mm 1,3 UV-I 186 W/m 3,9 C 8,0 km/h (2 Bft)
09.10.2016 15:15 7,9 C 7,9 C 77 % 1021,6 hPa 0,0 mm 5,0 km/h (1 Bft) NO 42 0 min 0,000 mm 1,3 UV-I 192 W/m 4,1 C 6,4 km/h (2 Bft)
09.10.2016 15:16 8,0 C 8,0 C 78 % 1021,5 hPa 0,0 mm 6,1 km/h (2 Bft) N 360 0 min 0,000 mm 1,3 UV-I 202 W/m 4,4 C 8,0 km/h (2 Bft)
09.10.2016 15:17 8,1 C 8,1 C 78 % 1021,5 hPa 0,0 mm 5,4 km/h (1 Bft) O-NO 69 0 min 0,000 mm 1,4 UV-I 209 W/m 4,5 C 6,4 km/h (2 Bft)
09.10.2016 15:18 8,1 C 8,1 C 79 % 1021,6 hPa 0,0 mm 4,5 km/h (1 Bft) O-NO 69 0 min 0,000 mm 1,4 UV-I 209 W/m 4,7 C 8,0 km/h (2 Bft)
09.10.2016 15:19 8,1 C 8,1 C 78 % 1021,5 hPa 0,0 mm 4,8 km/h (1 Bft) N-NO 22 0 min 0,000 mm 1,4 UV-I 223 W/m 4,5 C 9,7 km/h (2 Bft)
09.10.2016 15:20 8,2 C 8,2 C 78 % 1021,6 hPa 0,0 mm 6,6 km/h (2 Bft) O-SO 118 0 min 0,000 mm 1,4 UV-I 211 W/m 4,6 C 11,3 km/h (2 Bft)
09.10.2016 15:21 8,2 C 8,2 C 78 % 1021,5 hPa 0,0 mm 6,0 km/h (2 Bft) O-NO 65 0 min 0,000 mm 1,3 UV-I 195 W/m 4,6 C 8,0 km/h (2 Bft)
09.10.2016 15:22 8,2 C 8,2 C 78 % 1021,5 hPa 0,0 mm 4,6 km/h (1 Bft) NO 36 0 min 0,000 mm 1,3 UV-I 181 W/m 4,6 C 6,4 km/h (2 Bft)
09.10.2016 15:23 8,1 C 8,2 C 77 % 1021,5 hPa 0,0 mm 4,0 km/h (1 Bft) NO 40 0 min 0,000 mm 1,3 UV-I 171 W/m 4,3 C 6,4 km/h (2 Bft)
09.10.2016 15:24 8,1 C 8,1 C 76 % 1021,5 hPa 0,0 mm 3,8 km/h (1 Bft) O-NO 65 0 min 0,000 mm 1,3 UV-I 165 W/m 4,1 C 6,4 km/h (2 Bft)
09.10.2016 15:25 8,1 C 8,2 C 77 % 1021,5 hPa 0,0 mm 4,2 km/h (1 Bft) NO 37 0 min 0,000 mm 1,3 UV-I 160 W/m 4,3 C 6,4 km/h (2 Bft)
09.10.2016 15:26 8,2 C 8,2 C 76 % 1021,4 hPa 0,0 mm 6,5 km/h (2 Bft) NO 49 0 min 0,000 mm 1,3 UV-I 146 W/m 4,2 C 12,9 km/h (3 Bft)
09.10.2016 15:27 8,1 C 8,2 C 75 % 1021,4 hPa 0,0 mm 4,5 km/h (1 Bft) N-NO 23 0 min 0,000 mm 1,3 UV-I 144 W/m 3,9 C 8,0 km/h (2 Bft)
09.10.2016 15:28 8,1 C 8,1 C 76 % 1021,5 hPa 0,0 mm 6,6 km/h (2 Bft) N 360 0 min 0,000 mm 1,3 UV-I 144 W/m 4,1 C 11,3 km/h (2 Bft)
09.10.2016 15:29 8,0 C 8,1 C 75 % 1021,4 hPa 0,0 mm 3,6 km/h (1 Bft) O 86 0 min 0,000 mm 1,3 UV-I 149 W/m 3,8 C 6,4 km/h (2 Bft)
09.10.2016 15:30 7,9 C 8,0 C 75 % 1021,5 hPa 0,0 mm 5,9 km/h (2 Bft) NO 44 0 min 0,000 mm 1,3 UV-I 162 W/m 3,7 C 9,7 km/h (2 Bft)
09.10.2016 15:31 7,9 C 7,9 C 75 % 1021,5 hPa 0,0 mm 9,1 km/h (2 Bft) N-NO 12 0 min 0,000 mm 1,3 UV-I 174 W/m 3,7 C 14,5 km/h (3 Bft)
09.10.2016 15:32 7,9 C 8,0 C 76 % 1021,5 hPa 0,0 mm 4,6 km/h (1 Bft) NO 44 0 min 0,000 mm 1,4 UV-I 200 W/m 3,9 C 8,0 km/h (2 Bft)
09.10.2016 15:33 7,9 C 8,0 C 76 % 1021,5 hPa 0,0 mm 7,4 km/h (2 Bft) O 89 0 min 0,000 mm 1,4 UV-I 207 W/m 3,9 C 12,9 km/h (3 Bft)
09.10.2016 15:34 7,9 C 7,9 C 76 % 1021,5 hPa 0,0 mm 5,0 km/h (1 Bft) O-NO 71 0 min 0,000 mm 1,4 UV-I 209 W/m 3,9 C 6,4 km/h (2 Bft)
09.10.2016 15:35 7,9 C 7,9 C 77 % 1021,5 hPa 0,0 mm 3,6 km/h (1 Bft) O-NO 76 0 min 0,000 mm 1,4 UV-I 204 W/m 4,1 C 6,4 km/h (2 Bft)
09.10.2016 15:36 7,9 C 7,9 C 77 % 1021,5 hPa 0,0 mm 5,3 km/h (1 Bft) O-NO 69 0 min 0,000 mm 1,4 UV-I 204 W/m 4,1 C 8,0 km/h (2 Bft)
09.10.2016 15:37 7,9 C 7,9 C 78 % 1021,5 hPa 0,0 mm 6,7 km/h (2 Bft) O-NO 59 1 min 0,000 mm 1,5 UV-I 258 W/m 4,3 C 11,3 km/h (2 Bft)
09.10.2016 15:38 8,0 C 8,0 C 77 % 1021,5 hPa 0,0 mm 4,2 km/h (1 Bft) O 98 1 min 0,000 mm 1,5 UV-I 257 W/m 4,2 C 6,4 km/h (2 Bft)
09.10.2016 15:39 8,0 C 8,0 C 78 % 1021,5 hPa 0,0 mm 1,6 km/h (1 Bft) O 98 0 min 0,000 mm 1,5 UV-I 218 W/m 4,4 C 4,8 km/h (1 Bft)
09.10.2016 15:40 8,0 C 8,0 C 77 % 1021,5 hPa 0,0 mm 5,6 km/h (1 Bft) O-SO 116 0 min 0,000 mm 1,5 UV-I 218 W/m 4,2 C 8,0 km/h (2 Bft)
09.10.2016 15:41 8,0 C 8,0 C 77 % 1021,5 hPa 0,0 mm 5,8 km/h (2 Bft) NO 46 0 min 0,000 mm 1,3 UV-I 218 W/m 4,2 C 9,7 km/h (2 Bft)
09.10.2016 15:42 8,0 C 8,0 C 76 % 1021,5 hPa 0,0 mm 5,6 km/h (1 Bft) O-NO 73 0 min 0,000 mm 1,2 UV-I 135 W/m 4,0 C 11,3 km/h (2 Bft)
09.10.2016 15:43 8,0 C 8,0 C 77 % 1021,5 hPa 0,0 mm 3,9 km/h (1 Bft) NO 40 0 min 0,000 mm 1,2 UV-I 102 W/m 4,2 C 8,0 km/h (2 Bft)
09.10.2016 15:44 8,1 C 8,1 C 77 % 1021,4 hPa 0,0 mm 2,1 km/h (1 Bft) O-NO 66 0 min 0,000 mm 1,2 UV-I 100 W/m 4,3 C 4,8 km/h (1 Bft)
09.10.2016 15:45 8,0 C 8,1 C 78 % 1021,5 hPa 0,0 mm 4,6 km/h (1 Bft) NO 34 0 min 0,000 mm 1,2 UV-I 107 W/m 4,4 C 8,0 km/h (2 Bft)
09.10.2016 15:46 8,0 C 8,0 C 77 % 1021,4 hPa 0,0 mm 7,7 km/h (2 Bft) N-NO 28 0 min 0,000 mm 1,2 UV-I 116 W/m 4,2 C 9,7 km/h (2 Bft)
09.10.2016 15:47 8,0 C 8,0 C 76 % 1021,4 hPa 0,0 mm 5,4 km/h (1 Bft) N-NO 28 0 min 0,000 mm 1,2 UV-I 128 W/m 4,0 C 9,7 km/h (2 Bft)
09.10.2016 15:48 7,9 C 8,0 C 76 % 1021,4 hPa 0,0 mm 11,2 km/h (2 Bft) N-NO 27 0 min 0,000 mm 1,2 UV-I 139 W/m 3,9 C 16,1 km/h (3 Bft)
09.10.2016 15:49 7,9 C 7,9 C 77 % 1021,4 hPa 0,0 mm 5,3 km/h (1 Bft) NO 34 0 min 0,000 mm 1,2 UV-I 149 W/m 4,1 C 9,7 km/h (2 Bft)
09.10.2016 15:50 7,9 C 7,9 C 77 % 1021,4 hPa 0,0 mm 9,3 km/h (2 Bft) NO 49 0 min 0,000 mm 1,2 UV-I 162 W/m 4,1 C 14,5 km/h (3 Bft)
09.10.2016 15:51 7,9 C 7,9 C 78 % 1021,4 hPa 0,0 mm 8,4 km/h (2 Bft) O-NO 75 0 min 0,000 mm 1,3 UV-I 172 W/m 4,3 C 11,3 km/h (2 Bft)
09.10.2016 15:52 7,9 C 7,9 C 77 % 1021,4 hPa 0,0 mm 9,0 km/h (2 Bft) NO 42 0 min 0,000 mm 1,3 UV-I 179 W/m 4,1 C 14,5 km/h (3 Bft)
09.10.2016 15:53 7,9 C 8,0 C 77 % 1021,3 hPa 0,0 mm 5,9 km/h (2 Bft) NO 53 0 min 0,000 mm 1,3 UV-I 186 W/m 4,1 C 8,0 km/h (2 Bft)
09.10.2016 15:54 7,9 C 7,9 C 77 % 1021,4 hPa 0,0 mm 7,0 km/h (2 Bft) N 350 0 min 0,000 mm 1,3 UV-I 192 W/m 4,1 C 12,9 km/h (3 Bft)
09.10.2016 15:55 7,9 C 7,9 C 76 % 1021,3 hPa 0,0 mm 6,9 km/h (2 Bft) NO 56 0 min 0,000 mm 1,3 UV-I 202 W/m 3,9 C 9,7 km/h (2 Bft)
09.10.2016 15:56 8,0 C 8,0 C 77 % 1021,4 hPa 0,0 mm 6,2 km/h (2 Bft) O-NO 67 0 min 0,000 mm 1,3 UV-I 211 W/m 4,2 C 11,3 km/h (2 Bft)
09.10.2016 15:57 7,9 C 8,0 C 77 % 1021,4 hPa 0,0 mm 4,1 km/h (1 Bft) N-NO 17 0 min 0,000 mm 1,3 UV-I 207 W/m 4,1 C 6,4 km/h (2 Bft)
09.10.2016 15:58 8,0 C 8,0 C 78 % 1021,4 hPa 0,0 mm 6,6 km/h (2 Bft) NO 42 0 min 0,000 mm 1,3 UV-I 206 W/m 4,4 C 9,7 km/h (2 Bft)
09.10.2016 15:59 8,0 C 8,1 C 77 % 1021,4 hPa 0,0 mm 7,4 km/h (2 Bft) NO 51 1 min 0,000 mm 1,3 UV-I 230 W/m 4,2 C 11,3 km/h (2 Bft)
09.10.2016 16:00 8,0 C 8,0 C 77 % 1021,4 hPa 0,0 mm 9,1 km/h (2 Bft) NO 53 1 min 0,000 mm 1,3 UV-I 230 W/m 4,2 C 12,9 km/h (3 Bft)
09.10.2016 16:01 8,1 C 8,1 C 77 % 1021,3 hPa 0,0 mm 5,0 km/h (1 Bft) N-NO 17 0 min 0,102 mm 1,3 UV-I 192 W/m 4,3 C 8,0 km/h (2 Bft)
09.10.2016 16:02 8,0 C 8,1 C 77 % 1021,4 hPa 0,0 mm 6,8 km/h (2 Bft) NO 40 0 min 0,000 mm 1,2 UV-I 160 W/m 4,2 C 9,7 km/h (2 Bft)
09.10.2016 16:03 8,1 C 8,1 C 77 % 1021,3 hPa 0,0 mm 4,8 km/h (1 Bft) N 355 0 min 0,000 mm 1,2 UV-I 165 W/m 4,3 C 11,3 km/h (2 Bft)
09.10.2016 16:04 8,0 C 8,1 C 77 % 1021,4 hPa 0,0 mm 5,2 km/h (1 Bft) NO 55 0 min 0,000 mm 1,2 UV-I 183 W/m 4,2 C 8,0 km/h (2 Bft)
09.10.2016 16:05 8,0 C 8,1 C 77 % 1021,4 hPa 0,0 mm 5,9 km/h (2 Bft) O-NO 57 0 min 0,000 mm 1,1 UV-I 144 W/m 4,2 C 9,7 km/h (2 Bft)
09.10.2016 16:06 8,0 C 8,1 C 77 % 1021,3 hPa 0,0 mm 6,2 km/h (2 Bft) N-NO 17 0 min 0,000 mm 1,1 UV-I 151 W/m 4,2 C 9,7 km/h (2 Bft)
09.10.2016 16:07 8,0 C 8,1 C 77 % 1021,3 hPa 0,0 mm 6,0 km/h (2 Bft) NO 42 0 min 0,000 mm 1,1 UV-I 149 W/m 4,2 C 9,7 km/h (2 Bft)
09.10.2016 16:08 8,1 C 8,1 C 77 % 1021,4 hPa 0,0 mm 4,4 km/h (1 Bft) N-NO 15 0 min 0,000 mm 1,1 UV-I 153 W/m 4,3 C 6,4 km/h (2 Bft)
09.10.2016 16:09 8,0 C 8,1 C 76 % 1021,4 hPa 0,0 mm 6,7 km/h (2 Bft) N-NO 27 0 min 0,000 mm 1,1 UV-I 156 W/m 4,0 C 11,3 km/h (2 Bft)
09.10.2016 16:10 8,1 C 8,1 C 77 % 1021,4 hPa 0,0 mm 5,4 km/h (1 Bft) O-NO 59 0 min 0,000 mm 1,0 UV-I 148 W/m 4,3 C 8,0 km/h (2 Bft)
09.10.2016 16:11 8,0 C 8,1 C 76 % 1021,4 hPa 0,0 mm 4,8 km/h (1 Bft) N-NO 32 0 min 0,000 mm 1,0 UV-I 139 W/m 4,0 C 8,0 km/h (2 Bft)
09.10.2016 16:12 8,0 C 8,0 C 76 % 1021,4 hPa 0,0 mm 3,4 km/h (1 Bft) O-NO 71 0 min 0,000 mm 0,9 UV-I 130 W/m 4,0 C 12,9 km/h (3 Bft)
09.10.2016 16:13 8,0 C 8,0 C 77 % 1021,4 hPa 0,0 mm 7,0 km/h (2 Bft) O-NO 61 0 min 0,000 mm 0,9 UV-I 120 W/m 4,2 C 9,7 km/h (2 Bft)
09.10.2016 16:14 8,0 C 8,0 C 76 % 1021,5 hPa 0,0 mm 4,1 km/h (1 Bft) O-NO 62 0 min 0,000 mm 0,9 UV-I 120 W/m 4,0 C 6,4 km/h (2 Bft)
09.10.2016 16:15 8,0 C 8,0 C 77 % 1021,5 hPa 0,0 mm 4,8 km/h (1 Bft) NO 54 0 min 0,000 mm 0,9 UV-I 123 W/m 4,2 C 8,0 km/h (2 Bft)
09.10.2016 16:16 8,0 C 8,0 C 77 % 1021,5 hPa 0,0 mm 1,9 km/h (1 Bft) NO 54 0 min 0,000 mm 0,9 UV-I 127 W/m 4,2 C 3,2 km/h (1 Bft)
09.10.2016 16:17 7,9 C 8,0 C 78 % 1021,5 hPa 0,0 mm 4,0 km/h (1 Bft) NO 46 0 min 0,000 mm 0,9 UV-I 130 W/m 4,3 C 6,4 km/h (2 Bft)
09.10.2016 16:18 7,9 C 7,9 C 77 % 1021,5 hPa 0,0 mm 2,9 km/h (1 Bft) NO 42 0 min 0,000 mm 0,9 UV-I 130 W/m 4,1 C 4,8 km/h (1 Bft)
09.10.2016 16:19 7,9 C 7,9 C 77 % 1021,5 hPa 0,0 mm 6,1 km/h (2 Bft) NO 39 0 min 0,000 mm 0,9 UV-I 128 W/m 4,1 C 11,3 km/h (2 Bft)
09.10.2016 16:20 7,9 C 7,9 C 77 % 1021,5 hPa 0,0 mm 10,7 km/h (2 Bft) NO 46 0 min 0,000 mm 0,9 UV-I 127 W/m 4,1 C 16,1 km/h (3 Bft)
09.10.2016 16:21 7,9 C 7,9 C 76 % 1021,5 hPa 0,0 mm 8,2 km/h (2 Bft) O-NO 58 0 min 0,000 mm 0,9 UV-I 130 W/m 3,9 C 12,9 km/h (3 Bft)
09.10.2016 16:22 7,9 C 7,9 C 77 % 1021,5 hPa 0,0 mm 3,6 km/h (1 Bft) NO 49 0 min 0,000 mm 0,9 UV-I 132 W/m 4,1 C 4,8 km/h (1 Bft)
09.10.2016 16:23 7,9 C 7,9 C 78 % 1021,5 hPa 0,0 mm 4,2 km/h (1 Bft) O-NO 66 0 min 0,000 mm 0,9 UV-I 134 W/m 4,3 C 4,8 km/h (1 Bft)
09.10.2016 16:24 7,9 C 7,9 C 78 % 1021,6 hPa 0,0 mm 5,6 km/h (1 Bft) O-NO 61 0 min 0,000 mm 0,9 UV-I 134 W/m 4,3 C 11,3 km/h (2 Bft)
09.10.2016 16:25 7,9 C 7,9 C 78 % 1021,5 hPa 0,0 mm 4,7 km/h (1 Bft) O-NO 60 0 min 0,000 mm 0,9 UV-I 132 W/m 4,3 C 6,4 km/h (2 Bft)
09.10.2016 16:26 7,9 C 7,9 C 78 % 1021,5 hPa 0,0 mm 4,8 km/h (1 Bft) N-NO 17 0 min 0,000 mm 0,9 UV-I 134 W/m 4,3 C 9,7 km/h (2 Bft)
09.10.2016 16:27 7,9 C 7,9 C 76 % 1021,5 hPa 0,0 mm 6,4 km/h (2 Bft) N-NO 16 0 min 0,000 mm 0,9 UV-I 135 W/m 3,9 C 9,7 km/h (2 Bft)
09.10.2016 16:28 7,9 C 7,9 C 76 % 1021,5 hPa 0,0 mm 4,6 km/h (1 Bft) O 88 0 min 0,000 mm 0,9 UV-I 137 W/m 3,9 C 6,4 km/h (2 Bft)
09.10.2016 16:29 7,9 C 7,9 C 77 % 1021,5 hPa 0,0 mm 4,6 km/h (1 Bft) O 101 0 min 0,000 mm 0,9 UV-I 135 W/m 4,1 C 6,4 km/h (2 Bft)
09.10.2016 16:30 7,9 C 7,9 C 77 % 1021,5 hPa 0,0 mm 5,5 km/h (1 Bft) N-NO 18 0 min 0,000 mm 0,9 UV-I 132 W/m 4,1 C 11,3 km/h (2 Bft)
09.10.2016 16:31 7,9 C 7,9 C 77 % 1021,6 hPa 0,0 mm 6,6 km/h (2 Bft) N-NO 17 0 min 0,000 mm 0,8 UV-I 130 W/m 4,1 C 8,0 km/h (2 Bft)
09.10.2016 16:32 7,9 C 7,9 C 76 % 1021,5 hPa 0,0 mm 4,8 km/h (1 Bft) NO 55 0 min 0,000 mm 0,8 UV-I 128 W/m 3,9 C 6,4 km/h (2 Bft)
09.10.2016 16:33 7,9 C 7,9 C 78 % 1021,6 hPa 0,0 mm 4,0 km/h (1 Bft) O 84 0 min 0,000 mm 0,8 UV-I 127 W/m 4,3 C 4,8 km/h (1 Bft)
09.10.2016 16:34 7,9 C 7,9 C 76 % 1021,6 hPa 0,0 mm 6,4 km/h (2 Bft) N 355 0 min 0,000 mm 0,8 UV-I 125 W/m 3,9 C 8,0 km/h (2 Bft)
09.10.2016 16:35 7,9 C 7,9 C 76 % 1021,6 hPa 0,0 mm 1,8 km/h (1 Bft) N-NW 347 0 min 0,000 mm 0,8 UV-I 121 W/m 3,9 C 4,8 km/h (1 Bft)
09.10.2016 16:36 7,9 C 7,9 C 77 % 1021,6 hPa 0,0 mm 5,1 km/h (1 Bft) O-NO 61 0 min 0,000 mm 0,8 UV-I 114 W/m 4,1 C 6,4 km/h (2 Bft)
09.10.2016 16:37 7,9 C 7,9 C 76 % 1021,6 hPa 0,0 mm 4,8 km/h (1 Bft) O-NO 60 0 min 0,000 mm 0,8 UV-I 114 W/m 3,9 C 6,4 km/h (2 Bft)
09.10.2016 16:38 7,9 C 7,9 C 77 % 1021,6 hPa 0,0 mm 3,1 km/h (1 Bft) NO 52 0 min 0,000 mm 0,8 UV-I 114 W/m 4,1 C 6,4 km/h (2 Bft)
09.10.2016 16:39 7,9 C 7,9 C 78 % 1021,6 hPa 0,0 mm 4,1 km/h (1 Bft) NO 54 0 min 0,000 mm 0,7 UV-I 111 W/m 4,3 C 8,0 km/h (2 Bft)
09.10.2016 16:40 7,8 C 7,9 C 77 % 1021,6 hPa 0,0 mm 6,6 km/h (2 Bft) O-NO 59 0 min 0,000 mm 0,7 UV-I 107 W/m 4,0 C 11,3 km/h (2 Bft)
09.10.2016 16:41 7,8 C 7,9 C 78 % 1021,6 hPa 0,0 mm 4,7 km/h (1 Bft) NO 50 0 min 0,000 mm 0,7 UV-I 104 W/m 4,2 C 6,4 km/h (2 Bft)
09.10.2016 16:42 7,8 C 7,8 C 78 % 1021,5 hPa 0,0 mm 3,6 km/h (1 Bft) O-NO 61 0 min 0,000 mm 0,7 UV-I 102 W/m 4,2 C 6,4 km/h (2 Bft)
09.10.2016 16:43 7,8 C 7,8 C 78 % 1021,5 hPa 0,0 mm 4,8 km/h (1 Bft) O-NO 65 0 min 0,000 mm 0,7 UV-I 105 W/m 4,2 C 8,0 km/h (2 Bft)
09.10.2016 16:44 7,8 C 7,8 C 78 % 1021,5 hPa 0,0 mm 3,4 km/h (1 Bft) O-NO 67 0 min 0,000 mm 0,7 UV-I 105 W/m 4,2 C 4,8 km/h (1 Bft)
09.10.2016 16:45 7,9 C 7,9 C 79 % 1021,5 hPa 0,0 mm 4,9 km/h (1 Bft) O-NO 71 0 min 0,000 mm 0,7 UV-I 104 W/m 4,5 C 8,0 km/h (2 Bft)
09.10.2016 16:46 7,8 C 7,9 C 76 % 1021,6 hPa 0,0 mm 3,6 km/h (1 Bft) NO 56 0 min 0,000 mm 0,7 UV-I 102 W/m 3,8 C 6,4 km/h (2 Bft)
09.10.2016 16:47 7,8 C 7,8 C 77 % 1021,6 hPa 0,0 mm 8,2 km/h (2 Bft) NO 50 0 min 0,000 mm 0,7 UV-I 100 W/m 4,0 C 12,9 km/h (3 Bft)
09.10.2016 16:48 7,8 C 7,8 C 76 % 1021,6 hPa 0,0 mm 6,4 km/h (2 Bft) O-NO 63 0 min 0,000 mm 0,7 UV-I 98 W/m 3,8 C 9,7 km/h (2 Bft)
09.10.2016 16:49 7,8 C 7,8 C 76 % 1021,6 hPa 0,0 mm 5,2 km/h (1 Bft) NO 46 0 min 0,000 mm 0,7 UV-I 102 W/m 3,8 C 8,0 km/h (2 Bft)
09.10.2016 16:50 7,8 C 7,8 C 76 % 1021,6 hPa 0,0 mm 6,3 km/h (2 Bft) NO 40 0 min 0,000 mm 0,7 UV-I 102 W/m 3,8 C 9,7 km/h (2 Bft)
09.10.2016 16:51 7,8 C 7,8 C 75 % 1021,6 hPa 0,0 mm 5,3 km/h (1 Bft) NO 48 0 min 0,000 mm 0,6 UV-I 102 W/m 3,7 C 9,7 km/h (2 Bft)
09.10.2016 16:52 7,8 C 7,8 C 76 % 1021,6 hPa 0,0 mm 4,3 km/h (1 Bft) O-NO 57 0 min 0,000 mm 0,6 UV-I 98 W/m 3,8 C 6,4 km/h (2 Bft)
09.10.2016 16:53 7,7 C 7,8 C 76 % 1021,6 hPa 0,0 mm 5,4 km/h (1 Bft) NO 49 0 min 0,000 mm 0,6 UV-I 98 W/m 3,7 C 8,0 km/h (2 Bft)
09.10.2016 16:54 7,8 C 7,8 C 76 % 1021,5 hPa 0,0 mm 5,7 km/h (1 Bft) NO 50 0 min 0,000 mm 0,6 UV-I 100 W/m 3,8 C 6,4 km/h (2 Bft)
09.10.2016 16:55 7,8 C 7,8 C 76 % 1021,5 hPa 0,0 mm 3,9 km/h (1 Bft) O-NO 69 0 min 0,000 mm 0,6 UV-I 104 W/m 3,8 C 6,4 km/h (2 Bft)
09.10.2016 16:56 7,8 C 7,8 C 78 % 1021,5 hPa 0,0 mm 3,9 km/h (1 Bft) N-NO 32 0 min 0,000 mm 0,6 UV-I 105 W/m 4,2 C 8,0 km/h (2 Bft)
09.10.2016 16:57 7,7 C 7,8 C 76 % 1021,5 hPa 0,0 mm 5,8 km/h (2 Bft) O-NO 69 0 min 0,000 mm 0,6 UV-I 105 W/m 3,7 C 8,0 km/h (2 Bft)
09.10.2016 16:58 7,7 C 7,8 C 77 % 1021,5 hPa 0,0 mm 7,2 km/h (2 Bft) NO 38 0 min 0,000 mm 0,6 UV-I 105 W/m 3,9 C 11,3 km/h (2 Bft)
09.10.2016 16:59 7,7 C 7,7 C 77 % 1021,5 hPa 0,0 mm 5,5 km/h (1 Bft) O-NO 78 0 min 0,000 mm 0,6 UV-I 109 W/m 3,9 C 6,4 km/h (2 Bft)
09.10.2016 17:00 7,7 C 7,8 C 76 % 1021,5 hPa 0,0 mm 3,1 km/h (1 Bft) O-NO 58 0 min 0,000 mm 0,6 UV-I 109 W/m 3,7 C 6,4 km/h (2 Bft)
09.10.2016 17:01 7,7 C 7,8 C 76 % 1021,5 hPa 0,0 mm 4,6 km/h (1 Bft) NO 43 0 min 0,076 mm 0,6 UV-I 107 W/m 3,7 C 9,7 km/h (2 Bft)
09.10.2016 17:02 7,8 C 7,8 C 77 % 1021,4 hPa 0,0 mm 7,5 km/h (2 Bft) NO 38 0 min 0,000 mm 0,6 UV-I 107 W/m 4,0 C 11,3 km/h (2 Bft)
09.10.2016 17:03 7,8 C 7,8 C 77 % 1021,4 hPa 0,0 mm 6,0 km/h (2 Bft) NO 40 0 min 0,000 mm 0,6 UV-I 105 W/m 4,0 C 9,7 km/h (2 Bft)
09.10.2016 17:04 7,9 C 7,9 C 77 % 1021,4 hPa 0,0 mm 7,0 km/h (2 Bft) N 360 0 min 0,000 mm 0,6 UV-I 100 W/m 4,1 C 9,7 km/h (2 Bft)
09.10.2016 17:05 7,9 C 7,9 C 75 % 1021,4 hPa 0,0 mm 3,4 km/h (1 Bft) N-NO 19 0 min 0,000 mm 0,6 UV-I 95 W/m 3,7 C 6,4 km/h (2 Bft)
09.10.2016 17:06 7,9 C 7,9 C 76 % 1021,4 hPa 0,0 mm 5,4 km/h (1 Bft) O-NO 57 0 min 0,000 mm 0,6 UV-I 84 W/m 3,9 C 8,0 km/h (2 Bft)
09.10.2016 17:07 7,8 C 7,9 C 78 % 1021,4 hPa 0,0 mm 5,8 km/h (2 Bft) NO 55 0 min 0,000 mm 0,6 UV-I 81 W/m 4,2 C 8,0 km/h (2 Bft)
09.10.2016 17:08 7,8 C 7,8 C 78 % 1021,4 hPa 0,0 mm 3,4 km/h (1 Bft) NO 56 0 min 0,000 mm 0,6 UV-I 81 W/m 4,2 C 4,8 km/h (1 Bft)
09.10.2016 17:09 7,8 C 7,8 C 78 % 1021,3 hPa 0,0 mm 5,4 km/h (1 Bft) NO 45 0 min 0,000 mm 0,6 UV-I 72 W/m 4,2 C 9,7 km/h (2 Bft)
09.10.2016 17:10 7,8 C 7,8 C 79 % 1021,3 hPa 0,0 mm 3,6 km/h (1 Bft) NO 36 0 min 0,000 mm 0,6 UV-I 69 W/m 4,4 C 6,4 km/h (2 Bft)
09.10.2016 17:11 7,7 C 7,8 C 79 % 1021,4 hPa 0,0 mm 4,0 km/h (1 Bft) O 80 0 min 0,000 mm 0,6 UV-I 63 W/m 4,3 C 6,4 km/h (2 Bft)
09.10.2016 17:12 7,7 C 7,7 C 78 % 1021,3 hPa 0,0 mm 1,7 km/h (1 Bft) O 80 0 min 0,000 mm 0,6 UV-I 58 W/m 4,1 C 3,2 km/h (1 Bft)
09.10.2016 17:13 7,6 C 7,7 C 78 % 1021,3 hPa 0,0 mm 5,1 km/h (1 Bft) SO 128 0 min 0,000 mm 0,0 UV-I 54 W/m 4,0 C 8,0 km/h (2 Bft)
09.10.2016 17:14 7,6 C 7,6 C 77 % 1021,3 hPa 0,0 mm 1,5 km/h (1 Bft) SO 128 0 min 0,000 mm 0,0 UV-I 49 W/m 3,8 C 3,2 km/h (1 Bft)
09.10.2016 17:15 7,5 C 7,6 C 78 % 1021,3 hPa 0,0 mm 1,0 km/h (0 Bft) O-SO 112 0 min 0,000 mm 0,0 UV-I 44 W/m 3,9 C 3,2 km/h (1 Bft)
09.10.2016 17:16 7,5 C 7,6 C 78 % 1021,3 hPa 0,0 mm 1,9 km/h (1 Bft) O 82 0 min 0,000 mm 0,0 UV-I 40 W/m 3,9 C 3,2 km/h (1 Bft)
09.10.2016 17:17 7,5 C 7,5 C 78 % 1021,2 hPa 0,0 mm 6,0 km/h (2 Bft) NO 49 0 min 0,000 mm 0,0 UV-I 37 W/m 3,9 C 8,0 km/h (2 Bft)
09.10.2016 17:18 7,4 C 7,5 C 78 % 1021,2 hPa 0,0 mm 3,9 km/h (1 Bft) O-NO 74 0 min 0,000 mm 0,0 UV-I 35 W/m 3,8 C 8,0 km/h (2 Bft)
09.10.2016 17:19 7,4 C 7,4 C 77 % 1021,2 hPa 0,0 mm 1,2 km/h (1 Bft) O-NO 74 0 min 0,000 mm 0,0 UV-I 33 W/m 3,6 C 3,2 km/h (1 Bft)
09.10.2016 17:20 7,3 C 7,4 C 78 % 1021,2 hPa 0,0 mm 1,0 km/h (0 Bft) O-NO 74 0 min 0,000 mm 0,0 UV-I 32 W/m 3,7 C 3,2 km/h (1 Bft)
09.10.2016 17:21 7,3 C 7,3 C 78 % 1021,2 hPa 0,0 mm 0,6 km/h (0 Bft) O-NO 74 0 min 0,000 mm 0,0 UV-I 30 W/m 3,7 C 3,2 km/h (1 Bft)
09.10.2016 17:22 7,2 C 7,3 C 79 % 1021,2 hPa 0,0 mm 2,1 km/h (1 Bft) O-NO 74 0 min 0,000 mm 0,0 UV-I 30 W/m 3,8 C 3,2 km/h (1 Bft)
09.10.2016 17:23 7,1 C 7,2 C 78 % 1021,3 hPa 0,0 mm 2,5 km/h (1 Bft) N-NO 22 0 min 0,000 mm 0,0 UV-I 26 W/m 3,5 C 4,8 km/h (1 Bft)
09.10.2016 17:24 7,1 C 7,1 C 78 % 1021,2 hPa 0,0 mm 5,8 km/h (2 Bft) O-NO 74 0 min 0,000 mm 0,0 UV-I 25 W/m 3,5 C 11,3 km/h (2 Bft)
09.10.2016 17:25 7,1 C 7,1 C 78 % 1021,3 hPa 0,0 mm 2,1 km/h (1 Bft) O-NO 74 0 min 0,000 mm 0,0 UV-I 25 W/m 3,5 C 3,2 km/h (1 Bft)
09.10.2016 17:26 6,9 C 7,1 C 78 % 1021,4 hPa 0,0 mm 2,0 km/h (1 Bft) O-NO 74 0 min 0,000 mm 0,0 UV-I 23 W/m 3,3 C 3,2 km/h (1 Bft)
09.10.2016 17:27 6,9 C 6,9 C 79 % 1021,3 hPa 0,0 mm 1,5 km/h (1 Bft) O-NO 74 0 min 0,000 mm 0,0 UV-I 21 W/m 3,5 C 3,2 km/h (1 Bft)
09.10.2016 17:28 6,8 C 6,9 C 79 % 1021,4 hPa 0,0 mm 2,7 km/h (1 Bft) O-SO 103 0 min 0,000 mm 0,0 UV-I 21 W/m 3,4 C 4,8 km/h (1 Bft)
09.10.2016 17:29 6,8 C 6,8 C 79 % 1021,4 hPa 0,0 mm 3,5 km/h (1 Bft) O-SO 106 0 min 0,000 mm 0,0 UV-I 19 W/m 3,4 C 4,8 km/h (1 Bft)
09.10.2016 17:30 6,7 C 6,8 C 80 % 1021,4 hPa 0,0 mm 1,8 km/h (1 Bft) O-SO 106 0 min 0,000 mm 0,0 UV-I 19 W/m 3,5 C 3,2 km/h (1 Bft)
09.10.2016 17:31 6,7 C 6,7 C 80 % 1021,4 hPa 0,0 mm 2,1 km/h (1 Bft) O-SO 111 0 min 0,000 mm 0,0 UV-I 19 W/m 3,5 C 4,8 km/h (1 Bft)
09.10.2016 17:32 6,7 C 6,7 C 80 % 1021,4 hPa 0,0 mm 1,9 km/h (1 Bft) O-SO 111 0 min 0,000 mm 0,0 UV-I 18 W/m 3,5 C 3,2 km/h (1 Bft)
09.10.2016 17:33 6,6 C 6,7 C 81 % 1021,5 hPa 0,0 mm 2,0 km/h (1 Bft) O-SO 119 0 min 0,000 mm 0,0 UV-I 18 W/m 3,6 C 4,8 km/h (1 Bft)
09.10.2016 17:34 6,6 C 6,6 C 82 % 1021,5 hPa 0,0 mm 4,8 km/h (1 Bft) O-SO 115 0 min 0,000 mm 0,0 UV-I 18 W/m 3,8 C 6,4 km/h (2 Bft)
09.10.2016 17:35 6,4 C 6,6 C 82 % 1021,5 hPa 0,0 mm 1,4 km/h (1 Bft) O-SO 115 0 min 0,000 mm 0,0 UV-I 21 W/m 3,6 C 3,2 km/h (1 Bft)
09.10.2016 17:36 6,4 C 6,4 C 81 % 1021,5 hPa 0,0 mm 4,1 km/h (1 Bft) S-SO 151 0 min 0,000 mm 0,0 UV-I 21 W/m 3,4 C 6,4 km/h (2 Bft)
09.10.2016 17:37 6,3 C 6,4 C 82 % 1021,5 hPa 0,0 mm 2,1 km/h (1 Bft) S-SO 151 0 min 0,000 mm 0,0 UV-I 23 W/m 3,5 C 3,2 km/h (1 Bft)
09.10.2016 17:38 6,3 C 6,3 C 82 % 1021,5 hPa 0,0 mm 1,1 km/h (1 Bft) S-SO 151 0 min 0,000 mm 0,0 UV-I 25 W/m 3,5 C 1,6 km/h (1 Bft)
09.10.2016 17:39 6,3 C 6,3 C 82 % 1021,5 hPa 0,0 mm 1,1 km/h (1 Bft) S-SO 151 0 min 0,000 mm 0,0 UV-I 25 W/m 3,5 C 3,2 km/h (1 Bft)
09.10.2016 17:40 6,2 C 6,3 C 82 % 1021,5 hPa 0,0 mm 1,2 km/h (1 Bft) S-SO 151 0 min 0,000 mm 0,0 UV-I 26 W/m 3,4 C 3,2 km/h (1 Bft)
09.10.2016 17:41 6,2 C 6,2 C 83 % 1021,6 hPa 0,0 mm 2,7 km/h (1 Bft) S-SO 151 0 min 0,000 mm 0,0 UV-I 26 W/m 3,5 C 3,2 km/h (1 Bft)
09.10.2016 17:42 6,1 C 6,2 C 83 % 1021,5 hPa 0,0 mm 2,1 km/h (1 Bft) S-SO 151 0 min 0,000 mm 0,0 UV-I 26 W/m 3,4 C 3,2 km/h (1 Bft)
09.10.2016 17:43 6,0 C 6,1 C 83 % 1021,5 hPa 0,0 mm 2,2 km/h (1 Bft) S-SO 151 0 min 0,000 mm 0,0 UV-I 26 W/m 3,3 C 3,2 km/h (1 Bft)
09.10.2016 17:44 5,9 C 6,0 C 83 % 1021,6 hPa 0,0 mm 2,9 km/h (1 Bft) S-SO 150 0 min 0,000 mm 0,0 UV-I 26 W/m 3,2 C 4,8 km/h (1 Bft)
09.10.2016 17:45 6,0 C 6,0 C 83 % 1021,5 hPa 0,0 mm 2,4 km/h (1 Bft) S-SO 150 0 min 0,000 mm 0,0 UV-I 26 W/m 3,3 C 3,2 km/h (1 Bft)
09.10.2016 17:46 6,0 C 6,1 C 84 % 1021,6 hPa 0,0 mm 2,1 km/h (1 Bft) S-SO 150 0 min 0,000 mm 0,0 UV-I 26 W/m 3,5 C 3,2 km/h (1 Bft)
09.10.2016 17:47 5,9 C 6,0 C 84 % 1021,6 hPa 0,0 mm 2,9 km/h (1 Bft) SO 138 0 min 0,000 mm 0,0 UV-I 26 W/m 3,4 C 4,8 km/h (1 Bft)
09.10.2016 17:48 5,9 C 6,0 C 84 % 1021,6 hPa 0,0 mm 2,9 km/h (1 Bft) SO 138 0 min 0,000 mm 0,0 UV-I 26 W/m 3,4 C 3,2 km/h (1 Bft)
09.10.2016 17:49 5,9 C 5,9 C 84 % 1021,6 hPa 0,0 mm 2,3 km/h (1 Bft) SO 138 0 min 0,000 mm 0,0 UV-I 28 W/m 3,4 C 4,8 km/h (1 Bft)
09.10.2016 17:50 5,8 C 5,9 C 85 % 1021,7 hPa 0,0 mm 1,8 km/h (1 Bft) SO 138 0 min 0,000 mm 0,0 UV-I 30 W/m 3,5 C 3,2 km/h (1 Bft)
09.10.2016 17:51 5,8 C 5,8 C 85 % 1021,6 hPa 0,0 mm 1,4 km/h (1 Bft) SO 138 0 min 0,000 mm 0,0 UV-I 32 W/m 3,5 C 3,2 km/h (1 Bft)
09.10.2016 17:52 5,7 C 5,8 C 85 % 1021,7 hPa 0,0 mm 0,8 km/h (0 Bft) SO 138 0 min 0,000 mm 0,0 UV-I 33 W/m 3,4 C 1,6 km/h (1 Bft)
09.10.2016 17:53 5,7 C 5,7 C 86 % 1021,7 hPa 0,0 mm 1,7 km/h (1 Bft) SO 138 0 min 0,000 mm 0,0 UV-I 35 W/m 3,5 C 3,2 km/h (1 Bft)
09.10.2016 17:54 5,7 C 5,7 C 86 % 1021,7 hPa 0,0 mm 1,5 km/h (1 Bft) SO 138 0 min 0,000 mm 0,0 UV-I 35 W/m 3,5 C 3,2 km/h (1 Bft)
09.10.2016 17:55 5,6 C 5,7 C 87 % 1021,6 hPa 0,0 mm 1,3 km/h (1 Bft) SO 138 0 min 0,000 mm 0,0 UV-I 33 W/m 3,6 C 1,6 km/h (1 Bft)
09.10.2016 17:56 5,7 C 5,7 C 86 % 1021,7 hPa 0,0 mm 2,4 km/h (1 Bft) SO 138 0 min 0,000 mm 0,0 UV-I 33 W/m 3,5 C 3,2 km/h (1 Bft)
09.10.2016 17:57 5,6 C 5,7 C 86 % 1021,6 hPa 0,0 mm 2,1 km/h (1 Bft) SO 138 0 min 0,000 mm 0,0 UV-I 32 W/m 3,4 C 3,2 km/h (1 Bft)
09.10.2016 17:58 5,7 C 5,7 C 87 % 1021,7 hPa 0,0 mm 2,0 km/h (1 Bft) SO 138 0 min 0,000 mm 0,0 UV-I 32 W/m 3,7 C 3,2 km/h (1 Bft)
09.10.2016 17:59 5,6 C 5,7 C 87 % 1021,7 hPa 0,0 mm 1,7 km/h (1 Bft) SO 138 0 min 0,000 mm 0,0 UV-I 32 W/m 3,6 C 3,2 km/h (1 Bft)
09.10.2016 18:00 5,6 C 5,7 C 87 % 1021,7 hPa 0,0 mm 1,9 km/h (1 Bft) SO 138 0 min 0,000 mm 0,0 UV-I 32 W/m 3,6 C 3,2 km/h (1 Bft)
09.10.2016 18:01 5,6 C 5,7 C 87 % 1021,7 hPa 0,0 mm 1,5 km/h (1 Bft) SO 138 0 min 0,025 mm 0,0 UV-I 30 W/m 3,6 C 3,2 km/h (1 Bft)
09.10.2016 18:02 5,6 C 5,6 C 88 % 1021,7 hPa 0,0 mm 1,9 km/h (1 Bft) SO 138 0 min 0,000 mm 0,0 UV-I 30 W/m 3,8 C 3,2 km/h (1 Bft)
09.10.2016 18:03 5,6 C 5,6 C 88 % 1021,8 hPa 0,0 mm 1,4 km/h (1 Bft) SO 138 0 min 0,000 mm 0,0 UV-I 28 W/m 3,8 C 3,2 km/h (1 Bft)
09.10.2016 18:04 5,6 C 5,6 C 88 % 1021,8 hPa 0,0 mm 2,1 km/h (1 Bft) SO 138 0 min 0,000 mm 0,0 UV-I 26 W/m 3,8 C 3,2 km/h (1 Bft)
09.10.2016 18:05 5,6 C 5,6 C 88 % 1021,7 hPa 0,0 mm 1,9 km/h (1 Bft) SO 138 0 min 0,000 mm 0,0 UV-I 26 W/m 3,8 C 3,2 km/h (1 Bft)
09.10.2016 18:06 5,6 C 5,6 C 88 % 1021,8 hPa 0,0 mm 1,9 km/h (1 Bft) SO 138 0 min 0,000 mm 0,0 UV-I 25 W/m 3,8 C 3,2 km/h (1 Bft)
09.10.2016 18:07 5,6 C 5,6 C 88 % 1021,8 hPa 0,0 mm 1,7 km/h (1 Bft) SO 138 0 min 0,000 mm 0,0 UV-I 25 W/m 3,8 C 3,2 km/h (1 Bft)
09.10.2016 18:08 5,6 C 5,6 C 89 % 1021,8 hPa 0,0 mm 1,8 km/h (1 Bft) SO 138 0 min 0,000 mm 0,0 UV-I 23 W/m 3,9 C 3,2 km/h (1 Bft)
09.10.2016 18:09 5,6 C 5,6 C 89 % 1021,8 hPa 0,0 mm 2,5 km/h (1 Bft) SO 138 0 min 0,000 mm 0,0 UV-I 23 W/m 3,9 C 3,2 km/h (1 Bft)
09.10.2016 18:10 5,5 C 5,6 C 89 % 1021,8 hPa 0,0 mm 1,2 km/h (1 Bft) SO 138 0 min 0,000 mm 0,0 UV-I 21 W/m 3,8 C 3,2 km/h (1 Bft)
09.10.2016 18:11 5,5 C 5,5 C 88 % 1021,8 hPa 0,0 mm 2,0 km/h (1 Bft) SO 138 0 min 0,000 mm 0,0 UV-I 19 W/m 3,7 C 3,2 km/h (1 Bft)
09.10.2016 18:12 5,5 C 5,5 C 89 % 1021,8 hPa 0,0 mm 0,7 km/h (0 Bft) SO 138 0 min 0,000 mm 0,0 UV-I 19 W/m 3,8 C 1,6 km/h (1 Bft)
09.10.2016 18:13 5,4 C 5,5 C 89 % 1021,8 hPa 0,0 mm 1,1 km/h (1 Bft) SO 138 0 min 0,000 mm 0,0 UV-I 19 W/m 3,7 C 1,6 km/h (1 Bft)
09.10.2016 18:14 5,4 C 5,4 C 89 % 1021,8 hPa 0,0 mm 0,2 km/h (0 Bft) SO 138 0 min 0,000 mm 0,0 UV-I 19 W/m 3,7 C 1,6 km/h (1 Bft)
09.10.2016 18:15 5,4 C 5,4 C 89 % 1021,8 hPa 0,0 mm 0,0 km/h (0 Bft) SO 138 0 min 0,000 mm 0,0 UV-I 18 W/m 3,7 C 0,0 km/h (0 Bft)
09.10.2016 18:16 5,3 C 5,4 C 89 % 1021,8 hPa 0,0 mm 0,0 km/h (0 Bft) SO 138 0 min 0,000 mm 0,0 UV-I 18 W/m 3,6 C 0,0 km/h (0 Bft)
09.10.2016 18:17 5,2 C 5,3 C 89 % 1021,9 hPa 0,0 mm 0,0 km/h (0 Bft) SO 138 0 min 0,000 mm 0,0 UV-I 16 W/m 3,5 C 0,0 km/h (0 Bft)
09.10.2016 18:18 5,2 C 5,2 C 90 % 1021,9 hPa 0,0 mm 0,2 km/h (0 Bft) SO 138 0 min 0,000 mm 0,0 UV-I 16 W/m 3,7 C 1,6 km/h (1 Bft)
09.10.2016 18:19 5,2 C 5,3 C 90 % 1021,9 hPa 0,0 mm 0,2 km/h (0 Bft) SO 138 0 min 0,000 mm 0,0 UV-I 16 W/m 3,7 C 1,6 km/h (1 Bft)
09.10.2016 18:20 5,2 C 5,2 C 89 % 1021,9 hPa 0,0 mm 0,2 km/h (0 Bft) SO 138 0 min 0,000 mm 0,0 UV-I 14 W/m 3,5 C 1,6 km/h (1 Bft)
09.10.2016 18:21 5,2 C 5,2 C 89 % 1021,9 hPa 0,0 mm 0,5 km/h (0 Bft) SO 138 0 min 0,000 mm 0,0 UV-I 14 W/m 3,5 C 1,6 km/h (1 Bft)
09.10.2016 18:22 5,2 C 5,2 C 90 % 1021,9 hPa 0,0 mm 0,7 km/h (0 Bft) SO 138 0 min 0,000 mm 0,0 UV-I 14 W/m 3,7 C 1,6 km/h (1 Bft)
09.10.2016 18:23 5,1 C 5,2 C 90 % 1021,9 hPa 0,0 mm 0,9 km/h (0 Bft) SO 138 0 min 0,000 mm 0,0 UV-I 12 W/m 3,6 C 1,6 km/h (1 Bft)
09.10.2016 18:24 5,1 C 5,1 C 90 % 1021,9 hPa 0,0 mm 1,6 km/h (1 Bft) SO 138 0 min 0,000 mm 0,0 UV-I 12 W/m 3,6 C 1,6 km/h (1 Bft)
09.10.2016 18:25 5,1 C 5,1 C 90 % 1022,0 hPa 0,0 mm 0,9 km/h (0 Bft) SO 138 0 min 0,000 mm 0,0 UV-I 11 W/m 3,6 C 1,6 km/h (1 Bft)
09.10.2016 18:26 5,1 C 5,1 C 90 % 1022,0 hPa 0,0 mm 1,1 km/h (1 Bft) SO 138 0 min 0,000 mm 0,0 UV-I 11 W/m 3,6 C 1,6 km/h (1 Bft)
09.10.2016 18:27 5,1 C 5,1 C 90 % 1022,0 hPa 0,0 mm 0,8 km/h (0 Bft) SO 138 1 min 0,000 mm 0,0 UV-I 11 W/m 3,6 C 1,6 km/h (1 Bft)
09.10.2016 18:28 5,0 C 5,1 C 90 % 1022,0 hPa 0,0 mm 0,9 km/h (0 Bft) SO 138 0 min 0,000 mm 0,0 UV-I 9 W/m 3,5 C 1,6 km/h (1 Bft)
09.10.2016 18:29 5,1 C 5,1 C 90 % 1022,0 hPa 0,0 mm 1,1 km/h (1 Bft) SO 138 0 min 0,000 mm 0,0 UV-I 9 W/m 3,6 C 1,6 km/h (1 Bft)
09.10.2016 18:30 5,0 C 5,1 C 90 % 1022,0 hPa 0,0 mm 1,2 km/h (1 Bft) SO 138 0 min 0,000 mm 0,0 UV-I 7 W/m 3,5 C 1,6 km/h (1 Bft)
09.10.2016 18:31 5,0 C 5,1 C 90 % 1022,0 hPa 0,0 mm 1,3 km/h (1 Bft) SO 138 0 min 0,000 mm 0,0 UV-I 7 W/m 3,5 C 1,6 km/h (1 Bft)
09.10.2016 18:32 4,9 C 5,0 C 90 % 1022,0 hPa 0,0 mm 1,5 km/h (1 Bft) SO 138 0 min 0,000 mm 0,0 UV-I 7 W/m 3,4 C 3,2 km/h (1 Bft)
09.10.2016 18:33 4,9 C 5,0 C 90 % 1022,0 hPa 0,0 mm 1,7 km/h (1 Bft) SO 138 0 min 0,000 mm 0,0 UV-I 5 W/m 3,4 C 3,2 km/h (1 Bft)
09.10.2016 18:34 4,9 C 5,0 C 90 % 1022,0 hPa 0,0 mm 2,2 km/h (1 Bft) SO 138 0 min 0,000 mm 0,0 UV-I 5 W/m 3,4 C 3,2 km/h (1 Bft)
09.10.2016 18:35 4,9 C 4,9 C 90 % 1022,0 hPa 0,0 mm 2,8 km/h (1 Bft) SO 138 0 min 0,000 mm 0,0 UV-I 0 W/m 3,4 C 3,2 km/h (1 Bft)
09.10.2016 18:36 4,9 C 4,9 C 90 % 1022,1 hPa 0,0 mm 2,6 km/h (1 Bft) SO 138 0 min 0,000 mm 0,0 UV-I 0 W/m 3,4 C 3,2 km/h (1 Bft)
09.10.2016 18:37 4,9 C 4,9 C 90 % 1022,1 hPa 0,0 mm 2,5 km/h (1 Bft) SO 138 0 min 0,000 mm 0,0 UV-I 0 W/m 3,4 C 3,2 km/h (1 Bft)
09.10.2016 18:38 4,8 C 4,9 C 90 % 1022,1 hPa 0,0 mm 2,9 km/h (1 Bft) SO 138 0 min 0,000 mm 0,0 UV-I 0 W/m 3,3 C 3,2 km/h (1 Bft)
09.10.2016 18:39 4,8 C 4,8 C 90 % 1022,1 hPa 0,0 mm 2,9 km/h (1 Bft) SO 138 0 min 0,000 mm 0,0 UV-I 0 W/m 3,3 C 3,2 km/h (1 Bft)
09.10.2016 18:40 4,8 C 4,8 C 91 % 1022,1 hPa 0,0 mm 2,2 km/h (1 Bft) SO 138 0 min 0,000 mm 0,0 UV-I 0 W/m 3,5 C 3,2 km/h (1 Bft)
09.10.2016 18:41 4,7 C 4,8 C 90 % 1022,1 hPa 0,0 mm 2,8 km/h (1 Bft) SO 138 0 min 0,000 mm 0,0 UV-I 0 W/m 3,2 C 3,2 km/h (1 Bft)
09.10.2016 18:42 4,7 C 4,7 C 90 % 1022,1 hPa 0,0 mm 3,0 km/h (1 Bft) SO 138 0 min 0,000 mm 0,0 UV-I 0 W/m 3,2 C 3,2 km/h (1 Bft)
09.10.2016 18:43 4,6 C 4,7 C 91 % 1022,2 hPa 0,0 mm 2,2 km/h (1 Bft) SO 138 0 min 0,000 mm 0,0 UV-I 0 W/m 3,3 C 3,2 km/h (1 Bft)
09.10.2016 18:44 4,6 C 4,6 C 91 % 1022,2 hPa 0,0 mm 2,5 km/h (1 Bft) SO 138 0 min 0,000 mm 0,0 UV-I 0 W/m 3,3 C 3,2 km/h (1 Bft)
09.10.2016 18:45 4,5 C 4,6 C 91 % 1022,2 hPa 0,0 mm 1,9 km/h (1 Bft) SO 138 0 min 0,000 mm 0,0 UV-I 0 W/m 3,2 C 3,2 km/h (1 Bft)
09.10.2016 18:46 4,5 C 4,5 C 91 % 1022,2 hPa 0,0 mm 1,9 km/h (1 Bft) SO 138 0 min 0,000 mm 0,0 UV-I 0 W/m 3,2 C 3,2 km/h (1 Bft)
09.10.2016 18:47 4,5 C 4,5 C 91 % 1022,2 hPa 0,0 mm 2,0 km/h (1 Bft) SO 138 0 min 0,000 mm 0,0 UV-I 0 W/m 3,2 C 3,2 km/h (1 Bft)
09.10.2016 18:48 4,4 C 4,5 C 91 % 1022,2 hPa 0,0 mm 1,6 km/h (1 Bft) SO 138 0 min 0,000 mm 0,0 UV-I 0 W/m 3,1 C 1,6 km/h (1 Bft)
09.10.2016 18:49 4,4 C 4,4 C 91 % 1022,2 hPa 0,0 mm 0,9 km/h (0 Bft) SO 138 0 min 0,000 mm 0,0 UV-I 0 W/m 3,1 C 1,6 km/h (1 Bft)
09.10.2016 18:50 4,4 C 4,4 C 91 % 1022,3 hPa 0,0 mm 1,6 km/h (1 Bft) SO 138 0 min 0,000 mm 0,0 UV-I 0 W/m 3,1 C 1,6 km/h (1 Bft)
09.10.2016 18:51 4,3 C 4,4 C 91 % 1022,3 hPa 0,0 mm 1,5 km/h (1 Bft) SO 138 0 min 0,000 mm 0,0 UV-I 0 W/m 3,0 C 3,2 km/h (1 Bft)
09.10.2016 18:52 4,3 C 4,4 C 92 % 1022,3 hPa 0,0 mm 1,3 km/h (1 Bft) SO 138 0 min 0,000 mm 0,0 UV-I 0 W/m 3,1 C 1,6 km/h (1 Bft)
09.10.2016 18:53 4,3 C 4,3 C 92 % 1022,3 hPa 0,0 mm 1,5 km/h (1 Bft) SO 138 0 min 0,000 mm 0,0 UV-I 0 W/m 3,1 C 1,6 km/h (1 Bft)
09.10.2016 18:54 4,3 C 4,3 C 92 % 1022,3 hPa 0,0 mm 1,4 km/h (1 Bft) SO 138 0 min 0,000 mm 0,0 UV-I 0 W/m 3,1 C 3,2 km/h (1 Bft)
09.10.2016 18:55 4,3 C 4,3 C 92 % 1022,4 hPa 0,0 mm 1,4 km/h (1 Bft) SO 138 0 min 0,000 mm 0,0 UV-I 0 W/m 3,1 C 3,2 km/h (1 Bft)
09.10.2016 18:56 4,3 C 4,3 C 92 % 1022,4 hPa 0,0 mm 1,3 km/h (1 Bft) SO 138 0 min 0,000 mm 0,0 UV-I 0 W/m 3,1 C 1,6 km/h (1 Bft)
09.10.2016 18:57 4,3 C 4,3 C 92 % 1022,4 hPa 0,0 mm 1,4 km/h (1 Bft) SO 138 0 min 0,000 mm 0,0 UV-I 0 W/m 3,1 C 3,2 km/h (1 Bft)
09.10.2016 18:58 4,3 C 4,3 C 92 % 1022,4 hPa 0,0 mm 1,1 km/h (1 Bft) SO 138 0 min 0,000 mm 0,0 UV-I 0 W/m 3,1 C 3,2 km/h (1 Bft)
09.10.2016 18:59 4,3 C 4,3 C 92 % 1022,4 hPa 0,0 mm 1,1 km/h (1 Bft) SO 138 0 min 0,000 mm 0,0 UV-I 0 W/m 3,1 C 1,6 km/h (1 Bft)
09.10.2016 19:00 4,3 C 4,3 C 92 % 1022,5 hPa 0,0 mm 0,9 km/h (0 Bft) SO 138 0 min 0,000 mm 0,0 UV-I 0 W/m 3,1 C 1,6 km/h (1 Bft)
09.10.2016 19:01 4,3 C 4,3 C 92 % 1022,5 hPa 0,0 mm 0,7 km/h (0 Bft) SO 138 0 min 0,000 mm 0,0 UV-I 0 W/m 3,1 C 1,6 km/h (1 Bft)
09.10.2016 19:02 4,3 C 4,3 C 92 % 1022,4 hPa 0,0 mm 0,7 km/h (0 Bft) SO 138 0 min 0,000 mm 0,0 UV-I 0 W/m 3,1 C 1,6 km/h (1 Bft)
09.10.2016 19:03 4,3 C 4,3 C 92 % 1022,4 hPa 0,0 mm 0,4 km/h (0 Bft) SO 138 0 min 0,000 mm 0,0 UV-I 0 W/m 3,1 C 1,6 km/h (1 Bft)
09.10.2016 19:04 4,3 C 4,3 C 92 % 1022,4 hPa 0,0 mm 0,7 km/h (0 Bft) SO 138 0 min 0,000 mm 0,0 UV-I 0 W/m 3,1 C 1,6 km/h (1 Bft)
09.10.2016 19:05 4,3 C 4,3 C 92 % 1022,4 hPa 0,0 mm 0,6 km/h (0 Bft) SO 138 0 min 0,000 mm 0,0 UV-I 0 W/m 3,1 C 1,6 km/h (1 Bft)
09.10.2016 19:06 4,3 C 4,3 C 92 % 1022,4 hPa 0,0 mm 0,8 km/h (0 Bft) SO 138 0 min 0,000 mm 0,0 UV-I 0 W/m 3,1 C 1,6 km/h (1 Bft)
09.10.2016 19:07 4,4 C 4,4 C 92 % 1022,4 hPa 0,0 mm 0,0 km/h (0 Bft) SO 138 0 min 0,000 mm 0,0 UV-I 0 W/m 3,2 C 0,0 km/h (0 Bft)
09.10.2016 19:08 4,3 C 4,4 C 92 % 1022,4 hPa 0,0 mm 0,0 km/h (0 Bft) SO 138 0 min 0,000 mm 0,0 UV-I 0 W/m 3,1 C 0,0 km/h (0 Bft)
09.10.2016 19:09 4,3 C 4,4 C 92 % 1022,5 hPa 0,0 mm 0,6 km/h (0 Bft) SO 138 0 min 0,000 mm 0,0 UV-I 0 W/m 3,1 C 1,6 km/h (1 Bft)
09.10.2016 19:10 4,3 C 4,4 C 92 % 1022,5 hPa 0,0 mm 0,3 km/h (0 Bft) SO 138 0 min 0,000 mm 0,0 UV-I 0 W/m 3,1 C 1,6 km/h (1 Bft)
09.10.2016 19:11 4,3 C 4,3 C 92 % 1022,5 hPa 0,0 mm 0,0 km/h (0 Bft) SO 138 0 min 0,000 mm 0,0 UV-I 0 W/m 3,1 C 0,0 km/h (0 Bft)
09.10.2016 19:12 4,3 C 4,3 C 92 % 1022,5 hPa 0,0 mm 0,0 km/h (0 Bft) SO 138 0 min 0,000 mm 0,0 UV-I 0 W/m 3,1 C 0,0 km/h (0 Bft)
09.10.2016 19:13 4,3 C 4,4 C 92 % 1022,5 hPa 0,0 mm 0,0 km/h (0 Bft) SO 138 0 min 0,000 mm 0,0 UV-I 0 W/m 3,1 C 0,0 km/h (0 Bft)
09.10.2016 19:14 4,3 C 4,3 C 92 % 1022,5 hPa 0,0 mm 0,0 km/h (0 Bft) SO 138 0 min 0,000 mm 0,0 UV-I 0 W/m 3,1 C 0,0 km/h (0 Bft)
09.10.2016 19:15 4,3 C 4,3 C 92 % 1022,5 hPa 0,0 mm 0,0 km/h (0 Bft) SO 138 0 min 0,000 mm 0,0 UV-I 0 W/m 3,1 C 0,0 km/h (0 Bft)
09.10.2016 19:16 4,3 C 4,3 C 92 % 1022,5 hPa 0,0 mm 0,0 km/h (0 Bft) SO 138 0 min 0,000 mm 0,0 UV-I 0 W/m 3,1 C 0,0 km/h (0 Bft)
09.10.2016 19:17 4,2 C 4,3 C 92 % 1022,5 hPa 0,0 mm 0,0 km/h (0 Bft) SO 138 0 min 0,000 mm 0,0 UV-I 0 W/m 3,0 C 0,0 km/h (0 Bft)
09.10.2016 19:18 4,2 C 4,2 C 92 % 1022,5 hPa 0,0 mm 0,0 km/h (0 Bft) SO 138 0 min 0,000 mm 0,0 UV-I 0 W/m 3,0 C 0,0 km/h (0 Bft)
09.10.2016 19:19 4,1 C 4,2 C 92 % 1022,5 hPa 0,0 mm 0,0 km/h (0 Bft) SO 138 0 min 0,000 mm 0,0 UV-I 0 W/m 2,9 C 0,0 km/h (0 Bft)
09.10.2016 19:20 4,1 C 4,1 C 92 % 1022,5 hPa 0,0 mm 0,0 km/h (0 Bft) SO 138 0 min 0,000 mm 0,0 UV-I 0 W/m 2,9 C 0,0 km/h (0 Bft)
09.10.2016 19:21 4,0 C 4,1 C 92 % 1022,5 hPa 0,0 mm 0,0 km/h (0 Bft) SO 138 0 min 0,000 mm 0,0 UV-I 0 W/m 2,8 C 0,0 km/h (0 Bft)
09.10.2016 19:22 4,0 C 4,0 C 92 % 1022,5 hPa 0,0 mm 0,0 km/h (0 Bft) SO 138 0 min 0,000 mm 0,0 UV-I 0 W/m 2,8 C 0,0 km/h (0 Bft)
09.10.2016 19:23 4,0 C 4,0 C 92 % 1022,6 hPa 0,0 mm 0,0 km/h (0 Bft) SO 138 0 min 0,000 mm 0,0 UV-I 0 W/m 2,8 C 0,0 km/h (0 Bft)
09.10.2016 19:24 4,0 C 4,0 C 93 % 1022,6 hPa 0,0 mm 0,0 km/h (0 Bft) SO 138 0 min 0,000 mm 0,0 UV-I 0 W/m 3,0 C 0,0 km/h (0 Bft)
09.10.2016 19:25 3,9 C 4,0 C 93 % 1022,5 hPa 0,0 mm 0,0 km/h (0 Bft) SO 138 0 min 0,000 mm 0,0 UV-I 0 W/m 2,9 C 0,0 km/h (0 Bft)
09.10.2016 19:26 3,9 C 4,0 C 93 % 1022,6 hPa 0,0 mm 0,0 km/h (0 Bft) SO 138 0 min 0,000 mm 0,0 UV-I 0 W/m 2,9 C 0,0 km/h (0 Bft)
09.10.2016 19:27 4,0 C 4,0 C 93 % 1022,6 hPa 0,0 mm 0,0 km/h (0 Bft) SO 138 0 min 0,000 mm 0,0 UV-I 0 W/m 3,0 C 0,0 km/h (0 Bft)
09.10.2016 19:28 4,0 C 4,0 C 93 % 1022,6 hPa 0,0 mm 0,0 km/h (0 Bft) SO 138 0 min 0,000 mm 0,0 UV-I 0 W/m 3,0 C 0,0 km/h (0 Bft)
09.10.2016 19:29 4,0 C 4,1 C 93 % 1022,6 hPa 0,0 mm 0,0 km/h (0 Bft) SO 138 0 min 0,000 mm 0,0 UV-I 0 W/m 3,0 C 0,0 km/h (0 Bft)
09.10.2016 19:30 4,0 C 4,1 C 93 % 1022,6 hPa 0,0 mm 0,0 km/h (0 Bft) SO 138 0 min 0,000 mm 0,0 UV-I 0 W/m 3,0 C 0,0 km/h (0 Bft)
09.10.2016 19:31 4,0 C 4,1 C 93 % 1022,6 hPa 0,0 mm 0,0 km/h (0 Bft) SO 138 0 min 0,000 mm 0,0 UV-I 0 W/m 3,0 C 0,0 km/h (0 Bft)
09.10.2016 19:32 4,0 C 4,1 C 93 % 1022,6 hPa 0,0 mm 0,0 km/h (0 Bft) SO 138 0 min 0,000 mm 0,0 UV-I 0 W/m 3,0 C 0,0 km/h (0 Bft)
09.10.2016 19:33 3,9 C 4,0 C 93 % 1022,6 hPa 0,0 mm 0,0 km/h (0 Bft) SO 138 0 min 0,000 mm 0,0 UV-I 0 W/m 2,9 C 0,0 km/h (0 Bft)
09.10.2016 19:34 3,9 C 4,0 C 93 % 1022,6 hPa 0,0 mm 0,0 km/h (0 Bft) SO 138 0 min 0,000 mm 0,0 UV-I 0 W/m 2,9 C 0,0 km/h (0 Bft)
09.10.2016 19:35 3,9 C 3,9 C 92 % 1022,7 hPa 0,0 mm 0,0 km/h (0 Bft) SO 138 0 min 0,000 mm 0,0 UV-I 0 W/m 2,7 C 0,0 km/h (0 Bft)
09.10.2016 19:36 3,9 C 3,9 C 93 % 1022,7 hPa 0,0 mm 0,0 km/h (0 Bft) SO 138 0 min 0,000 mm 0,0 UV-I 0 W/m 2,9 C 0,0 km/h (0 Bft)
09.10.2016 19:37 3,8 C 3,9 C 93 % 1022,6 hPa 0,0 mm 0,0 km/h (0 Bft) SO 138 0 min 0,000 mm 0,0 UV-I 0 W/m 2,8 C 0,0 km/h (0 Bft)
09.10.2016 19:38 3,8 C 3,8 C 93 % 1022,7 hPa 0,0 mm 0,0 km/h (0 Bft) SO 138 0 min 0,000 mm 0,0 UV-I 0 W/m 2,8 C 0,0 km/h (0 Bft)
09.10.2016 19:39 3,8 C 3,8 C 93 % 1022,6 hPa 0,0 mm 0,0 km/h (0 Bft) SO 138 0 min 0,000 mm 0,0 UV-I 0 W/m 2,8 C 0,0 km/h (0 Bft)
09.10.2016 19:40 3,7 C 3,8 C 93 % 1022,7 hPa 0,0 mm 0,0 km/h (0 Bft) SO 138 0 min 0,000 mm 0,0 UV-I 0 W/m 2,7 C 0,0 km/h (0 Bft)
09.10.2016 19:41 3,7 C 3,7 C 93 % 1022,6 hPa 0,0 mm 0,0 km/h (0 Bft) SO 138 0 min 0,000 mm 0,0 UV-I 0 W/m 2,7 C 0,0 km/h (0 Bft)
09.10.2016 19:42 3,7 C 3,7 C 93 % 1022,6 hPa 0,0 mm 0,0 km/h (0 Bft) SO 138 0 min 0,000 mm 0,0 UV-I 0 W/m 2,7 C 0,0 km/h (0 Bft)
09.10.2016 19:43 3,7 C 3,7 C 93 % 1022,7 hPa 0,0 mm 0,0 km/h (0 Bft) SO 138 0 min 0,000 mm 0,0 UV-I 0 W/m 2,7 C 0,0 km/h (0 Bft)
09.10.2016 19:44 3,7 C 3,7 C 93 % 1022,6 hPa 0,0 mm 0,0 km/h (0 Bft) SO 138 0 min 0,000 mm 0,0 UV-I 0 W/m 2,7 C 0,0 km/h (0 Bft)
09.10.2016 19:45 3,7 C 3,7 C 94 % 1022,6 hPa 0,0 mm 0,0 km/h (0 Bft) SO 138 0 min 0,000 mm 0,0 UV-I 0 W/m 2,8 C 0,0 km/h (0 Bft)
09.10.2016 19:46 3,7 C 3,7 C 94 % 1022,6 hPa 0,0 mm 0,0 km/h (0 Bft) SO 138 0 min 0,000 mm 0,0 UV-I 0 W/m 2,8 C 0,0 km/h (0 Bft)
09.10.2016 19:47 3,7 C 3,7 C 94 % 1022,6 hPa 0,0 mm 0,0 km/h (0 Bft) SO 138 0 min 0,000 mm 0,0 UV-I 0 W/m 2,8 C 0,0 km/h (0 Bft)
09.10.2016 19:48 3,7 C 3,7 C 93 % 1022,6 hPa 0,0 mm 0,0 km/h (0 Bft) SO 138 0 min 0,000 mm 0,0 UV-I 0 W/m 2,7 C 0,0 km/h (0 Bft)
09.10.2016 19:49 3,7 C 3,7 C 93 % 1022,6 hPa 0,0 mm 0,0 km/h (0 Bft) SO 138 0 min 0,000 mm 0,0 UV-I 0 W/m 2,7 C 0,0 km/h (0 Bft)
09.10.2016 19:50 3,7 C 3,8 C 93 % 1022,7 hPa 0,0 mm 0,0 km/h (0 Bft) SO 138 0 min 0,000 mm 0,0 UV-I 0 W/m 2,7 C 0,0 km/h (0 Bft)
09.10.2016 19:51 3,7 C 3,7 C 93 % 1022,6 hPa 0,0 mm 0,5 km/h (0 Bft) SO 138 0 min 0,000 mm 0,0 UV-I 0 W/m 2,7 C 1,6 km/h (1 Bft)
09.10.2016 19:52 3,6 C 3,7 C 93 % 1022,6 hPa 0,0 mm 0,5 km/h (0 Bft) SO 138 0 min 0,000 mm 0,0 UV-I 0 W/m 2,6 C 1,6 km/h (1 Bft)
09.10.2016 19:53 3,6 C 3,6 C 92 % 1022,7 hPa 0,0 mm 0,0 km/h (0 Bft) SO 138 0 min 0,000 mm 0,0 UV-I 0 W/m 2,4 C 0,0 km/h (0 Bft)
09.10.2016 19:54 3,4 C 3,6 C 92 % 1022,7 hPa 0,0 mm 0,0 km/h (0 Bft) SO 138 0 min 0,000 mm 0,0 UV-I 0 W/m 2,2 C 0,0 km/h (0 Bft)
09.10.2016 19:55 3,4 C 3,4 C 93 % 1022,7 hPa 0,0 mm 0,0 km/h (0 Bft) SO 138 0 min 0,000 mm 0,0 UV-I 0 W/m 2,4 C 0,0 km/h (0 Bft)
09.10.2016 19:56 3,3 C 3,4 C 93 % 1022,7 hPa 0,0 mm 0,0 km/h (0 Bft) SO 138 0 min 0,000 mm 0,0 UV-I 0 W/m 2,3 C 0,0 km/h (0 Bft)
09.10.2016 19:57 3,3 C 3,4 C 93 % 1022,7 hPa 0,0 mm 0,0 km/h (0 Bft) SO 138 0 min 0,000 mm 0,0 UV-I 0 W/m 2,3 C 0,0 km/h (0 Bft)
09.10.2016 19:58 3,3 C 3,3 C 93 % 1022,7 hPa 0,0 mm 0,0 km/h (0 Bft) SO 138 0 min 0,000 mm 0,0 UV-I 0 W/m 2,3 C 0,0 km/h (0 Bft)
09.10.2016 19:59 3,3 C 3,3 C 93 % 1022,7 hPa 0,0 mm 0,0 km/h (0 Bft) SO 138 0 min 0,000 mm 0,0 UV-I 0 W/m 2,3 C 0,0 km/h (0 Bft)
09.10.2016 20:00 3,3 C 3,3 C 93 % 1022,7 hPa 0,0 mm 0,0 km/h (0 Bft) SO 138 0 min 0,000 mm 0,0 UV-I 0 W/m 2,3 C 0,0 km/h (0 Bft)
09.10.2016 20:01 3,3 C 3,3 C 93 % 1022,7 hPa 0,0 mm 0,0 km/h (0 Bft) SO 138 0 min 0,000 mm 0,0 UV-I 0 W/m 2,3 C 0,0 km/h (0 Bft)
09.10.2016 20:02 3,3 C 3,3 C 93 % 1022,8 hPa 0,0 mm 0,0 km/h (0 Bft) SO 138 0 min 0,000 mm 0,0 UV-I 0 W/m 2,3 C 0,0 km/h (0 Bft)
09.10.2016 20:03 3,3 C 3,3 C 93 % 1022,8 hPa 0,0 mm 0,0 km/h (0 Bft) SO 138 0 min 0,000 mm 0,0 UV-I 0 W/m 2,3 C 0,0 km/h (0 Bft)
09.10.2016 20:04 3,3 C 3,3 C 93 % 1022,8 hPa 0,0 mm 0,0 km/h (0 Bft) SO 138 0 min 0,000 mm 0,0 UV-I 0 W/m 2,3 C 0,0 km/h (0 Bft)
09.10.2016 20:05 3,2 C 3,3 C 93 % 1022,8 hPa 0,0 mm 0,0 km/h (0 Bft) SO 138 0 min 0,000 mm 0,0 UV-I 0 W/m 2,2 C 0,0 km/h (0 Bft)
09.10.2016 20:06 3,2 C 3,3 C 93 % 1022,8 hPa 0,0 mm 0,0 km/h (0 Bft) SO 138 0 min 0,000 mm 0,0 UV-I 0 W/m 2,2 C 0,0 km/h (0 Bft)
09.10.2016 20:07 3,2 C 3,2 C 93 % 1022,8 hPa 0,0 mm 0,0 km/h (0 Bft) SO 138 0 min 0,000 mm 0,0 UV-I 0 W/m 2,2 C 0,0 km/h (0 Bft)
09.10.2016 20:08 3,2 C 3,2 C 93 % 1022,8 hPa 0,0 mm 0,9 km/h (0 Bft) SO 138 0 min 0,000 mm 0,0 UV-I 0 W/m 2,2 C 1,6 km/h (1 Bft)
09.10.2016 20:09 3,2 C 3,2 C 93 % 1022,8 hPa 0,0 mm 0,9 km/h (0 Bft) SO 138 0 min 0,000 mm 0,0 UV-I 0 W/m 2,2 C 1,6 km/h (1 Bft)
09.10.2016 20:10 3,2 C 3,2 C 93 % 1022,9 hPa 0,0 mm 1,0 km/h (0 Bft) SO 138 0 min 0,000 mm 0,0 UV-I 0 W/m 2,2 C 1,6 km/h (1 Bft)
09.10.2016 20:11 3,2 C 3,2 C 93 % 1022,9 hPa 0,0 mm 0,4 km/h (0 Bft) SO 138 0 min 0,000 mm 0,0 UV-I 0 W/m 2,2 C 1,6 km/h (1 Bft)
09.10.2016 20:12 3,1 C 3,2 C 94 % 1022,9 hPa 0,0 mm 0,1 km/h (0 Bft) SO 138 0 min 0,000 mm 0,0 UV-I 0 W/m 2,2 C 1,6 km/h (1 Bft)
09.10.2016 20:13 3,1 C 3,1 C 94 % 1022,9 hPa 0,0 mm 0,2 km/h (0 Bft) SO 138 0 min 0,000 mm 0,0 UV-I 0 W/m 2,2 C 1,6 km/h (1 Bft)
09.10.2016 20:14 3,1 C 3,1 C 94 % 1022,9 hPa 0,0 mm 0,0 km/h (0 Bft) SO 138 0 min 0,000 mm 0,0 UV-I 0 W/m 2,2 C 0,0 km/h (0 Bft)
09.10.2016 20:15 3,1 C 3,1 C 94 % 1022,9 hPa 0,0 mm 0,0 km/h (0 Bft) SO 138 0 min 0,000 mm 0,0 UV-I 0 W/m 2,2 C 0,0 km/h (0 Bft)
09.10.2016 20:16 3,1 C 3,1 C 94 % 1023,0 hPa 0,0 mm 0,0 km/h (0 Bft) SO 138 0 min 0,000 mm 0,0 UV-I 0 W/m 2,2 C 0,0 km/h (0 Bft)
09.10.2016 20:17 3,1 C 3,1 C 94 % 1023,0 hPa 0,0 mm 0,0 km/h (0 Bft) SO 138 0 min 0,000 mm 0,0 UV-I 0 W/m 2,2 C 0,0 km/h (0 Bft)
09.10.2016 20:18 3,1 C 3,1 C 94 % 1023,0 hPa 0,0 mm 0,0 km/h (0 Bft) SO 138 0 min 0,000 mm 0,0 UV-I 0 W/m 2,2 C 0,0 km/h (0 Bft)
09.10.2016 20:19 3,0 C 3,1 C 94 % 1023,0 hPa 0,0 mm 0,0 km/h (0 Bft) SO 138 0 min 0,000 mm 0,0 UV-I 0 W/m 2,1 C 0,0 km/h (0 Bft)
09.10.2016 20:20 3,0 C 3,0 C 94 % 1023,0 hPa 0,0 mm 0,0 km/h (0 Bft) SO 138 0 min 0,000 mm 0,0 UV-I 0 W/m 2,1 C 0,0 km/h (0 Bft)
09.10.2016 20:21 3,0 C 3,0 C 94 % 1023,0 hPa 0,0 mm 0,0 km/h (0 Bft) SO 138 0 min 0,000 mm 0,0 UV-I 0 W/m 2,1 C 0,0 km/h (0 Bft)
09.10.2016 20:22 3,0 C 3,0 C 94 % 1023,1 hPa 0,0 mm 0,8 km/h (0 Bft) SO 138 0 min 0,000 mm 0,0 UV-I 0 W/m 2,1 C 1,6 km/h (1 Bft)
09.10.2016 20:23 3,0 C 3,1 C 94 % 1023,0 hPa 0,0 mm 1,7 km/h (1 Bft) SO 138 0 min 0,000 mm 0,0 UV-I 0 W/m 2,1 C 3,2 km/h (1 Bft)
09.10.2016 20:24 3,1 C 3,1 C 94 % 1023,1 hPa 0,0 mm 1,7 km/h (1 Bft) SO 138 0 min 0,000 mm 0,0 UV-I 0 W/m 2,2 C 3,2 km/h (1 Bft)
09.10.2016 20:25 3,1 C 3,1 C 94 % 1023,0 hPa 0,0 mm 2,4 km/h (1 Bft) SO 138 0 min 0,000 mm 0,0 UV-I 0 W/m 2,2 C 3,2 km/h (1 Bft)
09.10.2016 20:26 3,1 C 3,1 C 94 % 1023,0 hPa 0,0 mm 2,9 km/h (1 Bft) SO 138 0 min 0,000 mm 0,0 UV-I 0 W/m 2,2 C 4,8 km/h (1 Bft)
09.10.2016 20:27 3,1 C 3,1 C 94 % 1023,0 hPa 0,0 mm 2,2 km/h (1 Bft) SO 138 0 min 0,000 mm 0,0 UV-I 0 W/m 2,2 C 3,2 km/h (1 Bft)
09.10.2016 20:28 3,1 C 3,1 C 94 % 1023,0 hPa 0,0 mm 3,8 km/h (1 Bft) SO 138 0 min 0,000 mm 0,0 UV-I 0 W/m 2,2 C 4,8 km/h (1 Bft)
09.10.2016 20:29 3,2 C 3,2 C 94 % 1023,0 hPa 0,0 mm 3,4 km/h (1 Bft) SO 138 0 min 0,000 mm 0,0 UV-I 0 W/m 2,3 C 4,8 km/h (1 Bft)
09.10.2016 20:30 3,3 C 3,3 C 95 % 1023,0 hPa 0,0 mm 3,4 km/h (1 Bft) S-SO 150 0 min 0,000 mm 0,0 UV-I 0 W/m 2,6 C 4,8 km/h (1 Bft)
09.10.2016 20:31 3,3 C 3,3 C 95 % 1023,0 hPa 0,0 mm 4,2 km/h (1 Bft) S 174 0 min 0,000 mm 0,0 UV-I 0 W/m 2,6 C 6,4 km/h (2 Bft)
09.10.2016 20:32 3,4 C 3,4 C 94 % 1023,0 hPa 0,0 mm 4,0 km/h (1 Bft) S 173 0 min 0,000 mm 0,0 UV-I 0 W/m 2,5 C 4,8 km/h (1 Bft)
09.10.2016 20:33 3,4 C 3,4 C 94 % 1023,0 hPa 0,0 mm 4,6 km/h (1 Bft) S 173 0 min 0,000 mm 0,0 UV-I 0 W/m 2,5 C 8,0 km/h (2 Bft)
09.10.2016 20:34 3,4 C 3,4 C 94 % 1023,0 hPa 0,0 mm 3,9 km/h (1 Bft) S 173 0 min 0,000 mm 0,0 UV-I 0 W/m 2,5 C 4,8 km/h (1 Bft)
09.10.2016 20:35 3,5 C 3,5 C 94 % 1023,1 hPa 0,0 mm 3,4 km/h (1 Bft) S 173 0 min 0,000 mm 0,0 UV-I 0 W/m 2,6 C 4,8 km/h (1 Bft)
09.10.2016 20:36 3,6 C 3,6 C 94 % 1023,0 hPa 0,0 mm 2,9 km/h (1 Bft) S 173 0 min 0,000 mm 0,0 UV-I 0 W/m 2,7 C 3,2 km/h (1 Bft)
09.10.2016 20:37 3,6 C 3,6 C 94 % 1023,1 hPa 0,0 mm 3,6 km/h (1 Bft) S 173 0 min 0,000 mm 0,0 UV-I 0 W/m 2,7 C 4,8 km/h (1 Bft)
09.10.2016 20:38 3,6 C 3,6 C 94 % 1023,1 hPa 0,0 mm 5,2 km/h (1 Bft) S 172 0 min 0,000 mm 0,0 UV-I 0 W/m 2,7 C 8,0 km/h (2 Bft)
09.10.2016 20:39 3,6 C 3,6 C 93 % 1023,1 hPa 0,0 mm 4,3 km/h (1 Bft) S 172 0 min 0,000 mm 0,0 UV-I 0 W/m 2,6 C 4,8 km/h (1 Bft)
09.10.2016 20:40 3,7 C 3,7 C 93 % 1023,1 hPa 0,0 mm 3,7 km/h (1 Bft) S 172 0 min 0,000 mm 0,0 UV-I 0 W/m 2,7 C 4,8 km/h (1 Bft)
09.10.2016 20:41 3,7 C 3,7 C 93 % 1023,1 hPa 0,0 mm 4,0 km/h (1 Bft) S 172 0 min 0,000 mm 0,0 UV-I 0 W/m 2,7 C 4,8 km/h (1 Bft)
09.10.2016 20:42 3,7 C 3,7 C 93 % 1023,1 hPa 0,0 mm 3,7 km/h (1 Bft) S 172 0 min 0,000 mm 0,0 UV-I 0 W/m 2,7 C 4,8 km/h (1 Bft)
09.10.2016 20:43 3,7 C 3,7 C 93 % 1023,1 hPa 0,0 mm 4,1 km/h (1 Bft) S 171 0 min 0,000 mm 0,0 UV-I 0 W/m 2,7 C 6,4 km/h (2 Bft)
09.10.2016 20:44 3,7 C 3,7 C 93 % 1023,1 hPa 0,0 mm 3,2 km/h (1 Bft) S 171 0 min 0,000 mm 0,0 UV-I 0 W/m 2,7 C 3,2 km/h (1 Bft)
09.10.2016 20:45 3,7 C 3,7 C 93 % 1023,1 hPa 0,0 mm 3,2 km/h (1 Bft) S 171 0 min 0,000 mm 0,0 UV-I 0 W/m 2,7 C 3,2 km/h (1 Bft)
09.10.2016 20:46 3,7 C 3,7 C 92 % 1023,1 hPa 0,0 mm 3,1 km/h (1 Bft) S 171 0 min 0,000 mm 0,0 UV-I 0 W/m 2,5 C 3,2 km/h (1 Bft)
09.10.2016 20:47 3,6 C 3,7 C 92 % 1023,1 hPa 0,0 mm 3,2 km/h (1 Bft) S 171 0 min 0,000 mm 0,0 UV-I 0 W/m 2,4 C 6,4 km/h (2 Bft)
09.10.2016 20:48 3,6 C 3,6 C 92 % 1023,2 hPa 0,0 mm 3,1 km/h (1 Bft) S 171 0 min 0,000 mm 0,0 UV-I 0 W/m 2,4 C 3,2 km/h (1 Bft)
09.10.2016 20:49 3,6 C 3,6 C 92 % 1023,2 hPa 0,0 mm 2,5 km/h (1 Bft) S 171 0 min 0,000 mm 0,0 UV-I 0 W/m 2,4 C 3,2 km/h (1 Bft)
09.10.2016 20:50 3,4 C 3,6 C 92 % 1023,3 hPa 0,0 mm 3,3 km/h (1 Bft) S 171 0 min 0,000 mm 0,0 UV-I 0 W/m 2,2 C 6,4 km/h (2 Bft)
09.10.2016 20:51 3,4 C 3,4 C 92 % 1023,2 hPa 0,0 mm 2,5 km/h (1 Bft) S 171 0 min 0,000 mm 0,0 UV-I 0 W/m 2,2 C 3,2 km/h (1 Bft)
09.10.2016 20:52 3,3 C 3,4 C 92 % 1023,2 hPa 0,0 mm 3,5 km/h (1 Bft) S 171 0 min 0,000 mm 0,0 UV-I 0 W/m 2,1 C 6,4 km/h (2 Bft)
09.10.2016 20:53 3,3 C 3,3 C 92 % 1023,2 hPa 0,0 mm 3,5 km/h (1 Bft) S 171 0 min 0,000 mm 0,0 UV-I 0 W/m 2,1 C 6,4 km/h (2 Bft)
09.10.2016 20:54 3,3 C 3,3 C 92 % 1023,2 hPa 0,0 mm 3,9 km/h (1 Bft) S 171 0 min 0,000 mm 0,0 UV-I 0 W/m 2,1 C 6,4 km/h (2 Bft)
09.10.2016 20:55 3,2 C 3,3 C 92 % 1023,2 hPa 0,0 mm 5,0 km/h (1 Bft) S 171 0 min 0,000 mm 0,0 UV-I 0 W/m 2,0 C 6,4 km/h (2 Bft)
09.10.2016 20:56 3,2 C 3,2 C 92 % 1023,2 hPa 0,0 mm 4,3 km/h (1 Bft) S 171 0 min 0,000 mm 0,0 UV-I 0 W/m 2,0 C 6,4 km/h (2 Bft)
09.10.2016 20:57 3,2 C 3,2 C 92 % 1023,2 hPa 0,0 mm 4,4 km/h (1 Bft) S 171 0 min 0,000 mm 0,0 UV-I 0 W/m 2,0 C 6,4 km/h (2 Bft)
09.10.2016 20:58 3,1 C 3,2 C 93 % 1023,2 hPa 0,0 mm 4,2 km/h (1 Bft) S 171 0 min 0,000 mm 0,0 UV-I 0 W/m 2,1 C 6,4 km/h (2 Bft)
09.10.2016 20:59 3,1 C 3,1 C 93 % 1023,2 hPa 0,0 mm 4,2 km/h (1 Bft) S 171 0 min 0,000 mm 0,0 UV-I 0 W/m 2,1 C 6,4 km/h (2 Bft)
09.10.2016 21:00 3,1 C 3,1 C 93 % 1023,2 hPa 0,0 mm 3,4 km/h (1 Bft) S-SO 164 0 min 0,000 mm 0,0 UV-I 0 W/m 2,1 C 6,4 km/h (2 Bft)
09.10.2016 21:01 3,1 C 3,1 C 93 % 1023,2 hPa 0,0 mm 2,7 km/h (1 Bft) S-SO 164 0 min 0,000 mm 0,0 UV-I 0 W/m 2,1 C 3,2 km/h (1 Bft)
09.10.2016 21:02 3,0 C 3,1 C 93 % 1023,2 hPa 0,0 mm 2,5 km/h (1 Bft) S-SO 164 0 min 0,000 mm 0,0 UV-I 0 W/m 2,0 C 3,2 km/h (1 Bft)
09.10.2016 21:03 3,1 C 3,1 C 93 % 1023,2 hPa 0,0 mm 3,1 km/h (1 Bft) S-SO 164 0 min 0,000 mm 0,0 UV-I 0 W/m 2,1 C 6,4 km/h (2 Bft)
09.10.2016 21:04 3,1 C 3,1 C 93 % 1023,2 hPa 0,0 mm 3,8 km/h (1 Bft) SO 136 0 min 0,000 mm 0,0 UV-I 0 W/m 2,1 C 8,0 km/h (2 Bft)
09.10.2016 21:05 3,1 C 3,1 C 93 % 1023,3 hPa 0,0 mm 2,7 km/h (1 Bft) SO 137 0 min 0,000 mm 0,0 UV-I 0 W/m 2,1 C 3,2 km/h (1 Bft)
09.10.2016 21:06 3,1 C 3,1 C 93 % 1023,3 hPa 0,0 mm 2,7 km/h (1 Bft) SO 137 0 min 0,000 mm 0,0 UV-I 0 W/m 2,1 C 3,2 km/h (1 Bft)
09.10.2016 21:07 3,2 C 3,2 C 93 % 1023,3 hPa 0,0 mm 2,9 km/h (1 Bft) S-SO 148 0 min 0,000 mm 0,0 UV-I 0 W/m 2,2 C 4,8 km/h (1 Bft)
09.10.2016 21:08 3,2 C 3,2 C 93 % 1023,2 hPa 0,0 mm 2,4 km/h (1 Bft) S-SO 148 0 min 0,000 mm 0,0 UV-I 0 W/m 2,2 C 3,2 km/h (1 Bft)
09.10.2016 21:09 3,2 C 3,2 C 93 % 1023,3 hPa 0,0 mm 2,6 km/h (1 Bft) S-SO 148 0 min 0,000 mm 0,0 UV-I 0 W/m 2,2 C 3,2 km/h (1 Bft)
09.10.2016 21:10 3,2 C 3,2 C 93 % 1023,2 hPa 0,0 mm 2,5 km/h (1 Bft) S-SO 148 0 min 0,000 mm 0,0 UV-I 0 W/m 2,2 C 4,8 km/h (1 Bft)
09.10.2016 21:11 3,2 C 3,2 C 93 % 1023,3 hPa 0,0 mm 3,0 km/h (1 Bft) SO 136 0 min 0,000 mm 0,0 UV-I 0 W/m 2,2 C 4,8 km/h (1 Bft)
09.10.2016 21:12 3,3 C 3,3 C 93 % 1023,3 hPa 0,0 mm 3,4 km/h (1 Bft) SO 136 0 min 0,000 mm 0,0 UV-I 0 W/m 2,3 C 6,4 km/h (2 Bft)
09.10.2016 21:13 3,3 C 3,3 C 93 % 1023,3 hPa 0,0 mm 3,1 km/h (1 Bft) SO 137 0 min 0,000 mm 0,0 UV-I 0 W/m 2,3 C 3,2 km/h (1 Bft)
09.10.2016 21:14 3,3 C 3,3 C 93 % 1023,3 hPa 0,0 mm 3,4 km/h (1 Bft) SO 141 0 min 0,000 mm 0,0 UV-I 0 W/m 2,3 C 4,8 km/h (1 Bft)
09.10.2016 21:15 3,3 C 3,3 C 93 % 1023,3 hPa 0,0 mm 2,6 km/h (1 Bft) SO 141 0 min 0,000 mm 0,0 UV-I 0 W/m 2,3 C 4,8 km/h (1 Bft)
09.10.2016 21:16 3,3 C 3,3 C 93 % 1023,3 hPa 0,0 mm 2,4 km/h (1 Bft) SO 141 0 min 0,000 mm 0,0 UV-I 0 W/m 2,3 C 4,8 km/h (1 Bft)
09.10.2016 21:17 3,3 C 3,3 C 93 % 1023,3 hPa 0,0 mm 0,1 km/h (0 Bft) SO 141 0 min 0,000 mm 0,0 UV-I 0 W/m 2,3 C 1,6 km/h (1 Bft)
09.10.2016 21:18 3,3 C 3,3 C 93 % 1023,3 hPa 0,0 mm 0,0 km/h (0 Bft) SO 141 0 min 0,000 mm 0,0 UV-I 0 W/m 2,3 C 0,0 km/h (0 Bft)
09.10.2016 21:19 3,2 C 3,3 C 93 % 1023,4 hPa 0,0 mm 0,0 km/h (0 Bft) SO 141 0 min 0,000 mm 0,0 UV-I 0 W/m 2,2 C 0,0 km/h (0 Bft)
09.10.2016 21:20 3,2 C 3,2 C 92 % 1023,4 hPa 0,0 mm 0,0 km/h (0 Bft) SO 141 0 min 0,000 mm 0,0 UV-I 0 W/m 2,0 C 0,0 km/h (0 Bft)
09.10.2016 21:21 3,1 C 3,2 C 92 % 1023,4 hPa 0,0 mm 0,0 km/h (0 Bft) SO 141 0 min 0,000 mm 0,0 UV-I 0 W/m 1,9 C 0,0 km/h (0 Bft)
09.10.2016 21:22 3,0 C 3,1 C 92 % 1023,4 hPa 0,0 mm 0,0 km/h (0 Bft) SO 141 0 min 0,000 mm 0,0 UV-I 0 W/m 1,8 C 0,0 km/h (0 Bft)
09.10.2016 21:23 2,9 C 3,0 C 93 % 1023,3 hPa 0,0 mm 0,0 km/h (0 Bft) SO 141 0 min 0,000 mm 0,0 UV-I 0 W/m 1,9 C 0,0 km/h (0 Bft)
09.10.2016 21:24 2,9 C 2,9 C 93 % 1023,5 hPa 0,0 mm 0,0 km/h (0 Bft) SO 141 0 min 0,000 mm 0,0 UV-I 0 W/m 1,9 C 0,0 km/h (0 Bft)
09.10.2016 21:25 2,9 C 2,9 C 93 % 1023,4 hPa 0,0 mm 0,0 km/h (0 Bft) SO 141 0 min 0,000 mm 0,0 UV-I 0 W/m 1,9 C 0,0 km/h (0 Bft)
09.10.2016 21:26 2,8 C 2,9 C 93 % 1023,4 hPa 0,0 mm 0,0 km/h (0 Bft) SO 141 0 min 0,000 mm 0,0 UV-I 0 W/m 1,8 C 0,0 km/h (0 Bft)
09.10.2016 21:27 2,8 C 2,8 C 93 % 1023,5 hPa 0,0 mm 0,0 km/h (0 Bft) SO 141 0 min 0,000 mm 0,0 UV-I 0 W/m 1,8 C 0,0 km/h (0 Bft)
09.10.2016 21:28 2,8 C 2,8 C 93 % 1023,5 hPa 0,0 mm 0,0 km/h (0 Bft) SO 141 0 min 0,000 mm 0,0 UV-I 0 W/m 1,8 C 0,0 km/h (0 Bft)
09.10.2016 21:29 2,8 C 2,8 C 93 % 1023,5 hPa 0,0 mm 0,0 km/h (0 Bft) SO 141 0 min 0,000 mm 0,0 UV-I 0 W/m 1,8 C 0,0 km/h (0 Bft)
09.10.2016 21:30 2,8 C 2,8 C 93 % 1023,5 hPa 0,0 mm 0,0 km/h (0 Bft) SO 141 0 min 0,000 mm 0,0 UV-I 0 W/m 1,8 C 0,0 km/h (0 Bft)
09.10.2016 21:31 2,7 C 2,8 C 93 % 1023,5 hPa 0,0 mm 0,0 km/h (0 Bft) SO 141 0 min 0,000 mm 0,0 UV-I 0 W/m 1,7 C 0,0 km/h (0 Bft)
09.10.2016 21:32 2,7 C 2,7 C 93 % 1023,5 hPa 0,0 mm 0,0 km/h (0 Bft) SO 141 0 min 0,000 mm 0,0 UV-I 0 W/m 1,7 C 0,0 km/h (0 Bft)
09.10.2016 21:33 2,7 C 2,7 C 93 % 1023,5 hPa 0,0 mm 0,0 km/h (0 Bft) SO 141 0 min 0,000 mm 0,0 UV-I 0 W/m 1,7 C 0,0 km/h (0 Bft)
09.10.2016 21:34 2,6 C 2,7 C 93 % 1023,6 hPa 0,0 mm 0,0 km/h (0 Bft) SO 141 0 min 0,000 mm 0,0 UV-I 0 W/m 1,6 C 0,0 km/h (0 Bft)
09.10.2016 21:35 2,6 C 2,6 C 93 % 1023,5 hPa 0,0 mm 0,0 km/h (0 Bft) SO 141 0 min 0,000 mm 0,0 UV-I 0 W/m 1,6 C 0,0 km/h (0 Bft)
09.10.2016 21:36 2,7 C 2,7 C 94 % 1023,5 hPa 0,0 mm 0,5 km/h (0 Bft) SO 141 0 min 0,000 mm 0,0 UV-I 0 W/m 1,8 C 1,6 km/h (1 Bft)
09.10.2016 21:37 2,7 C 2,7 C 94 % 1023,6 hPa 0,0 mm 1,5 km/h (1 Bft) SO 141 0 min 0,000 mm 0,0 UV-I 0 W/m 1,8 C 1,6 km/h (1 Bft)
09.10.2016 21:38 2,7 C 2,7 C 94 % 1023,5 hPa 0,0 mm 1,3 km/h (1 Bft) SO 141 0 min 0,000 mm 0,0 UV-I 0 W/m 1,8 C 1,6 km/h (1 Bft)
09.10.2016 21:39 2,7 C 2,7 C 94 % 1023,5 hPa 0,0 mm 1,1 km/h (1 Bft) SO 141 0 min 0,000 mm 0,0 UV-I 0 W/m 1,8 C 1,6 km/h (1 Bft)
09.10.2016 21:40 2,7 C 2,7 C 94 % 1023,5 hPa 0,0 mm 0,5 km/h (0 Bft) SO 141 0 min 0,000 mm 0,0 UV-I 0 W/m 1,8 C 1,6 km/h (1 Bft)
09.10.2016 21:41 2,7 C 2,7 C 94 % 1023,5 hPa 0,0 mm 1,0 km/h (0 Bft) SO 141 0 min 0,000 mm 0,0 UV-I 0 W/m 1,8 C 1,6 km/h (1 Bft)
09.10.2016 21:42 2,7 C 2,7 C 94 % 1023,5 hPa 0,0 mm 0,0 km/h (0 Bft) SO 141 0 min 0,000 mm 0,0 UV-I 0 W/m 1,8 C 0,0 km/h (0 Bft)
09.10.2016 21:43 2,7 C 2,7 C 94 % 1023,6 hPa 0,0 mm 0,6 km/h (0 Bft) SO 141 0 min 0,000 mm 0,0 UV-I 0 W/m 1,8 C 1,6 km/h (1 Bft)
09.10.2016 21:44 2,7 C 2,7 C 94 % 1023,6 hPa 0,0 mm 1,1 km/h (1 Bft) SO 141 0 min 0,000 mm 0,0 UV-I 0 W/m 1,8 C 1,6 km/h (1 Bft)
09.10.2016 21:45 2,6 C 2,7 C 94 % 1023,6 hPa 0,0 mm 0,1 km/h (0 Bft) SO 141 0 min 0,000 mm 0,0 UV-I 0 W/m 1,7 C 1,6 km/h (1 Bft)
09.10.2016 21:46 2,6 C 2,6 C 93 % 1023,6 hPa 0,0 mm 0,3 km/h (0 Bft) SO 141 0 min 0,000 mm 0,0 UV-I 0 W/m 1,6 C 1,6 km/h (1 Bft)
09.10.2016 21:47 2,6 C 2,6 C 94 % 1023,6 hPa 0,0 mm 1,8 km/h (1 Bft) SO 141 0 min 0,000 mm 0,0 UV-I 0 W/m 1,7 C 3,2 km/h (1 Bft)
09.10.2016 21:48 2,6 C 2,6 C 94 % 1023,7 hPa 0,0 mm 2,0 km/h (1 Bft) SO 141 0 min 0,000 mm 0,0 UV-I 0 W/m 1,7 C 3,2 km/h (1 Bft)
09.10.2016 21:49 2,7 C 2,7 C 94 % 1023,8 hPa 0,0 mm 1,8 km/h (1 Bft) SO 141 0 min 0,000 mm 0,0 UV-I 0 W/m 1,8 C 3,2 km/h (1 Bft)
09.10.2016 21:50 2,7 C 2,7 C 94 % 1023,7 hPa 0,0 mm 0,5 km/h (0 Bft) SO 141 0 min 0,000 mm 0,0 UV-I 0 W/m 1,8 C 1,6 km/h (1 Bft)
09.10.2016 21:51 2,7 C 2,7 C 94 % 1023,7 hPa 0,0 mm 0,0 km/h (0 Bft) SO 141 0 min 0,000 mm 0,0 UV-I 0 W/m 1,8 C 0,0 km/h (0 Bft)
09.10.2016 21:52 2,8 C 2,8 C 94 % 1023,7 hPa 0,0 mm 0,0 km/h (0 Bft) SO 141 0 min 0,000 mm 0,0 UV-I 0 W/m 1,9 C 0,0 km/h (0 Bft)
09.10.2016 21:53 2,8 C 2,8 C 95 % 1023,7 hPa 0,0 mm 0,0 km/h (0 Bft) SO 141 0 min 0,000 mm 0,0 UV-I 0 W/m 2,1 C 0,0 km/h (0 Bft)
09.10.2016 21:54 2,8 C 2,8 C 94 % 1023,8 hPa 0,0 mm 0,0 km/h (0 Bft) SO 141 0 min 0,000 mm 0,0 UV-I 0 W/m 1,9 C 0,0 km/h (0 Bft)
09.10.2016 21:55 2,8 C 2,8 C 94 % 1023,8 hPa 0,0 mm 1,0 km/h (0 Bft) SO 141 0 min 0,000 mm 0,0 UV-I 0 W/m 1,9 C 3,2 km/h (1 Bft)
09.10.2016 21:56 2,8 C 2,8 C 94 % 1023,7 hPa 0,0 mm 1,5 km/h (1 Bft) SO 141 0 min 0,000 mm 0,0 UV-I 0 W/m 1,9 C 3,2 km/h (1 Bft)
09.10.2016 21:57 2,8 C 2,8 C 94 % 1023,7 hPa 0,0 mm 2,3 km/h (1 Bft) SO 141 0 min 0,000 mm 0,0 UV-I 0 W/m 1,9 C 3,2 km/h (1 Bft)
09.10.2016 21:58 2,9 C 2,9 C 95 % 1023,7 hPa 0,0 mm 3,0 km/h (1 Bft) SO 141 0 min 0,000 mm 0,0 UV-I 0 W/m 2,2 C 4,8 km/h (1 Bft)
09.10.2016 21:59 2,9 C 2,9 C 95 % 1023,8 hPa 0,0 mm 1,4 km/h (1 Bft) SO 141 0 min 0,000 mm 0,0 UV-I 0 W/m 2,2 C 4,8 km/h (1 Bft)
09.10.2016 22:00 2,9 C 3,0 C 94 % 1023,7 hPa 0,0 mm 0,0 km/h (0 Bft) SO 141 0 min 0,000 mm 0,0 UV-I 0 W/m 2,0 C 0,0 km/h (0 Bft)
09.10.2016 22:01 3,0 C 3,1 C 94 % 1023,8 hPa 0,0 mm 0,0 km/h (0 Bft) SO 141 0 min 0,000 mm 0,0 UV-I 0 W/m 2,1 C 0,0 km/h (0 Bft)
09.10.2016 22:02 3,1 C 3,1 C 94 % 1023,7 hPa 0,0 mm 0,5 km/h (0 Bft) SO 141 0 min 0,000 mm 0,0 UV-I 0 W/m 2,2 C 1,6 km/h (1 Bft)
09.10.2016 22:03 3,1 C 3,1 C 94 % 1023,8 hPa 0,0 mm 0,6 km/h (0 Bft) SO 141 0 min 0,000 mm 0,0 UV-I 0 W/m 2,2 C 1,6 km/h (1 Bft)
09.10.2016 22:04 3,1 C 3,1 C 94 % 1023,7 hPa 0,0 mm 0,0 km/h (0 Bft) SO 141 0 min 0,000 mm 0,0 UV-I 0 W/m 2,2 C 0,0 km/h (0 Bft)
09.10.2016 22:05 3,1 C 3,1 C 94 % 1023,8 hPa 0,0 mm 0,0 km/h (0 Bft) SO 141 0 min 0,000 mm 0,0 UV-I 0 W/m 2,2 C 0,0 km/h (0 Bft)
09.10.2016 22:06 3,1 C 3,1 C 94 % 1023,8 hPa 0,0 mm 0,0 km/h (0 Bft) SO 141 0 min 0,000 mm 0,0 UV-I 0 W/m 2,2 C 0,0 km/h (0 Bft)
09.10.2016 22:07 3,0 C 3,1 C 94 % 1023,8 hPa 0,0 mm 0,0 km/h (0 Bft) SO 141 0 min 0,000 mm 0,0 UV-I 0 W/m 2,1 C 0,0 km/h (0 Bft)
09.10.2016 22:08 3,0 C 3,1 C 94 % 1023,8 hPa 0,0 mm 0,0 km/h (0 Bft) SO 141 0 min 0,000 mm 0,0 UV-I 0 W/m 2,1 C 0,0 km/h (0 Bft)
09.10.2016 22:09 2,9 C 3,0 C 94 % 1023,8 hPa 0,0 mm 0,0 km/h (0 Bft) SO 141 0 min 0,000 mm 0,0 UV-I 0 W/m 2,0 C 0,0 km/h (0 Bft)
09.10.2016 22:10 2,9 C 3,0 C 94 % 1023,8 hPa 0,0 mm 0,0 km/h (0 Bft) SO 141 0 min 0,000 mm 0,0 UV-I 0 W/m 2,0 C 0,0 km/h (0 Bft)
09.10.2016 22:11 2,9 C 2,9 C 94 % 1023,7 hPa 0,0 mm 0,0 km/h (0 Bft) SO 141 0 min 0,000 mm 0,0 UV-I 0 W/m 2,0 C 0,0 km/h (0 Bft)
09.10.2016 22:12 2,9 C 2,9 C 94 % 1023,8 hPa 0,0 mm 0,0 km/h (0 Bft) SO 141 0 min 0,000 mm 0,0 UV-I 0 W/m 2,0 C 0,0 km/h (0 Bft)
09.10.2016 22:13 2,9 C 2,9 C 94 % 1023,8 hPa 0,0 mm 0,0 km/h (0 Bft) SO 141 0 min 0,000 mm 0,0 UV-I 0 W/m 2,0 C 0,0 km/h (0 Bft)
09.10.2016 22:14 2,9 C 2,9 C 94 % 1023,8 hPa 0,0 mm 0,0 km/h (0 Bft) SO 141 0 min 0,000 mm 0,0 UV-I 0 W/m 2,0 C 0,0 km/h (0 Bft)
09.10.2016 22:15 2,9 C 2,9 C 94 % 1023,8 hPa 0,0 mm 0,0 km/h (0 Bft) SO 141 0 min 0,000 mm 0,0 UV-I 0 W/m 2,0 C 0,0 km/h (0 Bft)
09.10.2016 22:16 2,9 C 2,9 C 94 % 1023,7 hPa 0,0 mm 0,0 km/h (0 Bft) SO 141 0 min 0,000 mm 0,0 UV-I 0 W/m 2,0 C 0,0 km/h (0 Bft)
09.10.2016 22:17 2,9 C 2,9 C 94 % 1023,8 hPa 0,0 mm 0,0 km/h (0 Bft) SO 141 0 min 0,000 mm 0,0 UV-I 0 W/m 2,0 C 0,0 km/h (0 Bft)
09.10.2016 22:18 2,8 C 2,9 C 94 % 1023,8 hPa 0,0 mm 0,0 km/h (0 Bft) SO 141 0 min 0,000 mm 0,0 UV-I 0 W/m 1,9 C 0,0 km/h (0 Bft)
09.10.2016 22:19 2,9 C 2,9 C 94 % 1023,8 hPa 0,0 mm 0,0 km/h (0 Bft) SO 141 0 min 0,000 mm 0,0 UV-I 0 W/m 2,0 C 0,0 km/h (0 Bft)
09.10.2016 22:20 2,9 C 2,9 C 94 % 1023,8 hPa 0,0 mm 0,0 km/h (0 Bft) SO 141 0 min 0,000 mm 0,0 UV-I 0 W/m 2,0 C 0,0 km/h (0 Bft)
09.10.2016 22:21 2,8 C 2,9 C 94 % 1023,9 hPa 0,0 mm 0,0 km/h (0 Bft) SO 141 0 min 0,000 mm 0,0 UV-I 0 W/m 1,9 C 0,0 km/h (0 Bft)
09.10.2016 22:22 2,8 C 2,8 C 94 % 1023,8 hPa 0,0 mm 0,0 km/h (0 Bft) SO 141 0 min 0,000 mm 0,0 UV-I 0 W/m 1,9 C 0,0 km/h (0 Bft)
09.10.2016 22:23 2,8 C 2,8 C 94 % 1023,8 hPa 0,0 mm 0,0 km/h (0 Bft) SO 141 0 min 0,000 mm 0,0 UV-I 0 W/m 1,9 C 0,0 km/h (0 Bft)
09.10.2016 22:24 2,7 C 2,8 C 94 % 1023,8 hPa 0,0 mm 0,0 km/h (0 Bft) SO 141 0 min 0,000 mm 0,0 UV-I 0 W/m 1,8 C 0,0 km/h (0 Bft)
09.10.2016 22:25 2,7 C 2,8 C 94 % 1023,8 hPa 0,0 mm 0,0 km/h (0 Bft) SO 141 0 min 0,000 mm 0,0 UV-I 0 W/m 1,8 C 0,0 km/h (0 Bft)
09.10.2016 22:26 2,7 C 2,7 C 94 % 1023,8 hPa 0,0 mm 0,0 km/h (0 Bft) SO 141 0 min 0,000 mm 0,0 UV-I 0 W/m 1,8 C 0,0 km/h (0 Bft)
09.10.2016 22:27 2,7 C 2,7 C 94 % 1023,8 hPa 0,0 mm 0,0 km/h (0 Bft) SO 141 0 min 0,000 mm 0,0 UV-I 0 W/m 1,8 C 0,0 km/h (0 Bft)
09.10.2016 22:28 2,7 C 2,7 C 94 % 1023,7 hPa 0,0 mm 0,0 km/h (0 Bft) SO 141 0 min 0,000 mm 0,0 UV-I 0 W/m 1,8 C 0,0 km/h (0 Bft)
09.10.2016 22:29 2,7 C 2,7 C 94 % 1023,8 hPa 0,0 mm 0,0 km/h (0 Bft) SO 141 0 min 0,000 mm 0,0 UV-I 0 W/m 1,8 C 0,0 km/h (0 Bft)
09.10.2016 22:30 2,7 C 2,7 C 94 % 1023,8 hPa 0,0 mm 0,0 km/h (0 Bft) SO 141 0 min 0,000 mm 0,0 UV-I 0 W/m 1,8 C 0,0 km/h (0 Bft)
09.10.2016 22:31 2,7 C 2,7 C 94 % 1023,8 hPa 0,0 mm 0,0 km/h (0 Bft) SO 141 0 min 0,000 mm 0,0 UV-I 0 W/m 1,8 C 0,0 km/h (0 Bft)
09.10.2016 22:32 2,7 C 2,7 C 94 % 1023,7 hPa 0,0 mm 0,0 km/h (0 Bft) SO 141 0 min 0,000 mm 0,0 UV-I 0 W/m 1,8 C 0,0 km/h (0 Bft)
09.10.2016 22:33 2,6 C 2,7 C 94 % 1023,8 hPa 0,0 mm 0,0 km/h (0 Bft) SO 141 0 min 0,000 mm 0,0 UV-I 0 W/m 1,7 C 0,0 km/h (0 Bft)
09.10.2016 22:34 2,6 C 2,6 C 94 % 1023,7 hPa 0,0 mm 0,0 km/h (0 Bft) SO 141 0 min 0,000 mm 0,0 UV-I 0 W/m 1,7 C 0,0 km/h (0 Bft)
09.10.2016 22:35 2,6 C 2,6 C 94 % 1023,7 hPa 0,0 mm 0,4 km/h (0 Bft) SO 141 0 min 0,000 mm 0,0 UV-I 0 W/m 1,7 C 1,6 km/h (1 Bft)
09.10.2016 22:36 2,6 C 2,6 C 94 % 1023,8 hPa 0,0 mm 0,4 km/h (0 Bft) SO 141 0 min 0,000 mm 0,0 UV-I 0 W/m 1,7 C 1,6 km/h (1 Bft)
09.10.2016 22:37 2,6 C 2,6 C 94 % 1023,8 hPa 0,0 mm 0,9 km/h (0 Bft) SO 141 0 min 0,000 mm 0,0 UV-I 0 W/m 1,7 C 1,6 km/h (1 Bft)
09.10.2016 22:38 2,6 C 2,6 C 94 % 1023,9 hPa 0,0 mm 0,9 km/h (0 Bft) SO 141 0 min 0,000 mm 0,0 UV-I 0 W/m 1,7 C 1,6 km/h (1 Bft)
09.10.2016 22:39 2,6 C 2,6 C 95 % 1023,9 hPa 0,0 mm 1,3 km/h (1 Bft) SO 141 0 min 0,000 mm 0,0 UV-I 0 W/m 1,9 C 1,6 km/h (1 Bft)
09.10.2016 22:40 2,6 C 2,6 C 95 % 1023,8 hPa 0,0 mm 0,8 km/h (0 Bft) SO 141 0 min 0,000 mm 0,0 UV-I 0 W/m 1,9 C 1,6 km/h (1 Bft)
09.10.2016 22:41 2,6 C 2,6 C 95 % 1023,9 hPa 0,0 mm 0,3 km/h (0 Bft) SO 141 0 min 0,000 mm 0,0 UV-I 0 W/m 1,9 C 1,6 km/h (1 Bft)
09.10.2016 22:42 2,6 C 2,6 C 95 % 1023,9 hPa 0,0 mm 0,0 km/h (0 Bft) SO 141 0 min 0,000 mm 0,0 UV-I 0 W/m 1,9 C 0,0 km/h (0 Bft)
09.10.2016 22:43 2,6 C 2,6 C 95 % 1023,9 hPa 0,0 mm 0,0 km/h (0 Bft) SO 141 0 min 0,000 mm 0,0 UV-I 0 W/m 1,9 C 0,0 km/h (0 Bft)
09.10.2016 22:44 2,6 C 2,6 C 94 % 1023,9 hPa 0,0 mm 0,0 km/h (0 Bft) SO 141 0 min 0,000 mm 0,0 UV-I 0 W/m 1,7 C 0,0 km/h (0 Bft)
09.10.2016 22:45 2,6 C 2,6 C 94 % 1023,9 hPa 0,0 mm 0,0 km/h (0 Bft) SO 141 0 min 0,000 mm 0,0 UV-I 0 W/m 1,7 C 0,0 km/h (0 Bft)
09.10.2016 22:46 2,6 C 2,6 C 94 % 1023,9 hPa 0,0 mm 0,3 km/h (0 Bft) SO 141 0 min 0,000 mm 0,0 UV-I 0 W/m 1,7 C 1,6 km/h (1 Bft)
09.10.2016 22:47 2,4 C 2,6 C 94 % 1023,9 hPa 0,0 mm 0,4 km/h (0 Bft) SO 141 0 min 0,000 mm 0,0 UV-I 0 W/m 1,5 C 1,6 km/h (1 Bft)
09.10.2016 22:48 2,5 C 2,5 C 94 % 1024,0 hPa 0,0 mm 0,7 km/h (0 Bft) SO 141 0 min 0,000 mm 0,0 UV-I 0 W/m 1,6 C 1,6 km/h (1 Bft)
09.10.2016 22:49 2,5 C 2,6 C 95 % 1023,9 hPa 0,0 mm 0,4 km/h (0 Bft) SO 141 0 min 0,000 mm 0,0 UV-I 0 W/m 1,8 C 1,6 km/h (1 Bft)
09.10.2016 22:50 2,6 C 2,6 C 95 % 1023,9 hPa 0,0 mm 0,7 km/h (0 Bft) SO 141 0 min 0,000 mm 0,0 UV-I 0 W/m 1,9 C 1,6 km/h (1 Bft)
09.10.2016 22:51 2,6 C 2,6 C 95 % 1023,9 hPa 0,0 mm 0,8 km/h (0 Bft) SO 141 0 min 0,000 mm 0,0 UV-I 0 W/m 1,9 C 1,6 km/h (1 Bft)
09.10.2016 22:52 2,5 C 2,6 C 95 % 1024,0 hPa 0,0 mm 0,2 km/h (0 Bft) SO 141 0 min 0,000 mm 0,0 UV-I 0 W/m 1,8 C 1,6 km/h (1 Bft)
09.10.2016 22:53 2,4 C 2,5 C 94 % 1023,9 hPa 0,0 mm 0,0 km/h (0 Bft) SO 141 0 min 0,000 mm 0,0 UV-I 0 W/m 1,5 C 0,0 km/h (0 Bft)
09.10.2016 22:54 2,5 C 2,5 C 94 % 1023,9 hPa 0,0 mm 0,0 km/h (0 Bft) SO 141 0 min 0,000 mm 0,0 UV-I 0 W/m 1,6 C 0,0 km/h (0 Bft)
09.10.2016 22:55 2,4 C 2,5 C 94 % 1023,9 hPa 0,0 mm 0,0 km/h (0 Bft) SO 141 0 min 0,000 mm 0,0 UV-I 0 W/m 1,5 C 0,0 km/h (0 Bft)
09.10.2016 22:56 2,3 C 2,4 C 94 % 1023,9 hPa 0,0 mm 0,0 km/h (0 Bft) SO 141 0 min 0,000 mm 0,0 UV-I 0 W/m 1,4 C 0,0 km/h (0 Bft)
09.10.2016 22:57 2,3 C 2,3 C 94 % 1023,9 hPa 0,0 mm 0,0 km/h (0 Bft) SO 141 0 min 0,000 mm 0,0 UV-I 0 W/m 1,4 C 0,0 km/h (0 Bft)
09.10.2016 22:58 2,2 C 2,3 C 94 % 1024,0 hPa 0,0 mm 0,0 km/h (0 Bft) SO 141 0 min 0,000 mm 0,0 UV-I 0 W/m 1,3 C 0,0 km/h (0 Bft)
09.10.2016 22:59 2,1 C 2,2 C 94 % 1024,0 hPa 0,0 mm 1,0 km/h (0 Bft) SO 141 0 min 0,000 mm 0,0 UV-I 0 W/m 1,2 C 1,6 km/h (1 Bft)
09.10.2016 23:00 2,1 C 2,1 C 94 % 1024,0 hPa 0,0 mm 0,1 km/h (0 Bft) SO 141 0 min 0,000 mm 0,0 UV-I 0 W/m 1,2 C 1,6 km/h (1 Bft)
09.10.2016 23:01 2,2 C 2,2 C 95 % 1023,9 hPa 0,0 mm 0,0 km/h (0 Bft) SO 141 0 min 0,000 mm 0,0 UV-I 0 W/m 1,5 C 0,0 km/h (0 Bft)
09.10.2016 23:02 2,3 C 2,3 C 95 % 1024,0 hPa 0,0 mm 0,0 km/h (0 Bft) SO 141 0 min 0,000 mm 0,0 UV-I 0 W/m 1,6 C 0,0 km/h (0 Bft)
09.10.2016 23:03 2,3 C 2,3 C 95 % 1024,0 hPa 0,0 mm 0,0 km/h (0 Bft) SO 141 0 min 0,000 mm 0,0 UV-I 0 W/m 1,6 C 0,0 km/h (0 Bft)
09.10.2016 23:04 2,3 C 2,3 C 95 % 1024,0 hPa 0,0 mm 0,0 km/h (0 Bft) SO 141 0 min 0,000 mm 0,0 UV-I 0 W/m 1,6 C 0,0 km/h (0 Bft)
09.10.2016 23:05 2,3 C 2,3 C 95 % 1024,0 hPa 0,0 mm 0,0 km/h (0 Bft) SO 141 0 min 0,000 mm 0,0 UV-I 0 W/m 1,6 C 0,0 km/h (0 Bft)
09.10.2016 23:06 2,3 C 2,3 C 95 % 1024,0 hPa 0,0 mm 0,0 km/h (0 Bft) SO 141 0 min 0,000 mm 0,0 UV-I 0 W/m 1,6 C 0,0 km/h (0 Bft)
09.10.2016 23:07 2,3 C 2,4 C 95 % 1024,0 hPa 0,0 mm 0,0 km/h (0 Bft) SO 141 0 min 0,000 mm 0,0 UV-I 0 W/m 1,6 C 0,0 km/h (0 Bft)
09.10.2016 23:08 2,3 C 2,3 C 95 % 1024,0 hPa 0,0 mm 0,0 km/h (0 Bft) SO 141 0 min 0,000 mm 0,0 UV-I 0 W/m 1,6 C 0,0 km/h (0 Bft)
09.10.2016 23:09 2,3 C 2,3 C 95 % 1024,0 hPa 0,0 mm 0,1 km/h (0 Bft) SO 141 0 min 0,000 mm 0,0 UV-I 0 W/m 1,6 C 1,6 km/h (1 Bft)
09.10.2016 23:10 2,3 C 2,3 C 94 % 1024,1 hPa 0,0 mm 0,0 km/h (0 Bft) SO 141 0 min 0,000 mm 0,0 UV-I 0 W/m 1,4 C 0,0 km/h (0 Bft)
09.10.2016 23:11 2,3 C 2,3 C 94 % 1024,1 hPa 0,0 mm 0,0 km/h (0 Bft) SO 141 0 min 0,000 mm 0,0 UV-I 0 W/m 1,4 C 0,0 km/h (0 Bft)
09.10.2016 23:12 2,2 C 2,3 C 94 % 1024,0 hPa 0,0 mm 0,6 km/h (0 Bft) SO 141 0 min 0,000 mm 0,0 UV-I 0 W/m 1,3 C 1,6 km/h (1 Bft)
09.10.2016 23:13 2,2 C 2,2 C 94 % 1024,0 hPa 0,0 mm 0,3 km/h (0 Bft) SO 141 0 min 0,000 mm 0,0 UV-I 0 W/m 1,3 C 1,6 km/h (1 Bft)
09.10.2016 23:14 2,2 C 2,2 C 94 % 1024,0 hPa 0,0 mm 0,5 km/h (0 Bft) SO 141 0 min 0,000 mm 0,0 UV-I 0 W/m 1,3 C 1,6 km/h (1 Bft)
09.10.2016 23:15 2,2 C 2,2 C 94 % 1024,0 hPa 0,0 mm 0,0 km/h (0 Bft) SO 141 0 min 0,000 mm 0,0 UV-I 0 W/m 1,3 C 0,0 km/h (0 Bft)
09.10.2016 23:16 2,1 C 2,2 C 94 % 1024,0 hPa 0,0 mm 0,0 km/h (0 Bft) SO 141 0 min 0,000 mm 0,0 UV-I 0 W/m 1,2 C 0,0 km/h (0 Bft)
09.10.2016 23:17 2,2 C 2,2 C 94 % 1024,0 hPa 0,0 mm 0,0 km/h (0 Bft) SO 141 0 min 0,000 mm 0,0 UV-I 0 W/m 1,3 C 0,0 km/h (0 Bft)
09.10.2016 23:18 2,1 C 2,2 C 94 % 1023,9 hPa 0,0 mm 0,0 km/h (0 Bft) SO 141 0 min 0,000 mm 0,0 UV-I 0 W/m 1,2 C 0,0 km/h (0 Bft)
09.10.2016 23:19 2,1 C 2,2 C 94 % 1023,9 hPa 0,0 mm 0,0 km/h (0 Bft) SO 141 0 min 0,000 mm 0,0 UV-I 0 W/m 1,2 C 0,0 km/h (0 Bft)
09.10.2016 23:20 2,1 C 2,1 C 94 % 1023,9 hPa 0,0 mm 0,0 km/h (0 Bft) SO 141 0 min 0,000 mm 0,0 UV-I 0 W/m 1,2 C 0,0 km/h (0 Bft)
09.10.2016 23:21 2,0 C 2,1 C 94 % 1023,9 hPa 0,0 mm 0,0 km/h (0 Bft) SO 141 0 min 0,000 mm 0,0 UV-I 0 W/m 1,1 C 0,0 km/h (0 Bft)
09.10.2016 23:22 1,9 C 2,0 C 94 % 1023,9 hPa 0,0 mm 0,0 km/h (0 Bft) SO 141 0 min 0,000 mm 0,0 UV-I 0 W/m 1,0 C 0,0 km/h (0 Bft)
09.10.2016 23:23 1,9 C 1,9 C 94 % 1024,0 hPa 0,0 mm 0,0 km/h (0 Bft) SO 141 0 min 0,000 mm 0,0 UV-I 0 W/m 1,0 C 0,0 km/h (0 Bft)
09.10.2016 23:24 1,9 C 1,9 C 94 % 1023,9 hPa 0,0 mm 0,0 km/h (0 Bft) SO 141 0 min 0,000 mm 0,0 UV-I 0 W/m 1,0 C 0,0 km/h (0 Bft)
09.10.2016 23:25 1,8 C 1,9 C 94 % 1023,9 hPa 0,0 mm 0,3 km/h (0 Bft) SO 141 0 min 0,000 mm 0,0 UV-I 0 W/m 0,9 C 1,6 km/h (1 Bft)
09.10.2016 23:26 1,9 C 1,9 C 94 % 1024,0 hPa 0,0 mm 0,7 km/h (0 Bft) SO 141 0 min 0,000 mm 0,0 UV-I 0 W/m 1,0 C 1,6 km/h (1 Bft)
09.10.2016 23:27 1,9 C 1,9 C 95 % 1023,9 hPa 0,0 mm 0,7 km/h (0 Bft) SO 141 0 min 0,000 mm 0,0 UV-I 0 W/m 1,2 C 1,6 km/h (1 Bft)
09.10.2016 23:28 1,9 C 1,9 C 95 % 1023,9 hPa 0,0 mm 0,5 km/h (0 Bft) SO 141 0 min 0,000 mm 0,0 UV-I 0 W/m 1,2 C 1,6 km/h (1 Bft)
09.10.2016 23:29 2,0 C 2,0 C 95 % 1023,9 hPa 0,0 mm 2,1 km/h (1 Bft) SO 141 0 min 0,000 mm 0,0 UV-I 0 W/m 1,3 C 3,2 km/h (1 Bft)
09.10.2016 23:30 2,0 C 2,0 C 95 % 1023,9 hPa 0,0 mm 0,6 km/h (0 Bft) SO 141 0 min 0,000 mm 0,0 UV-I 0 W/m 1,3 C 1,6 km/h (1 Bft)
09.10.2016 23:31 2,1 C 2,1 C 95 % 1023,9 hPa 0,0 mm 0,0 km/h (0 Bft) SO 141 0 min 0,000 mm 0,0 UV-I 0 W/m 1,4 C 0,0 km/h (0 Bft)
09.10.2016 23:32 2,1 C 2,1 C 95 % 1023,9 hPa 0,0 mm 0,0 km/h (0 Bft) SO 141 0 min 0,000 mm 0,0 UV-I 0 W/m 1,4 C 0,0 km/h (0 Bft)
09.10.2016 23:33 2,1 C 2,1 C 95 % 1024,0 hPa 0,0 mm 0,0 km/h (0 Bft) SO 141 0 min 0,000 mm 0,0 UV-I 0 W/m 1,4 C 0,0 km/h (0 Bft)
09.10.2016 23:34 2,1 C 2,1 C 95 % 1023,9 hPa 0,0 mm 0,0 km/h (0 Bft) SO 141 0 min 0,000 mm 0,0 UV-I 0 W/m 1,4 C 0,0 km/h (0 Bft)
09.10.2016 23:35 2,0 C 2,1 C 95 % 1024,0 hPa 0,0 mm 0,0 km/h (0 Bft) SO 141 0 min 0,000 mm 0,0 UV-I 0 W/m 1,3 C 0,0 km/h (0 Bft)
09.10.2016 23:36 2,1 C 2,1 C 95 % 1024,0 hPa 0,0 mm 0,6 km/h (0 Bft) SO 141 0 min 0,000 mm 0,0 UV-I 0 W/m 1,4 C 1,6 km/h (1 Bft)
09.10.2016 23:37 2,1 C 2,1 C 95 % 1023,9 hPa 0,0 mm 0,6 km/h (0 Bft) SO 141 0 min 0,000 mm 0,0 UV-I 0 W/m 1,4 C 1,6 km/h (1 Bft)
09.10.2016 23:38 2,1 C 2,1 C 95 % 1024,0 hPa 0,0 mm 0,0 km/h (0 Bft) SO 141 0 min 0,000 mm 0,0 UV-I 0 W/m 1,4 C 0,0 km/h (0 Bft)
09.10.2016 23:39 2,1 C 2,1 C 95 % 1024,0 hPa 0,0 mm 0,0 km/h (0 Bft) SO 141 0 min 0,000 mm 0,0 UV-I 0 W/m 1,4 C 0,0 km/h (0 Bft)
09.10.2016 23:40 2,0 C 2,1 C 95 % 1024,0 hPa 0,0 mm 0,0 km/h (0 Bft) SO 141 0 min 0,000 mm 0,0 UV-I 0 W/m 1,3 C 0,0 km/h (0 Bft)
09.10.2016 23:41 1,9 C 2,0 C 94 % 1024,0 hPa 0,0 mm 0,0 km/h (0 Bft) SO 141 0 min 0,000 mm 0,0 UV-I 0 W/m 1,0 C 0,0 km/h (0 Bft)
09.10.2016 23:42 1,9 C 1,9 C 94 % 1024,0 hPa 0,0 mm 0,0 km/h (0 Bft) SO 141 0 min 0,000 mm 0,0 UV-I 0 W/m 1,0 C 0,0 km/h (0 Bft)
09.10.2016 23:43 1,9 C 1,9 C 94 % 1024,0 hPa 0,0 mm 0,0 km/h (0 Bft) SO 141 0 min 0,000 mm 0,0 UV-I 0 W/m 1,0 C 0,0 km/h (0 Bft)
09.10.2016 23:44 1,9 C 1,9 C 95 % 1024,0 hPa 0,0 mm 0,0 km/h (0 Bft) SO 141 0 min 0,000 mm 0,0 UV-I 0 W/m 1,2 C 0,0 km/h (0 Bft)
09.10.2016 23:45 1,8 C 1,9 C 94 % 1024,0 hPa 0,0 mm 0,0 km/h (0 Bft) SO 141 0 min 0,000 mm 0,0 UV-I 0 W/m 0,9 C 0,0 km/h (0 Bft)
09.10.2016 23:46 1,8 C 1,8 C 94 % 1024,0 hPa 0,0 mm 0,0 km/h (0 Bft) SO 141 0 min 0,000 mm 0,0 UV-I 0 W/m 0,9 C 0,0 km/h (0 Bft)
09.10.2016 23:47 1,7 C 1,8 C 94 % 1024,0 hPa 0,0 mm 0,0 km/h (0 Bft) SO 141 0 min 0,000 mm 0,0 UV-I 0 W/m 0,8 C 0,0 km/h (0 Bft)
09.10.2016 23:48 1,7 C 1,7 C 94 % 1023,9 hPa 0,0 mm 0,0 km/h (0 Bft) SO 141 0 min 0,000 mm 0,0 UV-I 0 W/m 0,8 C 0,0 km/h (0 Bft)
09.10.2016 23:49 1,6 C 1,7 C 94 % 1024,0 hPa 0,0 mm 0,0 km/h (0 Bft) SO 141 0 min 0,000 mm 0,0 UV-I 0 W/m 0,7 C 0,0 km/h (0 Bft)
09.10.2016 23:50 1,6 C 1,6 C 94 % 1023,9 hPa 0,0 mm 0,0 km/h (0 Bft) SO 141 0 min 0,000 mm 0,0 UV-I 0 W/m 0,7 C 0,0 km/h (0 Bft)
09.10.2016 23:51 1,6 C 1,6 C 94 % 1024,0 hPa 0,0 mm 0,0 km/h (0 Bft) SO 141 0 min 0,000 mm 0,0 UV-I 0 W/m 0,7 C 0,0 km/h (0 Bft)
09.10.2016 23:52 1,5 C 1,6 C 94 % 1023,9 hPa 0,0 mm 0,0 km/h (0 Bft) SO 141 0 min 0,000 mm 0,0 UV-I 0 W/m 0,6 C 0,0 km/h (0 Bft)
09.10.2016 23:53 1,5 C 1,5 C 94 % 1024,0 hPa 0,0 mm 0,0 km/h (0 Bft) SO 141 0 min 0,000 mm 0,0 UV-I 0 W/m 0,6 C 0,0 km/h (0 Bft)
09.10.2016 23:54 1,5 C 1,5 C 94 % 1024,0 hPa 0,0 mm 1,0 km/h (0 Bft) SO 141 0 min 0,000 mm 0,0 UV-I 0 W/m 0,6 C 1,6 km/h (1 Bft)
09.10.2016 23:55 1,4 C 1,5 C 94 % 1023,9 hPa 0,0 mm 1,3 km/h (1 Bft) SO 141 0 min 0,000 mm 0,0 UV-I 0 W/m 0,5 C 1,6 km/h (1 Bft)
09.10.2016 23:56 1,6 C 1,6 C 95 % 1024,0 hPa 0,0 mm 1,2 km/h (1 Bft) SO 141 0 min 0,000 mm 0,0 UV-I 0 W/m 0,9 C 1,6 km/h (1 Bft)
09.10.2016 23:57 1,7 C 1,7 C 95 % 1023,9 hPa 0,0 mm 1,1 km/h (1 Bft) SO 141 0 min 0,000 mm 0,0 UV-I 0 W/m 1,0 C 1,6 km/h (1 Bft)
09.10.2016 23:58 1,8 C 1,8 C 95 % 1023,9 hPa 0,0 mm 2,3 km/h (1 Bft) SO 142 0 min 0,000 mm 0,0 UV-I 0 W/m 1,1 C 3,2 km/h (1 Bft)
09.10.2016 23:59 1,9 C 1,9 C 95 % 1023,9 hPa 0,0 mm 2,1 km/h (1 Bft) SO 142 0 min 0,000 mm 0,0 UV-I 0 W/m 1,2 C 3,2 km/h (1 Bft)
_ Min-Zeit 06:51 06:52 17:05 17:24 - 23:53 - - - - - - 06:52 23:53
Minimum _ 0,4 C 0,5 C 75 % 1021,2 hPa - 0,0 km/h (0 Bft) - - - - - - -0,1 C 0,0 km/h (0 Bft)
_ Max-Zeit 15:26 15:27 10:23 23:11 23:59 12:33 - - 18:27 14:01 13:11 12:34 14:28 12:33
Maximum _ 8,2 C 8,2 C 97 % 1024,1 hPa 0,0 mm 12,6 km/h
O (3 Bft)
- - 1 min 0,178 mm 3,1 UV-I 584 W/m 5,3 C 19,3 km/h
O-NO (3 Bft)
Durchschnitt _ 3,9 C 3,9 C 91 % 1022,4 hPa #0,0 mm 2,0 km/h (1 Bft) NO - #2:40 h #0,914 mm 1,5 UV-I 80 W/m 2,6 C 3,4 km/h (1 Bft)